[[{"header":{"parameterUnit":"m.s-1","parameterCategory":1,"la1":30.6,"la2":28.766,"lo1":-90.7593,"lo2":-88.6598,"dy":0.0162,"dx":0.0183,"nx":116,"ny":114,"refTime":"2024-05-16T06:00:00:Z","depth":0,"parameterNumber":2,"parameterNumberName":"U-component_of_WINDS"},"data":[0.0,0.0,0.0,0.0,0.0,0.0,0.0,0.0,0.0,0.0,0.0,0.0,0.0,0.0,0.0,0.0,0.0,0.0,0.0,0.0,0.0,0.0,0.0,0.0,0.0,0.0,0.0,0.0,0.0,0.0,0.0,0.0,0.0,0.0,0.0,0.0,0.0,0.0,0.0,0.0,0.0,0.0,0.0,0.0,0.0,0.0,0.0,0.0,0.0,0.0,0.0,0.0,0.0,0.0,0.0,0.0,0.0,0.0,0.0,0.0,0.0,0.0,0.0,0.0,0.0,0.0,0.0,0.0,0.0,0.0,0.0,0.0,0.0,0.0,0.0,0.0,0.0,0.0,0.0,0.0,0.0,0.0,0.0,0.0,0.0,0.0,0.0,0.0,0.0,0.0,0.0,0.0,0.0,0.0,0.0,0.0,0.0,0.0,0.0,0.0,0.0,0.0,0.0,0.0,0.0,0.0,0.0,0.0,0.0,0.0,0.0,0.0,0.0,0.0,0.0,0.0,0.0,0.0,0.0,0.0,0.0,0.0,0.0,0.0,0.0,0.0,0.0,0.0,0.0,0.0,0.0,0.0,0.0,0.0,0.0,0.0,0.0,0.0,0.0,0.0,0.0,0.0,0.0,0.0,0.0,0.0,0.0,0.0,0.0,0.0,0.0,0.0,0.0,0.0,0.0,0.0,0.0,0.0,0.0,0.0,0.0,0.0,0.0,0.0,0.0,0.0,0.0,0.0,0.0,0.0,0.0,0.0,0.0,0.0,0.0,0.0,0.0,0.0,0.0,0.0,0.0,0.0,0.0,0.0,0.0,0.0,0.0,0.0,0.0,0.0,0.0,0.0,0.0,0.0,0.0,0.0,0.0,0.0,0.0,0.0,0.0,0.0,0.0,0.0,0.0,0.0,0.0,0.0,0.0,0.0,0.0,0.0,0.0,0.0,0.0,0.0,0.0,0.0,0.0,0.0,0.0,0.0,0.0,0.0,0.0,0.0,0.0,0.0,0.0,0.0,0.0,0.0,0.0,0.0,0.0,0.0,0.0,0.0,0.0,0.0,0.0,0.0,0.0,0.0,0.0,0.0,0.0,0.0,0.0,0.0,0.0,0.0,0.0,0.0,0.0,0.0,0.0,0.0,0.0,0.0,0.0,0.0,0.0,0.0,0.0,0.0,0.0,0.0,0.0,0.0,0.0,0.0,0.0,0.0,0.0,0.0,0.0,0.0,0.0,0.0,0.0,0.0,0.0,0.0,0.0,0.0,0.0,0.0,0.0,0.0,0.0,0.0,0.0,0.0,0.0,0.0,0.0,0.0,0.0,0.0,0.0,0.0,0.0,0.0,0.0,0.0,0.0,0.0,0.0,0.0,0.0,0.0,0.0,0.0,0.0,0.0,0.0,0.0,0.0,0.0,0.0,0.0,0.0,0.0,0.0,0.0,0.0,0.0,0.0,0.0,0.0,0.0,0.0,0.0,0.0,0.0,0.0,0.0,0.0,0.0,0.0,0.0,0.0,0.0,0.0,0.0,0.0,0.0,0.0,0.0,0.0,0.0,0.0,0.0,0.0,0.0,0.0,0.0,0.0,0.0,0.0,0.0,0.0,0.0,0.0,0.0,0.0,0.0,0.0,0.0,0.0,0.0,0.0,0.0,0.0,0.0,0.0,0.0,0.0,0.0,0.0,0.0,0.0,0.0,0.0,0.0,0.0,0.0,0.0,0.0,0.0,0.0,0.0,0.0,0.0,0.0,0.0,0.0,0.0,0.0,0.0,0.0,0.0,0.0,0.0,0.0,0.0,0.0,0.0,0.0,0.0,0.0,0.0,0.0,0.0,0.0,0.0,0.0,0.0,0.0,0.0,0.0,0.0,0.0,0.0,0.0,0.0,0.0,0.0,0.0,0.0,0.0,0.0,0.0,0.0,0.0,0.0,0.0,0.0,0.0,0.0,0.0,0.0,0.0,0.0,0.0,0.0,0.0,0.0,0.0,0.0,0.0,0.0,0.0,0.0,0.0,0.0,0.0,0.0,0.0,0.0,0.0,0.0,0.0,0.0,0.0,0.0,0.0,0.0,0.0,0.0,0.0,0.0,0.0,0.0,0.0,0.0,0.0,0.0,0.0,0.0,0.0,0.0,0.0,0.0,0.0,0.0,0.0,0.0,0.0,0.0,0.0,0.0,0.0,0.0,0.0,0.0,0.0,0.0,0.0,0.0,0.0,0.0,0.0,0.0,0.0,0.0,0.0,0.0,0.0,0.0,0.0,0.0,0.0,0.0,0.0,0.0,0.0,0.0,0.0,0.0,0.0,0.0,0.0,0.0,0.0,0.0,0.0,0.0,0.0,0.0,0.0,0.0,0.0,0.0,0.0,0.0,0.0,0.0,0.0,0.0,0.0,0.0,0.0,0.0,0.0,0.0,0.0,0.0,0.0,0.0,0.0,0.0,0.0,0.0,0.0,0.0,0.0,0.0,0.0,0.0,0.0,0.0,0.0,0.0,0.0,0.0,0.0,0.0,0.0,0.0,0.0,0.0,0.0,0.0,0.0,0.0,0.0,0.0,0.0,0.0,0.0,0.0,0.0,0.0,0.0,0.0,0.0,0.0,0.0,0.0,0.0,0.0,0.0,0.0,0.0,0.0,0.0,0.0,0.0,0.0,0.0,0.0,0.0,0.0,0.0,0.0,0.0,0.0,0.0,0.0,0.0,0.0,0.0,0.0,0.0,0.0,0.0,0.0,0.0,0.0,0.0,0.0,0.0,0.0,0.0,0.0,0.0,0.0,0.0,0.0,0.0,0.0,0.0,0.0,0.0,0.0,0.0,0.0,0.0,0.0,0.0,0.0,0.0,0.0,0.0,0.0,0.0,0.0,0.0,0.0,0.0,0.0,0.0,0.0,0.0,0.0,0.0,0.0,0.0,0.0,0.0,0.0,0.0,0.0,0.0,0.0,0.0,0.0,0.0,0.0,0.0,0.0,0.0,0.0,0.0,0.0,0.0,0.0,0.0,0.0,0.0,0.0,0.0,0.0,0.0,0.0,0.0,0.0,0.0,0.0,0.0,0.0,0.0,0.0,0.0,0.0,0.0,0.0,0.0,0.0,0.0,0.0,0.0,0.0,0.0,0.0,0.0,0.0,0.0,0.0,0.0,0.0,0.0,0.0,0.0,0.0,0.0,0.0,0.0,0.0,0.0,0.0,0.0,0.0,0.0,0.0,0.0,0.0,0.0,0.0,0.0,0.0,0.0,0.0,0.0,0.0,0.0,0.0,0.0,0.0,0.0,0.0,0.0,0.0,0.0,0.0,0.0,0.0,0.0,0.0,0.0,0.0,0.0,0.0,0.0,0.0,0.0,0.0,0.0,0.0,0.0,0.0,0.0,0.0,0.0,0.0,0.0,0.0,0.0,0.0,0.0,0.0,0.0,0.0,0.0,0.0,0.0,0.0,0.0,0.0,0.0,0.0,0.0,0.0,0.0,0.0,0.0,0.0,0.0,0.0,0.0,0.0,0.0,0.0,0.0,0.0,0.0,0.0,0.0,0.0,0.0,0.0,0.0,0.0,0.0,0.0,0.0,0.0,0.0,0.0,0.0,0.0,0.0,0.0,0.0,0.0,0.0,0.0,0.0,0.0,0.0,0.0,0.0,0.0,0.0,0.0,0.0,0.0,0.0,0.0,0.0,0.0,0.0,0.0,0.0,0.0,0.0,0.0,0.0,0.0,0.0,0.0,0.0,0.0,0.0,0.0,0.0,0.0,0.0,0.0,0.0,0.0,0.0,0.0,0.0,0.0,0.0,0.0,0.0,0.0,0.0,0.0,0.0,0.0,0.0,0.0,0.0,0.0,0.0,0.0,0.0,0.0,0.0,0.0,0.0,0.0,0.0,0.0,0.0,0.0,0.0,0.0,0.0,0.0,0.0,0.0,0.0,0.0,0.0,0.0,0.0,0.0,0.0,0.0,0.0,0.0,0.0,0.0,0.0,0.0,0.0,0.0,0.0,0.0,0.0,0.0,0.0,0.0,0.0,0.0,0.0,0.0,0.0,0.0,0.0,0.0,0.0,0.0,0.0,0.0,0.0,0.0,0.0,0.0,0.0,0.0,0.0,0.0,0.0,0.0,0.0,0.0,0.0,0.0,0.0,0.0,0.0,0.0,0.0,0.0,0.0,0.0,0.0,0.0,0.0,0.0,0.0,0.0,0.0,0.0,0.0,0.0,0.0,0.0,0.0,0.0,0.0,0.0,0.0,0.0,0.0,0.0,0.0,0.0,0.0,0.0,0.0,0.0,0.0,0.0,0.0,0.0,0.0,0.0,0.0,0.0,0.0,0.0,0.0,0.0,0.0,0.0,0.0,0.0,0.0,0.0,0.0,0.0,0.0,0.0,0.0,0.0,0.0,0.0,0.0,0.0,0.0,0.0,0.0,0.0,0.0,0.0,0.0,0.0,0.0,0.0,0.0,0.0,0.0,0.0,0.0,0.0,0.0,0.0,0.0,0.0,0.0,0.0,0.0,0.0,0.0,0.0,0.0,0.0,0.0,0.0,0.0,0.0,0.0,0.0,0.0,0.0,0.0,0.0,0.0,0.0,0.0,0.0,0.0,0.0,0.0,0.0,0.0,0.0,0.0,0.0,0.0,0.0,0.0,0.0,0.0,0.0,0.0,0.0,0.0,0.0,0.0,0.0,0.0,0.0,0.0,0.0,0.0,0.0,0.0,0.0,0.0,0.0,0.0,0.0,0.0,0.0,0.0,0.0,0.0,0.0,0.0,0.0,0.0,0.0,0.0,0.0,0.0,0.0,0.0,0.0,0.0,0.0,0.0,0.0,0.0,0.0,0.0,0.0,0.0,0.0,0.0,0.0,0.0,0.0,0.0,0.0,0.0,0.0,0.0,0.0,0.0,0.0,0.0,0.0,0.0,0.0,0.0,0.0,0.0,0.0,0.0,0.0,0.0,0.0,0.0,0.0,0.0,0.0,0.0,0.0,0.0,0.0,0.0,0.0,0.0,0.0,0.0,0.0,0.0,0.0,0.0,0.0,0.0,0.0,0.0,0.0,0.0,0.0,0.0,0.0,0.0,0.0,0.0,0.0,0.0,0.0,0.0,0.0,0.0,0.0,0.0,0.0,0.0,0.0,0.0,0.0,0.0,0.0,0.0,0.0,0.0,0.0,0.0,0.0,0.0,0.0,0.0,0.0,0.0,0.0,0.0,0.0,0.0,0.0,0.0,0.0,0.0,0.0,0.0,0.0,0.0,0.0,0.0,0.0,0.0,0.0,0.0,0.0,0.0,0.0,0.0,0.0,0.0,0.0,0.0,0.0,0.0,0.0,0.0,0.0,0.0,0.0,0.0,0.0,0.0,0.0,0.0,0.0,0.0,0.0,0.0,0.0,0.0,0.0,0.0,0.0,0.0,0.0,0.0,0.0,0.0,0.0,0.0,0.0,0.0,0.0,0.0,0.0,0.0,0.0,0.0,0.0,0.0,0.0,0.0,0.0,0.0,0.0,0.0,0.0,0.0,0.0,0.0,0.0,0.0,0.0,0.0,0.0,0.0,0.0,0.0,0.0,0.0,0.0,0.0,0.0,0.0,0.0,0.0,0.0,0.0,0.0,0.0,0.0,0.0,0.0,0.0,0.0,0.0,0.0,0.0,0.0,0.0,0.0,0.0,0.0,0.0,0.0,0.0,0.0,0.0,0.0,0.0,0.0,0.0,0.0,0.0,0.0,0.0,0.0,0.0,0.0,0.0,0.0,0.0,0.0,0.0,0.0,0.0,0.0,0.0,0.0,0.0,0.0,0.0,0.0,0.0,0.0,0.0,0.0,0.0,0.0,0.0,0.0,0.0,0.0,0.0,0.0,0.0,0.0,0.0,0.0,0.0,0.0,0.0,0.0,0.0,0.0,0.0,0.0,0.0,0.0,0.0,0.0,0.0,0.0,0.0,0.0,0.0,0.0,0.0,0.0,0.0,0.0,0.0,0.0,0.0,0.0,0.0,0.0,0.0,0.0,0.0,0.0,0.0,0.0,0.0,0.0,0.0,0.0,0.0,0.0,0.0,0.0,0.0,0.0,0.0,0.0,0.0,0.0,0.0,0.0,0.0,1.1465,1.0821,0.0,0.0,0.0,0.0,0.0,0.0,0.0,0.0,0.0,0.0,0.0,0.0,0.0,0.0,0.0,0.0,0.0,0.0,0.0,0.0,0.0,0.0,0.0,0.95,0.95,0.95,0.95,0.95,0.95,0.0,0.0,0.0,0.0,0.0,0.95,0.95,0.9689,1.0078,1.0078,1.0663,1.1812,1.1833,1.1486,1.0811,0.0,0.0,0.0,0.0,0.0,0.0,0.0,0.0,0.0,0.0,0.0,0.0,0.0,0.0,0.0,0.0,0.0,0.0,0.0,0.0,0.0,0.0,0.0,0.0,0.0,0.0,0.0,0.0,0.0,0.0,0.0,0.0,0.0,0.0,0.0,0.0,0.0,0.0,0.0,0.0,0.0,0.0,0.0,0.0,0.0,0.0,0.0,0.0,0.0,0.0,0.0,0.0,0.0,0.0,0.0,0.0,0.0,0.0,0.0,0.0,0.0,0.0,0.0,0.0,0.0,0.0,0.0,0.0,0.0,0.0,1.3019,1.2377,0.0,0.0,0.0,0.0,0.0,0.0,0.0,0.0,0.0,0.0,0.0,0.0,0.0,0.0,0.0,0.0,0.0,0.0,0.0,0.0,0.0,0.8605,0.941,0.95,0.95,0.95,0.95,0.95,0.95,0.95,0.0,0.0,0.0,0.95,0.95,0.9635,1.0096,1.091,1.1437,1.2369,1.3651,1.4756,1.4628,1.3457,1.2919,0.0,0.0,0.0,0.0,0.0,0.0,0.0,0.0,0.0,0.0,0.0,0.0,0.0,0.0,0.0,0.0,0.0,0.0,0.0,0.0,0.0,0.0,0.0,0.0,0.0,0.0,0.0,0.0,0.0,0.0,0.0,0.0,0.0,0.0,0.0,0.0,0.0,0.0,0.0,0.0,0.0,0.0,0.0,0.0,0.0,0.0,0.0,0.0,0.0,0.0,0.0,0.0,0.0,0.0,0.0,0.0,0.0,0.0,0.0,0.0,0.0,0.0,0.0,1.6923,1.6243,1.6139,1.6652,1.6766,1.652,1.4803,1.4262,1.4616,1.4251,0.0,0.0,0.0,0.0,0.0,0.0,0.0,0.0,0.0,0.0,0.0,0.0,0.0,0.0,0.0,0.0,0.0,0.0,0.0,0.8605,0.941,0.95,0.95,0.95,0.95,0.95,0.95,0.95,0.0,0.0,0.95,0.95,0.95,1.0168,1.0937,1.1744,1.4428,1.5863,1.6153,1.7921,1.868,1.8408,1.5566,1.454,1.4849,0.0,0.0,0.0,0.0,0.0,0.0,0.0,0.0,0.0,0.0,0.0,0.0,0.0,0.0,0.0,0.0,0.0,0.0,0.0,0.0,0.0,0.0,0.0,0.0,0.0,0.0,0.0,0.0,0.0,0.0,0.0,0.0,0.0,0.0,0.0,0.0,0.0,0.0,0.0,0.0,0.0,1.1152,1.1584,0.0,0.0,0.0,0.0,0.0,0.0,0.0,0.0,0.0,0.0,0.0,0.0,0.0,1.3039,1.1311,1.5747,1.8053,1.8204,1.7999,1.7895,1.7857,1.7966,1.8223,1.8616,1.8327,0.0,1.5547,1.5724,0.0,0.0,0.0,0.0,0.0,0.0,0.0,0.0,0.0,0.0,0.0,0.0,0.0,0.0,0.0,0.0,0.0,0.0,0.0,0.0,0.0,1.0168,1.0349,1.0802,1.1224,1.1097,1.0223,1.0602,1.0448,0.9536,0.95,0.95,0.95,1.0728,1.2392,1.45,1.6805,1.822,1.8701,2.0142,2.0834,2.079,1.9497,1.8068,1.6522,1.5027,0.0,0.0,0.0,0.0,0.0,0.0,0.0,0.0,0.0,0.0,0.0,0.0,0.0,0.0,0.0,0.0,0.0,0.0,0.0,0.0,0.0,0.0,0.0,0.0,0.0,0.0,0.0,0.0,0.0,0.0,0.0,0.0,0.0,0.0,0.0,0.0,0.0,0.0,0.0,1.0934,1.2215,1.2555,1.3027,1.3026,0.0,0.0,0.0,0.0,0.0,0.0,0.0,0.0,0.0,1.5533,1.5308,1.5519,1.6267,1.8142,1.9108,1.9095,1.8493,1.8518,1.912,1.9547,1.9822,2.0072,2.0326,1.9673,1.8465,1.7824,1.7248,1.6692,0.0,0.0,0.0,0.0,1.5841,1.5388,0.0,0.0,0.0,0.0,0.0,0.0,0.0,0.0,0.0,0.0,0.0,0.0,1.063,1.1074,1.1554,1.213,1.2703,1.2631,1.1652,1.1595,1.1151,1.0159,0.9725,0.9599,0.9798,1.196,1.4419,1.717,1.9071,2.0317,2.0951,2.2066,2.2569,2.2571,2.2853,2.1469,1.8817,1.7363,1.5753,0.0,0.0,0.0,0.0,0.0,0.0,0.0,0.0,0.0,0.0,0.0,0.0,0.0,0.0,0.0,0.0,0.0,0.0,0.0,0.0,0.0,0.0,0.0,0.0,0.0,0.0,0.0,0.0,0.0,0.0,0.0,0.0,0.0,0.0,0.0,0.0,0.0,0.0,1.2085,1.326,1.3714,1.4413,1.44,0.0,0.0,0.0,0.0,0.0,0.0,1.6872,1.6763,1.7062,1.7821,1.6965,1.7566,1.9773,1.9798,2.0087,2.0639,1.956,1.9459,2.0263,2.0861,2.1174,2.1187,2.1556,2.1468,2.102,1.9736,1.9003,1.8617,1.8495,1.8409,1.8419,1.859,1.8248,1.7766,0.0,0.0,0.0,0.0,0.0,0.0,0.0,0.0,0.0,0.0,0.0,1.0578,1.0684,1.2061,1.2979,1.2939,1.304,1.3359,1.3984,1.1967,1.1065,1.1753,1.0331,0.9861,1.0621,1.4342,1.7165,1.8975,2.1295,2.2511,2.2702,2.3838,2.4364,2.4381,2.4733,2.4172,2.2806,1.9757,1.8791,1.8983,0.0,0.0,0.0,0.0,0.0,0.0,0.0,0.0,0.0,0.0,0.0,0.0,0.0,0.0,0.0,0.0,0.0,0.0,0.0,0.0,0.0,0.0,0.0,0.0,0.0,0.0,0.0,0.0,0.0,0.0,0.0,0.0,0.0,0.0,0.0,0.0,0.0,0.0,0.0,1.5492,1.573,0.0,0.0,0.0,0.0,1.5591,1.6346,1.7103,1.7778,1.8485,1.911,1.9648,1.8641,1.8654,1.9798,1.9798,2.0865,2.289,2.1845,2.1355,2.1418,2.1807,2.1926,2.1938,2.2184,2.2246,2.2146,2.1058,2.0513,2.038,2.0354,2.0341,2.0341,2.038,2.0066,1.9597,0.0,0.0,0.0,0.0,0.0,0.9375,0.9274,0.9236,0.9245,0.9385,1.0099,1.1026,1.2122,1.322,1.4263,1.5234,1.5778,1.5746,1.5012,1.3712,1.3076,1.3365,1.1877,1.2354,1.5134,1.6566,1.8609,2.135,2.2278,2.3124,2.3894,2.4414,2.4707,2.4832,2.495,2.4766,2.4242,2.2048,2.0649,1.9669,1.7082,1.5132,0.0,0.0,0.0,0.0,0.0,0.0,0.0,0.0,0.0,0.0,0.0,0.0,0.0,0.0,0.0,0.0,0.0,0.0,0.0,0.0,0.0,0.0,0.0,0.0,0.0,0.0,0.0,0.0,0.0,0.0,0.0,0.0,0.0,0.0,0.0,0.0,0.0,1.6796,1.7495,0.0,1.7519,1.7579,1.7647,1.7652,1.8654,1.9382,1.9608,2.0306,2.0886,2.139,2.0726,2.0501,2.0878,2.1594,2.2347,2.3125,2.2736,2.2548,2.2548,2.2627,2.2689,2.2689,2.2752,2.2836,2.2811,2.2422,2.1832,2.1148,2.1148,2.1148,2.1148,2.1148,2.1053,2.0891,0.0,0.0,0.0,0.0,0.933,0.9301,0.9177,0.9167,0.9312,0.9675,1.0723,1.1933,1.3353,1.4705,1.5908,1.6895,1.7372,1.7198,1.613,1.5077,1.4391,1.4141,1.3467,1.4535,1.7641,1.8485,2.0117,2.2614,2.2968,2.3584,2.4459,2.4594,2.4753,2.4917,2.4977,2.501,2.4934,2.3803,2.2533,2.1111,1.9363,1.7745,1.6168,0.0,0.0,0.0,0.0,0.0,0.0,0.0,0.0,0.0,0.0,0.0,0.0,0.0,0.0,0.0,0.0,0.0,0.0,0.0,0.0,0.0,0.0,0.0,0.0,0.0,0.0,0.0,0.0,0.0,0.0,0.0,0.0,0.0,0.0,0.0,1.7265,1.8019,1.8963,1.938,1.8995,1.9391,1.9519,1.9099,2.0038,2.0696,2.0914,2.1314,2.19,2.2567,2.1975,2.1794,2.2046,2.2774,2.3078,2.3078,2.3078,2.3278,2.3703,2.3503,2.364,2.3879,2.3753,2.3703,2.3703,2.3703,2.3276,2.2573,2.2196,2.2046,2.2046,2.2046,2.2046,2.2046,0.0,0.0,0.0,0.9228,0.9189,0.9177,0.9102,0.9109,0.9411,1.0291,1.1925,1.334,1.4239,1.6461,1.786,1.7746,1.7611,1.7489,1.7453,1.595,1.4781,1.4111,1.501,1.6258,1.7806,2.0058,2.1736,2.2729,2.3454,2.4001,2.4407,2.4547,2.4676,2.4808,2.495,2.501,2.501,2.501,2.4504,2.3594,2.1945,2.064,1.9503,0.0,0.0,0.0,0.0,0.0,0.0,0.0,0.0,0.0,0.0,0.0,0.0,0.0,0.0,0.0,0.0,0.0,0.0,0.0,0.0,0.0,0.0,0.0,0.0,0.0,0.0,0.0,0.0,0.0,0.0,0.0,0.0,0.0,1.5784,1.7006,1.8235,1.9196,1.9964,2.0047,1.8971,1.9845,2.0289,1.9914,2.0441,2.1008,2.1536,2.1587,2.2094,2.3171,2.2502,2.2447,2.3103,2.3128,2.3128,2.3128,2.3128,2.3766,2.482,2.4443,2.4657,2.5335,2.4971,2.482,2.482,2.482,2.482,2.4707,2.3553,2.3128,2.3128,2.3103,2.309,2.3078,0.0,0.0,0.9376,0.9236,0.9189,0.9177,0.9102,0.9109,0.9443,1.0422,1.1978,1.3556,1.5017,1.6757,1.8028,1.8536,1.8001,1.786,1.8377,1.5933,1.4888,1.5846,1.7713,1.947,2.1079,2.1744,2.2527,2.3508,2.3746,2.4097,2.4547,2.458,2.4726,2.495,2.4977,2.501,2.501,2.501,2.4858,2.4542,2.3442,2.242,2.1365,0.0,0.0,0.0,0.0,0.0,0.0,0.0,0.0,0.0,0.0,0.0,0.0,0.0,0.0,0.0,0.0,0.0,0.0,0.0,0.0,0.0,0.0,0.0,0.0,0.0,0.0,0.0,0.0,0.0,0.0,0.0,0.0,1.6401,1.669,1.7751,1.895,2.0093,2.0707,2.1407,2.2381,2.2043,2.1904,2.2258,2.2441,2.2558,2.2713,2.3566,2.3983,2.3869,2.4308,2.4313,2.3929,2.4217,2.4356,2.4356,2.4356,2.4657,2.5209,2.5096,2.5021,2.4971,2.487,2.482,2.482,2.482,2.482,2.4795,2.4481,2.4356,2.4305,2.3904,2.3502,2.3128,0.0,0.9224,0.9376,0.9187,0.9187,0.9177,0.9102,0.9123,0.961,1.093,1.2232,1.3804,1.5791,1.6778,1.7613,1.8373,1.7913,1.7471,1.7223,1.5835,1.5931,1.7927,1.965,2.1137,2.2371,2.2772,2.3214,2.381,2.3831,2.4077,2.4512,2.4512,2.4692,2.501,2.501,2.501,2.501,2.501,2.501,2.4972,2.4447,2.3869,2.314,2.1756,2.08,2.0,1.8705,1.8163,1.7959,1.7279,0.0,0.0,0.0,0.0,0.0,0.0,0.0,0.0,0.0,0.0,0.0,0.0,0.0,0.0,0.0,0.0,0.0,0.0,0.0,0.0,0.0,0.0,0.0,0.0,1.693,1.7633,1.7849,1.8675,1.9659,2.078,2.1621,2.2366,2.3159,2.3109,2.3083,2.3165,2.3434,2.3607,2.3607,2.4266,2.4571,2.4413,2.4736,2.4981,2.5179,2.4963,2.4895,2.5046,2.4895,2.5046,2.546,2.546,2.5473,2.5511,2.5511,2.5511,2.5511,2.5511,2.5511,2.546,0.0,0.0,0.0,0.0,2.413,2.3891,0.0,0.8971,0.9421,0.9154,0.9167,0.9196,0.9123,0.9167,0.985,1.1582,1.2559,1.398,1.6312,1.6595,1.6928,1.7725,1.7488,1.6729,0.0,0.0,1.7684,2.0024,2.096,2.1767,2.2536,2.3318,2.3743,2.3828,2.3807,2.4018,2.4424,2.4407,2.4607,2.501,2.5105,2.5143,2.5143,2.5237,2.5294,2.5275,2.5181,2.4984,2.4663,2.3896,2.3377,2.2868,2.1399,2.0715,2.0299,1.8913,0.0,0.0,0.0,0.0,0.0,0.0,0.0,0.0,0.0,0.0,0.0,0.0,0.0,0.0,0.0,0.0,0.0,0.0,0.0,0.0,0.0,0.0,0.0,0.0,1.787,1.8956,1.917,1.9579,2.0273,2.129,2.2349,2.2852,2.2508,2.3336,2.3779,2.3431,2.383,2.4157,2.4268,0.0,0.0,0.0,0.0,2.4988,2.6488,2.5498,2.5172,2.5552,2.5159,2.5247,2.5686,2.5686,2.5975,2.6533,2.6533,2.6533,2.6533,2.6533,2.6533,2.6433,2.5385,2.4971,2.4921,2.4983,2.4921,2.4833,0.0,0.9383,0.943,0.9226,0.9282,0.932,0.9196,0.9292,0.9966,1.1667,1.2593,1.3781,1.5542,1.6255,1.6895,1.7657,1.7089,1.6808,0.0,0.0,1.977,2.0918,2.1744,2.2572,2.3356,2.3628,2.3831,2.3961,2.3858,2.4079,2.4642,2.4476,2.4607,2.5029,2.5693,2.5977,2.6015,2.6716,2.702,2.6963,2.6261,2.5551,2.4889,2.4407,2.4184,2.4024,2.3394,2.3082,2.2941,2.259,2.1476,2.0191,1.987,0.0,0.0,0.0,0.0,0.0,0.0,0.0,0.0,0.0,0.0,0.0,0.0,0.0,0.0,0.0,0.0,0.0,0.0,0.0,0.0,1.8746,1.9252,1.9726,2.0305,2.0444,2.0717,2.1342,2.2024,2.2799,2.3566,2.3436,2.3658,2.4549,2.4341,2.449,2.541,2.5495,2.5482,2.5527,2.5869,2.5948,2.58,2.6072,2.6176,2.6319,2.6176,0.0,2.6302,2.6302,2.642,2.6533,2.6533,2.6533,2.6533,2.6533,2.6533,2.6508,2.6226,2.585,2.5498,2.5963,2.5586,2.4883,0.9337,0.95,0.9465,0.933,0.9348,0.9385,0.9311,0.9348,0.9851,1.1127,1.1644,1.2513,1.4113,1.4268,1.4549,1.5332,1.5329,0.0,0.0,1.9305,2.0519,2.1682,2.259,2.3243,2.3634,2.3765,2.3834,2.3901,2.3921,2.4155,2.4543,2.4543,2.4929,2.5617,2.6034,2.6451,2.6887,2.7323,2.7494,2.7418,2.6546,2.5958,2.5532,2.4934,2.4575,2.4372,2.4173,2.3917,2.37,2.3674,2.3004,2.214,2.1732,2.0138,1.8202,0.0,0.0,0.0,0.0,0.0,0.0,0.0,0.0,0.0,0.0,0.0,0.0,0.0,0.0,1.6699,0.0,0.0,1.9526,2.0026,2.0332,2.0646,2.1024,2.1317,2.1592,2.1801,2.2398,2.2961,2.3475,2.3599,2.4119,2.5385,2.4832,2.5038,2.6194,2.5935,2.5726,2.5679,2.5908,2.6057,2.6025,2.6382,2.6533,2.6533,2.6533,2.6533,2.6533,2.6533,2.6533,2.6533,2.6533,2.6533,2.6533,2.6533,2.6533,2.6533,2.6533,2.6289,2.6063,2.642,2.6113,2.5674,0.9337,0.95,0.9474,0.9412,0.9394,0.9394,0.9394,0.9394,0.9708,1.0594,1.0694,1.1256,1.2713,1.2303,1.2281,1.3239,0.0,0.0,0.0,1.9713,2.0912,2.2464,2.3275,2.37,2.37,2.3771,2.3816,2.3858,2.4019,2.4211,2.4458,2.4626,2.5156,2.5977,2.6129,2.6679,2.7513,2.7684,2.7835,2.7892,2.6868,2.6422,2.6294,2.5296,2.4723,2.4389,2.4319,2.4039,2.3721,2.3721,2.3634,2.3414,2.2775,2.1939,2.0905,1.9374,1.8044,0.0,0.0,0.0,0.0,0.0,0.0,0.0,0.0,0.0,1.7038,1.7261,1.8188,1.8972,1.9016,2.0225,2.1182,2.1077,2.1242,2.1453,2.1759,2.209,2.2347,2.246,2.3013,2.3366,2.3327,2.3884,2.4651,2.5629,2.5322,2.5521,2.6459,2.6113,2.5833,2.5749,2.5762,2.5988,2.6521,2.6533,2.6533,2.6533,2.6533,2.6533,2.6533,2.6533,2.6533,2.6533,2.6533,2.6533,2.6533,2.6533,2.6533,2.6533,2.6533,2.6533,2.6533,2.6533,2.6533,2.6533,0.0,0.95,0.9474,0.9412,0.9394,0.9394,0.9394,0.9394,0.9708,1.0594,1.0694,1.1038,1.1934,1.1952,1.2502,1.3948,0.0,0.0,1.9682,2.0537,2.1697,2.3302,2.358,2.37,2.37,2.3771,2.3899,2.4078,2.4097,2.4284,2.4676,2.4692,2.4855,2.5181,2.5882,2.6679,2.7551,2.8256,2.8995,2.9507,2.7972,2.7251,2.6916,2.5321,2.4575,2.4355,2.4001,2.3834,2.3804,2.3804,2.3721,2.366,2.357,2.2995,2.2085,2.0811,0.0,1.7994,1.7423,1.7253,1.7311,1.7523,1.7219,1.7444,0.0,0.0,1.8936,1.9918,2.0556,2.0913,2.0968,2.1107,2.1569,2.263,2.2032,2.1773,2.2854,2.2592,2.2498,2.2927,2.3631,2.3995,2.4002,2.4567,2.4991,2.5102,2.549,2.5748,2.5808,2.6192,2.6425,2.6408,2.6433,2.6458,2.6533,2.6533,2.6533,2.6533,2.6533,2.6533,2.6533,2.6533,2.6533,2.6533,2.6533,2.6533,2.6533,2.6533,2.6533,2.6533,2.6533,2.6533,2.6533,2.6533,2.6533,2.6533,0.0,0.95,0.9491,0.9457,0.943,0.9394,0.9394,0.9394,0.9538,0.996,0.996,1.0095,1.0467,1.0494,1.1105,1.261,1.4222,0.0,1.9054,2.041,2.1822,2.3422,2.3634,2.37,2.37,2.3771,2.3837,2.3939,2.4155,2.4355,2.4526,2.4768,2.5168,2.5712,2.6053,2.6679,2.7513,2.7858,2.8199,2.8389,2.7085,2.6516,2.6303,2.4889,2.4302,2.4192,2.402,2.3896,0.0,0.0,2.3761,2.37,2.37,2.3138,2.2357,2.1719,2.091,0.0,2.0135,1.9741,1.9431,1.9771,1.9941,2.024,2.0931,2.0935,2.0835,2.1035,2.1462,2.1755,2.17,2.1957,2.237,0.0,2.2934,2.2924,2.3122,2.3244,2.316,2.2661,2.3793,2.4509,2.4118,2.435,2.4905,2.5941,2.5519,2.5699,2.6868,2.6764,2.6675,2.6794,2.6658,2.6589,2.6589,2.6521,2.6533,2.6533,2.6533,2.6533,2.6533,2.6533,2.6533,2.6533,2.6533,2.6533,2.6533,2.6533,2.6533,2.6533,2.6533,2.6533,2.6533,2.6533,2.6533,2.6533,0.0,0.95,0.95,0.9474,0.9439,0.9403,0.943,0.9412,0.943,0.9491,0.9448,0.9421,0.9465,0.9491,1.0005,1.1283,1.2877,1.5024,0.0,1.9534,2.1227,2.3088,2.3311,2.3466,2.37,2.3771,2.3795,2.3795,2.4155,2.4337,2.4407,2.4753,2.5272,2.5882,2.5882,2.6337,2.7134,2.7134,2.7285,2.7403,2.6327,2.5874,2.5733,2.4543,2.3949,2.3708,2.3708,2.3608,0.0,0.0,2.2935,2.3037,2.2761,2.2434,2.2117,2.2011,2.1875,2.173,2.139,2.1292,2.1279,2.1212,2.181,2.2277,2.18,2.1965,2.2233,2.1999,2.2287,2.2526,2.2381,2.2717,2.3141,2.3469,2.3766,2.387,2.3658,2.3742,2.3438,2.2417,2.3576,2.4307,2.3914,2.4315,2.5043,2.6172,2.554,2.5601,2.6935,2.6752,2.6726,2.6875,2.6726,2.6658,2.6658,2.6521,2.6533,2.6533,2.6533,2.6533,2.6533,2.6533,2.6533,2.6533,2.6533,2.6533,2.6533,2.6697,2.6603,2.6546,2.6697,2.6659,2.6533,2.6533,2.6533,2.6533,0.0,0.0,0.9483,0.9412,0.9403,0.9421,0.9491,0.9448,0.943,0.9491,0.9448,0.9394,0.9403,0.9457,0.9816,1.0573,1.1991,1.3867,1.6296,1.7861,1.9779,2.2232,2.2467,2.2908,2.3682,2.3771,2.3795,2.3795,2.4019,2.4211,2.4407,2.461,2.4836,2.5048,2.5048,2.5484,2.6242,2.6242,2.6735,2.7403,2.6327,2.5826,2.5596,2.4524,2.3523,2.2745,2.2745,0.0,0.0,2.0934,2.0934,2.1403,2.042,2.063,0.0,2.1527,2.1795,2.1664,2.0177,2.1275,2.2566,2.1455,2.1995,2.2865,2.3071,2.2894,2.2832,2.3316,2.3465,2.3436,2.329,2.326,2.3658,2.4776,2.4447,2.4287,2.4844,2.3947,2.2972,2.2367,2.2878,2.3245,0.0,2.4791,2.5674,2.5286,2.5495,2.5484,2.5115,2.6009,2.6533,2.6533,2.6533,2.6533,2.6533,2.6533,2.6533,2.6533,2.6533,2.6533,2.6533,2.6533,2.6533,2.6533,2.6533,2.6533,2.6571,2.703,2.6942,2.6584,2.7055,2.6929,2.6533,2.6533,2.6533,2.6533,0.0,0.0,0.0,0.9465,0.9465,0.9474,0.95,0.943,0.943,0.9491,0.9448,0.0,0.0,0.0,0.0,0.0,1.2043,1.3654,1.5369,1.7382,1.9167,2.0575,2.1726,2.2489,2.289,2.35,2.3795,2.3795,2.4136,2.4337,2.4407,2.4753,2.4936,2.501,2.501,2.5073,2.5213,2.5213,2.5302,2.5396,2.4909,2.4672,2.4579,2.4091,2.298,2.1628,0.0,0.0,2.1025,2.0481,2.039,2.0529,2.0686,0.0,0.0,2.0586,2.1298,2.1998,2.1928,2.2388,2.2978,2.3304,2.3665,2.3941,2.3915,2.384,2.3588,2.2942,2.2827,2.2636,2.2066,2.2346,2.2922,2.3727,2.4013,2.4184,2.4506,2.4121,2.3314,2.1901,2.2976,0.0,0.0,0.0,0.0,2.5146,2.5341,2.5588,2.5923,2.6655,2.7066,2.7134,2.6943,2.6807,2.6807,2.6602,2.6533,2.6533,2.6533,2.6533,2.6533,2.6533,2.6653,2.7005,2.7005,2.7218,2.757,2.7758,2.772,2.757,2.7758,2.772,2.7557,2.7557,2.7172,2.6675,0.0,0.0,0.0,0.0,0.0,0.0,0.0,0.0,0.0,0.0,0.0,0.0,0.0,0.0,0.0,0.0,0.0,1.2595,1.4001,0.0,1.7538,1.933,2.0091,2.0815,2.1648,2.1886,2.2343,2.298,2.3235,2.3675,2.4301,2.4559,2.4723,2.4783,2.4783,2.4704,2.4594,2.4594,2.451,2.4353,2.3786,2.3563,2.347,2.2727,2.1518,0.0,0.0,0.0,1.8464,1.8786,1.895,1.9159,1.9903,0.0,0.0,2.0406,2.1377,2.2471,2.2895,2.3335,2.3803,2.4362,2.4677,2.4783,2.4585,2.4225,2.3713,2.2975,2.2458,2.2066,2.1554,2.1821,2.2348,2.319,2.3832,2.4233,2.4254,2.419,2.3572,2.1983,2.2794,2.3293,0.0,0.0,0.0,2.4957,2.5156,2.5525,2.6026,2.6788,2.7214,2.7335,2.7079,2.7024,2.7024,2.6807,2.6671,2.6671,2.6533,2.6634,2.6905,2.6823,2.7055,2.7582,2.7582,2.777,2.8122,2.8323,2.8285,2.8122,2.8323,2.8039,2.7631,2.7631,2.7087,2.6356,0.0,0.0,0.0,0.0,0.0,0.0,0.0,0.0,0.0,0.0,0.0,0.0,0.0,0.0,0.0,0.0,0.0,0.0,0.0,0.0,0.0,1.8304,1.7717,1.8145,2.0011,1.9219,1.9632,2.135,2.1423,2.2281,2.3914,2.3969,2.4082,2.4295,2.4295,2.4259,2.4259,2.4259,2.4242,2.4133,2.2941,2.246,2.2277,2.0565,0.0,0.0,0.0,0.0,1.5111,1.6102,1.6887,1.7571,0.0,0.0,0.0,2.1069,2.201,2.3106,2.3098,2.4082,2.5007,2.4691,2.507,2.5427,2.4973,2.41,2.3343,2.3203,2.2398,2.1659,0.0,0.0,2.2013,2.3111,2.3866,2.4297,2.4214,2.4231,2.3795,0.0,0.0,0.0,0.0,0.0,0.0,2.4832,0.0,2.537,2.5586,2.6475,2.7024,2.7024,2.7024,2.7024,2.7024,2.7024,2.7037,2.7062,2.6709,2.6943,2.7627,2.7473,2.762,2.8147,2.8147,2.816,2.8235,2.8762,2.8587,2.8161,2.8687,2.8012,2.6848,2.6848,2.6241,2.557,0.0,0.0,0.0,0.0,0.0,0.0,0.0,0.0,0.0,0.0,0.0,0.0,0.0,0.0,0.0,0.0,0.0,0.0,0.0,0.0,0.0,0.0,0.0,1.7373,1.8038,1.8447,1.8892,1.9339,2.0192,2.0824,2.1278,2.2142,2.2553,2.2601,2.2601,2.2537,2.2385,2.2385,2.2227,2.1873,0.0,2.0562,2.0337,0.0,0.0,0.0,0.0,0.0,0.0,0.0,0.0,0.0,0.0,2.0144,2.1072,0.0,0.0,2.3248,2.4265,2.4812,2.5208,2.5667,2.5911,2.577,2.4798,2.4393,2.3724,2.2096,2.1535,2.0938,0.0,0.0,0.0,2.1476,2.2381,0.0,2.3906,2.3847,0.0,2.2777,0.0,2.336,2.356,2.4125,0.0,0.0,2.5654,2.5868,2.6361,2.7012,2.7403,2.7403,2.7268,2.7214,2.7214,2.7079,2.7229,2.7639,2.757,2.778,2.8172,2.8172,2.8331,2.8725,2.8725,2.8963,2.9377,2.9515,2.908,2.839,2.8524,2.7925,2.7001,2.7001,2.6438,2.5721,0.0,0.0,0.0,0.0,0.0,0.0,0.0,0.0,0.0,0.0,0.0,0.0,0.0,0.0,0.0,0.0,0.0,0.0,0.0,0.0,0.0,0.0,1.4297,1.5211,1.5797,1.6519,1.7098,0.0,0.0,0.0,1.9666,2.0395,2.0728,2.0728,2.0728,2.0664,2.0564,2.0564,0.0,0.0,0.0,0.0,0.0,0.0,0.0,0.0,0.0,0.0,0.0,0.0,0.0,2.0645,2.0747,2.1267,2.2003,2.2665,0.0,2.4131,2.4878,2.5342,2.569,2.6104,2.5971,2.5537,2.4898,2.3997,2.2908,2.1381,2.0547,1.9728,1.8497,1.9121,1.9975,0.0,0.0,0.0,2.3406,2.3821,2.3839,0.0,2.37,0.0,2.4214,2.4806,2.5439,0.0,2.619,2.6334,2.6661,2.7223,2.7523,2.7523,2.7403,2.7403,2.7403,2.7459,2.7674,2.7996,2.8087,2.8354,2.8743,2.8743,2.8986,2.9441,2.9517,2.9707,2.9934,2.9534,2.904,2.8462,2.8051,2.7313,2.6565,2.6565,2.5997,2.5231,0.0,0.0,0.0,0.0,0.0,0.0,0.0,0.0,0.0,0.0,0.0,0.0,0.0,0.0,0.0,0.0,0.0,0.0,0.0,0.0,0.0,0.0,1.218,1.2635,1.3675,1.4138,1.4847,0.0,0.0,0.0,0.0,0.0,0.0,0.0,0.0,0.0,0.0,0.0,0.0,0.0,0.0,0.0,0.0,0.0,0.0,0.0,0.0,0.0,0.0,0.0,1.9865,2.1363,2.1814,2.2475,2.3209,2.3897,2.4614,2.5195,2.5226,2.5723,2.622,2.622,2.5657,2.5043,2.4909,2.327,2.1559,2.0828,1.958,1.844,1.7715,1.8208,1.8915,1.9565,0.0,2.2621,2.2802,2.3821,2.4315,2.3734,2.4296,2.4793,2.4858,2.5527,2.6177,2.6739,2.6791,2.6791,2.6791,2.7262,2.7523,2.7523,2.7523,2.7523,2.7523,2.7893,2.8161,2.8239,2.8439,2.8855,2.9327,2.9327,2.9593,3.0075,3.0139,3.0062,2.9844,2.8949,2.8383,2.8051,2.7232,2.64,2.5663,2.5663,2.5179,2.454,0.0,0.0,0.0,0.0,0.0,0.0,0.0,0.0,0.0,0.0,0.9547,0.9119,0.0,0.0,0.0,0.0,0.0,0.0,0.0,0.0,0.0,0.0,1.1005,1.17,1.2557,1.2664,0.0,0.0,0.0,0.0,0.0,0.0,0.0,0.0,0.0,0.0,0.0,0.0,0.0,0.0,0.0,0.0,0.0,0.0,0.0,0.0,0.0,0.0,0.0,0.0,2.0472,2.1773,2.1807,2.2325,2.3071,2.3801,2.453,2.5243,2.5855,2.612,2.622,2.622,2.5657,2.4876,2.3978,2.2573,0.0,0.0,1.8901,1.8051,1.7073,1.7861,1.8661,1.8542,2.0076,2.1566,2.2392,2.3047,2.3607,0.0,2.4562,2.5145,2.5566,2.619,0.0,0.0,2.7379,2.7379,2.7379,2.7471,2.7523,2.7523,2.7523,2.7523,2.7523,2.8098,2.8495,2.886,2.9331,2.9664,2.9923,3.0139,3.0126,3.0075,2.9353,2.9028,2.8961,2.7891,2.6976,2.6235,2.6069,2.5505,2.47,2.47,2.4615,2.454,0.0,0.0,0.0,0.0,0.0,0.0,0.0,0.9697,0.9916,1.0578,1.0456,1.0088,0.953,0.9134,0.8903,0.0,0.0,0.0,0.0,0.0,0.0,0.0,0.0,1.0707,1.1082,0.0,0.0,0.0,0.0,0.0,0.0,0.0,0.0,0.0,0.0,0.0,0.0,0.0,0.0,0.0,0.0,0.0,0.0,0.0,0.0,0.0,0.0,0.0,0.0,0.0,1.9475,2.1437,2.2159,2.2609,2.3123,2.4249,2.4829,2.5259,2.6005,2.622,2.622,2.622,2.5359,2.4265,2.321,0.0,0.0,0.0,1.7823,1.7197,1.6383,1.6995,0.0,1.8067,1.9181,2.057,2.2056,2.2562,2.3106,2.4008,2.4883,2.5524,2.5798,2.6608,2.7236,2.751,2.7523,2.7523,2.7523,2.7523,2.7523,2.7523,2.7523,2.7523,2.7523,2.8399,2.893,2.9015,2.987,3.0188,3.0075,2.9819,2.9574,2.9353,2.8609,2.8199,2.8051,2.6987,2.6235,2.5735,2.5337,2.4861,2.454,2.454,2.454,2.454,0.0,0.0,0.0,0.0,0.0,0.0,0.0,1.0173,1.0454,1.1245,1.1298,1.1001,1.0301,0.9583,0.9065,0.0,0.0,0.0,0.0,0.0,0.0,0.0,0.0,0.0,0.0,0.0,0.0,0.0,0.0,0.0,0.0,0.0,0.0,0.0,0.0,0.0,0.0,0.0,0.0,0.0,0.0,0.0,0.0,0.0,0.0,0.0,0.0,0.0,0.0,0.0,1.8119,2.014,2.1711,2.251,2.3123,2.4332,2.4862,2.5243,2.5822,2.6087,2.617,2.6021,2.4909,2.3589,2.2427,2.0751,0.0,1.7483,1.6834,1.6353,1.5903,1.6293,1.6939,0.0,1.85,1.9651,2.1551,2.2062,2.2609,2.3785,2.5053,0.0,2.5824,2.6857,0.0,2.7469,2.7403,2.7403,2.7523,2.7523,2.7523,2.7523,2.7523,2.7523,2.7523,2.8569,2.9002,2.8944,2.9951,3.019,2.9754,2.9263,2.8858,2.8462,2.7775,2.7371,2.7139,2.6163,2.5663,2.5421,2.4775,2.454,2.454,2.454,2.454,2.454,0.0,0.0,0.0,0.0,0.0,0.0,0.0,1.0144,1.0538,1.1992,1.1567,1.1093,1.1011,1.0342,0.9626,0.0,0.0,0.0,0.0,0.0,0.0,0.0,0.0,0.0,0.0,0.0,0.0,0.0,0.0,0.0,0.0,0.0,0.0,0.0,0.0,0.0,0.0,0.0,0.0,0.0,0.0,0.0,0.0,0.0,0.0,0.0,0.0,0.0,0.0,0.0,0.0,1.7242,1.9351,2.1342,2.2955,2.315,0.0,0.0,2.5193,2.5706,2.6054,2.5375,2.4377,2.3108,2.1439,0.0,1.813,1.6984,1.6293,1.5873,1.5814,1.6293,1.6843,1.7295,0.0,1.8961,2.0598,2.1275,2.2021,2.3158,0.0,0.0,2.5824,2.6857,2.7469,2.7335,2.7146,2.7214,2.7469,2.7523,2.7523,2.7523,2.7523,2.7523,2.7523,2.815,2.8503,2.8664,2.9305,2.9252,2.8621,2.8791,2.8383,2.7557,2.6648,2.6235,2.6163,2.5105,2.4625,2.4615,2.454,2.454,2.454,2.454,2.454,2.454,0.0,0.0,0.0,0.0,0.0,0.0,1.0184,1.0127,1.0541,1.2094,1.2026,1.1823,1.1823,1.1135,1.0165,0.8947,0.0,0.0,0.0,0.0,0.0,0.0,0.0,0.0,0.0,0.0,0.0,0.0,0.0,0.0,0.0,0.0,0.0,0.0,0.0,0.0,0.0,0.0,0.0,0.0,0.0,0.0,0.0,0.0,0.0,0.0,0.0,0.0,0.0,0.0,0.0,0.0,1.7026,1.8634,0.0,0.0,2.3036,2.3967,2.4862,2.5325,2.544,2.4917,2.4139,2.286,2.0525,1.9107,1.7884,1.6458,1.5978,1.5799,1.5799,1.5994,1.6379,1.7076,1.7183,1.7887,1.9798,1.9991,2.0623,2.2492,2.3942,2.5066,0.0,0.0,2.7335,2.7146,2.7146,2.7214,2.7214,2.7335,2.7403,2.7523,2.7523,2.7242,2.6688,2.78,2.7898,2.7125,2.826,2.8468,2.7825,2.7393,2.6964,2.64,2.5505,2.5105,2.5105,2.47,2.454,2.454,2.454,2.454,2.4454,2.4024,2.3937,2.3841,0.0,0.0,0.0,0.0,0.0,0.9482,1.0195,1.0151,1.0513,1.1773,1.1942,1.1942,1.1942,1.1251,1.0346,0.9253,0.898,0.0,0.0,0.0,0.0,0.0,0.0,0.0,0.0,0.0,0.0,0.0,0.0,0.0,0.0,0.0,0.0,0.0,0.0,0.0,0.0,0.0,0.0,0.0,0.0,0.0,0.0,0.0,0.0,0.0,0.0,0.0,0.0,0.0,0.0,0.0,0.0,0.0,0.0,0.0,2.189,2.2872,2.41,2.4546,2.4508,2.4072,2.3409,2.2202,1.9654,1.8577,1.7669,1.6127,1.5799,1.577,1.5668,1.5639,1.5845,1.6427,1.6425,1.6972,1.8661,1.8927,1.9577,2.1394,0.0,2.4047,2.521,2.6479,2.7066,2.6863,2.6782,2.6714,2.6739,2.6564,2.662,2.696,2.6812,2.6377,2.5685,2.6742,2.6784,2.5838,2.6959,2.7226,2.672,2.6091,2.5677,2.5337,2.4775,2.454,2.454,2.454,2.454,2.4454,2.4282,2.4196,2.411,2.3396,2.3135,2.3135,0.0,0.0,0.0,0.0,0.0,0.0,1.0206,1.0239,1.0428,1.1025,1.1113,1.1113,1.1113,1.0453,1.0005,0.9996,0.9263,0.0,0.0,0.0,0.0,0.0,0.0,0.0,0.0,0.0,1.0895,1.1096,1.2456,1.3102,0.0,0.0,0.0,0.0,0.0,0.0,0.0,0.0,0.0,0.0,0.0,0.0,0.0,0.0,0.0,0.0,0.0,0.0,0.0,0.0,0.0,0.0,0.0,0.0,0.0,0.0,2.0827,2.2056,2.2756,2.3211,2.3336,2.2622,2.1874,2.0786,1.8779,1.7987,1.7356,1.6068,1.5799,1.5712,1.5359,1.5329,1.5274,1.5148,1.5622,1.6297,1.7096,1.8192,1.9133,0.0,0.0,2.2844,2.4021,2.5884,2.6875,2.6427,2.5721,2.5594,2.6164,2.5063,2.4838,2.5824,2.5098,2.4732,2.4732,2.4743,2.487,2.525,2.5261,2.5188,2.5201,2.5212,2.4909,2.454,2.454,2.454,2.454,2.454,2.454,2.4454,2.3764,2.3503,2.3406,2.2668,2.2394,2.2394,0.0,0.0,0.0,0.0,0.0,0.0,0.0,0.9481,0.9664,1.028,1.0352,1.0538,1.1045,1.0453,1.0001,1.0005,0.9301,0.0,0.0,0.0,0.0,0.0,0.0,0.0,0.0,0.0,1.0836,1.0895,1.2693,1.3339,1.2885,1.3355,0.0,0.0,0.0,0.0,0.0,0.0,0.0,0.0,0.0,0.0,0.0,0.0,0.0,0.0,0.0,0.0,0.0,0.0,0.0,0.0,0.0,0.0,0.0,0.0,0.0,0.0,2.1055,2.1626,2.1795,2.0622,2.0155,1.952,1.7621,1.7119,1.6786,1.5978,1.5799,1.5712,1.5359,1.5299,1.5387,1.5673,1.618,1.6688,1.7122,0.0,0.0,2.0358,2.2962,2.4987,0.0,0.0,2.6358,2.5358,2.5146,2.5004,2.4767,2.3925,2.4204,2.5755,2.5098,2.4374,2.3649,2.4306,2.4186,2.3284,2.3941,2.4266,2.4282,2.4288,2.4357,2.454,2.454,2.454,2.4454,2.4024,2.3851,2.3764,2.3038,2.2765,2.2677,2.1971,2.1704,2.1615,0.0,0.0,0.0,0.0,0.0,0.0,0.0,0.9154,0.9211,0.9535,0.9591,0.9861,1.0605,1.003,0.9709,0.9967,0.932,0.0,0.0,0.0,0.0,0.0,0.0,0.0,0.0,0.9744,1.0522,1.1107,1.2571,1.3219,1.3063,1.3492,1.3171,1.2175,0.0,0.0,0.0,0.0,0.0,0.0,0.0,0.0,0.0,0.0,0.0,0.0,0.0,0.0,0.0,0.0,0.0,0.0,0.0,0.0,0.0,0.0,1.6082,1.8077,0.0,1.983,2.0019,1.9185,1.8854,1.8402,1.7013,1.6517,1.6263,1.5888,1.5503,1.5198,1.5136,1.4996,1.497,1.5138,1.5821,1.6388,0.0,0.0,0.0,2.0615,0.0,0.0,0.0,2.5971,2.5791,2.4707,2.4504,2.4299,2.3925,2.3054,2.3191,2.4696,2.4036,2.3305,2.266,2.3263,2.3059,2.2187,2.2755,2.3134,2.3335,2.3564,2.3867,2.4302,2.4467,2.4368,0.0,2.3677,2.3319,2.3038,2.2325,2.205,2.1961,2.1266,2.1006,2.0916,0.0,0.0,0.0,0.0,0.0,0.0,0.0,0.9154,0.905,0.8913,0.8891,0.9162,0.9849,0.9315,0.9179,0.9866,0.0,0.0,0.0,0.0,0.0,0.0,0.0,0.0,0.0,0.9133,1.0065,1.1506,1.2253,1.29,1.3473,1.3583,1.2848,1.1418,1.072,0.0,0.0,0.0,0.0,0.0,0.0,0.0,0.0,0.0,0.0,0.0,0.0,0.0,0.0,0.0,0.0,0.0,0.0,0.0,0.0,0.0,0.0,0.0,0.0,1.7804,1.8084,1.8007,1.7698,1.7249,1.6606,1.6039,0.0,1.5651,1.4905,1.4371,1.4738,1.4552,1.4243,1.4012,1.4859,1.5608,0.0,1.7262,0.0,0.0,2.1993,0.0,2.403,2.4998,2.517,2.4348,2.379,2.3519,2.3446,2.2402,2.2101,2.2927,2.2176,2.1807,2.1807,2.1807,2.1807,2.1807,2.1807,2.2056,2.2511,2.2897,2.3361,2.3815,2.4173,2.4013,2.3416,2.3416,2.295,2.2217,2.1615,2.1356,2.1266,2.0555,2.0292,2.0292,0.0,0.0,0.0,0.0,0.0,0.0,0.0,0.0,0.0,0.0,0.8891,0.8959,0.9145,0.8993,0.8959,0.0,0.0,0.0,0.0,0.0,0.0,0.0,0.0,0.0,0.0,0.9496,1.0188,1.0603,1.2712,1.3575,1.3295,1.4309,1.4077,1.2725,1.205,1.0875,0.0,0.0,0.0,0.0,0.0,0.0,0.0,0.0,0.0,0.0,1.1,1.1358,0.0,0.0,0.0,0.0,0.0,0.0,0.0,0.0,1.291,1.3521,1.3975,0.0,1.5802,1.5046,1.4791,1.4639,0.0,1.407,1.403,1.4285,0.0,1.4206,1.49,1.4618,1.4628,1.564,1.6009,1.6358,1.6898,0.0,0.0,2.3082,2.3609,2.4067,2.4737,2.4708,2.4288,2.3423,2.2916,2.2553,2.2252,2.1959,2.1883,2.2111,2.1883,2.1807,2.1807,2.1807,2.1807,2.1807,2.1807,2.2056,2.2511,2.2393,2.2589,2.3038,2.293,2.2755,2.2589,2.2148,2.1802,2.1526,2.0826,2.0555,2.0555,2.0382,2.0292,2.0292,0.0,0.0,0.0,0.0,0.0,0.0,0.0,0.0,0.0,0.0,0.0,0.8891,0.8891,0.8891,0.0,0.0,0.0,0.0,0.0,0.0,0.0,0.0,0.0,0.8476,0.8409,0.9219,1.0163,1.1181,1.2829,1.3804,1.4129,1.456,1.4166,1.3121,1.2138,1.0724,0.0,0.0,0.0,0.0,0.0,0.0,0.0,0.0,0.0,0.0,1.032,1.0807,0.0,1.1359,1.1978,1.2671,0.0,0.0,0.0,0.0,1.2249,1.25,1.2478,1.3974,1.5415,1.4851,1.4822,1.4904,1.4746,0.0,0.0,0.0,0.0,0.0,0.0,0.0,0.0,0.0,1.6162,0.0,0.0,0.0,2.1052,2.3228,2.3502,2.37,0.0,2.4316,2.3936,2.3075,2.2777,2.2402,2.1807,2.1807,2.1807,2.1807,2.1807,2.1807,2.1807,2.1807,2.1807,2.1807,2.1807,2.1778,2.1802,2.1969,2.2056,2.2058,2.2312,2.2217,2.1872,2.1526,2.1177,2.0826,2.0464,2.0292,2.0292,2.0102,2.0011,1.992,0.0,0.0,0.0,0.0,0.0,0.0,0.0,0.0,0.0,0.0,0.0,0.0,0.0,0.0,0.0,0.0,0.0,0.0,0.0,0.0,0.0,0.0,0.0,0.8369,0.8411,0.8896,1.0088,1.202,1.2831,1.3857,1.5027,1.4642,1.3988,1.3038,1.1678,1.0351,0.0,0.0,0.0,0.0,0.0,0.0,0.0,0.0,0.0,0.0,0.0,0.0,0.0,1.0816,1.1676,1.2634,1.2005,0.0,0.0,0.0,0.0,0.0,1.2125,1.3899,1.5622,1.5339,1.5595,1.5874,1.5742,0.0,0.0,0.0,0.0,0.0,0.0,1.4893,0.0,0.0,0.0,0.0,1.9245,1.9875,2.0709,2.2262,2.244,0.0,2.3174,2.3606,2.3588,2.2916,2.2852,2.2553,2.1807,2.1731,2.1655,2.1655,2.1568,2.1492,2.1492,2.1721,2.1807,2.1807,2.1731,2.1415,2.0896,2.1467,2.1447,2.1053,2.1717,2.1728,2.1266,2.1177,2.0736,2.0201,2.011,2.011,2.0019,1.9646,1.9463,1.9371,0.0,0.0,0.0,0.0,0.0,0.0,0.0,0.0,0.0,0.0,0.0,0.0,0.0,0.0,0.0,0.0,0.0,0.0,0.0,0.0,0.0,0.0,0.828,0.8411,0.8972,0.9485,1.0255,1.1254,1.2947,1.3909,1.4212,1.5247,1.476,1.2955,1.1617,1.0297,0.908,0.0,0.0,0.0,0.0,0.0,0.0,0.0,0.0,0.0,0.0,0.0,0.0,1.0443,1.0952,1.1232,1.1655,0.0,0.0,0.0,0.0,0.0,1.2823,1.4081,1.4848,1.3226,1.3472,1.3903,1.3157,0.0,0.0,0.0,0.0,0.0,0.0,1.5194,1.5776,0.0,0.0,1.8454,0.0,0.0,1.9946,2.1063,0.0,2.1526,2.2408,2.2273,2.2187,2.2446,2.2176,2.1949,2.1807,2.1339,2.1021,2.1021,2.0459,2.0216,2.0216,2.1252,2.1807,2.1807,2.1262,2.1021,2.0876,2.0173,2.0007,2.0286,2.0149,2.026,2.0464,2.0002,1.982,1.9646,1.9188,1.9012,1.9012,1.892,1.892,1.8827,0.0,0.0,0.0,0.0,0.0,0.0,0.0,0.0,0.0,0.0,0.0,0.0,0.0,0.0,0.0,0.0,0.0,0.0,0.0,0.0,0.0,0.8959,0.8692,0.8697,0.9049,0.9965,1.0991,1.2125,1.3673,1.4656,1.5084,1.4977,1.405,1.2386,1.105,0.9944,0.9002,0.8332,0.0,0.0,0.0,0.0,0.0,0.0,0.0,0.0,0.0,0.0,0.0,0.0,1.0473,1.1341,1.1281,0.0,0.0,0.0,0.0,0.0,1.2149,1.3189,1.3915,1.3066,1.418,1.5387,1.4999,0.0,0.0,0.0,0.0,0.0,0.0,0.0,1.6145,1.7199,0.0,1.8669,1.9104,1.9471,2.0039,0.0,0.0,2.1092,2.1531,2.1832,2.1994,2.1998,2.2114,2.2035,2.1807,2.1262,2.0867,2.0867,2.0226,1.9904,1.9904,2.045,2.0769,2.0769,2.0459,2.0148,1.9863,1.9624,1.9247,1.8955,1.9208,1.9296,1.9192,1.9198,1.9188,1.9096,1.892,1.8827,1.8735,1.855,1.8265,1.7986,0.0,0.0,0.0,0.0,0.0,0.0,0.0,0.0,0.0,0.0,0.0,0.0,0.0,0.0,0.0,0.0,0.0,0.0,0.0,0.0,0.8642,0.9127,0.8988,0.9148,0.9699,1.0625,1.1785,1.3197,1.4317,1.5161,1.5697,1.4667,1.3303,1.1661,1.0648,0.965,0.8712,0.8197,0.7985,0.0,0.0,0.0,0.0,0.0,0.0,0.0,0.0,0.0,0.0,0.0,0.0,0.0,0.0,0.0,0.0,1.202,1.1659,1.1458,1.1716,1.2524,1.3341,1.3556,0.0,1.6491,1.6639,0.0,0.0,0.0,0.0,0.0,0.0,1.6194,0.0,1.7267,1.7957,1.8646,1.9324,1.9599,1.9935,2.0429,2.0501,2.0528,2.0647,2.1307,2.1629,2.1375,2.1639,2.1668,2.1404,2.0708,2.0372,2.0469,1.9835,1.9432,1.9432,1.9432,1.959,1.9904,1.9756,1.945,1.9011,1.8966,1.8568,1.7936,1.8428,1.8507,1.8319,1.8506,1.8572,1.8643,1.8542,1.845,1.8458,1.8079,1.7613,1.7326,0.0,0.0,0.0,0.0,0.0,0.0,0.0,0.0,0.0,0.0,0.0,0.0,0.0,0.0,0.0,0.0,0.0,0.0,0.0,0.0,0.8457,0.8385,0.8713,0.9796,1.1733,1.1749,1.2411,1.385,1.4479,1.4839,1.4884,1.4794,1.337,1.0892,1.0787,0.9713,0.7987,0.7926,0.7941,0.0,0.0,0.0,0.0,0.0,0.0,0.0,0.0,0.0,0.0,0.0,0.0,0.0,0.0,0.0,1.1865,1.182,1.1615,1.1592,1.2462,1.2993,1.3498,1.4309,1.4633,0.0,1.5459,1.5563,0.0,1.6219,0.0,0.0,0.0,1.6938,1.7331,1.7596,1.8302,1.8731,1.8554,0.0,1.9166,1.9187,1.9229,1.9427,1.9854,1.9958,2.0097,2.0441,2.0072,1.9982,2.0307,1.9183,1.8752,1.9143,1.8514,1.8112,1.8112,1.8112,1.8736,1.9894,1.9301,1.9073,1.9002,1.7985,1.7689,1.7912,1.7548,1.7778,1.8303,1.7877,1.7888,1.8087,1.7606,1.7426,1.7419,1.7326,1.7326,1.7326,0.0,0.0,0.0,0.0,0.0,0.0,0.0,0.0,0.0,0.0,0.0,0.0,0.0,0.0,0.0,0.0,0.0,0.0,0.0,0.0,0.8555,0.8799,0.8865,0.9641,1.1223,1.2021,1.3086,1.445,1.4704,1.4797,1.4767,1.3955,1.2777,1.1416,1.0977,1.0189,0.913,0.8694,0.853,0.853,0.0,0.0,0.0,0.0,0.0,0.0,0.0,0.0,0.0,0.0,0.9201,0.998,0.0,1.1161,1.1783,1.1601,1.1392,1.124,1.1449,1.2262,1.3226,1.3926,1.4624,0.0,0.0,1.6846,1.7277,1.7839,1.7971,0.0,0.0,0.0,1.7084,1.7886,1.8087,1.827,1.8768,1.8961,1.9075,1.9075,1.9075,1.9137,1.938,1.9308,1.9333,1.9425,1.9256,1.918,1.9345,1.8778,1.8374,1.8301,1.7831,1.7473,1.7221,1.7473,1.7708,1.7925,1.7942,1.804,1.7959,1.731,1.6892,1.6771,1.683,1.6814,1.6805,1.6825,1.7011,1.7331,1.7345,1.7326,1.7232,1.6365,1.6075,1.5981,0.0,0.0,0.0,0.0,0.0,0.0,0.0,0.0,0.0,0.0,0.0,0.0,0.0,0.0,0.0,0.0,0.0,0.0,0.8612,0.8463,0.8517,0.8772,0.8864,0.9398,1.0484,1.1805,1.3056,1.418,1.4378,1.4378,1.4139,1.3235,1.2456,1.1775,1.1096,1.0535,1.0017,0.9163,0.8792,0.8716,0.8064,0.7841,0.0,0.0,0.0,0.0,0.0,0.0,0.0,0.0,0.8829,0.9668,0.0,0.0,1.1386,1.1387,1.1338,1.1211,1.1039,1.1935,1.303,0.0,0.0,0.0,1.6993,1.757,1.8061,1.8691,1.85,0.0,0.0,0.0,0.0,0.0,1.804,1.8206,1.8961,1.9075,1.9075,1.9075,1.8931,1.8875,1.8875,1.8596,1.8428,1.8428,1.8266,1.8187,1.8255,1.7857,1.7517,1.7519,1.7158,1.6944,1.673,1.6984,1.6984,1.673,1.6902,1.7066,1.7147,1.6738,1.6327,1.6102,1.6171,1.6074,1.5935,1.614,1.6322,1.6461,1.6679,1.6514,1.6147,1.5373,1.4924,1.4638,0.0,0.0,0.0,0.0,0.0,0.0,0.0,0.0,0.0,0.0,0.0,0.0,0.0,0.0,0.0,0.0,0.0,0.0,0.8612,0.8463,0.8309,0.8108,0.8606,0.9205,0.986,1.1117,1.2104,1.2801,1.3451,1.3436,1.2786,1.2786,1.2418,1.1775,1.1096,1.0692,1.043,0.9162,0.8576,0.8467,0.7865,0.7739,0.0,0.0,0.0,0.0,0.0,0.0,0.0,0.0,0.889,0.913,0.0,0.0,0.0,1.1227,1.1493,1.16,1.16,1.2241,1.3043,0.0,0.0,0.0,1.7093,1.7428,1.7652,1.8536,0.0,1.8041,1.7731,1.77,0.0,1.8144,1.8291,1.8537,1.9003,1.9065,1.9075,1.9065,1.8596,1.8269,1.8269,1.7725,1.7373,1.7373,1.689,1.6783,1.7198,1.6272,1.6088,1.6797,1.6436,1.6373,1.6648,1.673,1.6648,1.6656,1.6252,1.6335,1.6656,1.6252,1.6087,1.6087,1.559,1.5613,1.5913,1.5913,1.5654,1.5418,1.5616,1.4989,1.3906,1.4165,1.3968,1.3488,0.0,0.0,0.0,0.0,0.0,0.0,0.0,0.0,0.0,0.0,0.0,0.0,0.0,0.0,0.0,0.0,0.0,0.0,0.86,0.8571,0.8419,0.8108,0.8252,0.8379,0.8499,0.9323,1.0762,1.2801,1.2523,1.2284,1.2089,1.161,1.1451,1.1512,1.151,1.1378,1.1075,0.9979,0.9739,1.0017,0.8956,0.8557,0.0,0.0,0.0,0.0,0.0,0.0,0.0,0.0,0.0,0.0,0.0,0.0,1.1036,1.0945,1.125,1.1574,1.1362,1.2341,0.0,1.4141,0.0,0.0,0.0,1.8042,0.0,0.0,1.8661,1.8305,1.7909,0.0,0.0,1.8584,1.848,1.8407,1.8536,1.8539,1.8405,1.792,1.7784,1.7657,1.7657,1.7166,1.6811,1.6811,1.6342,1.5972,1.5791,1.5771,1.5634,1.5224,1.532,1.5464,1.5404,1.5728,1.5851,1.5756,1.6004,1.617,1.6252,1.5839,1.5597,1.559,1.5431,1.5489,1.5507,1.529,1.4636,1.385,1.4115,1.3884,1.3321,1.2536,1.2193,1.2042,0.0,0.0,0.0,0.0,0.0,0.0,0.0,0.0,0.0,0.0,0.0,0.0,0.0,0.0,0.0,0.0,0.0,0.0,0.0,0.8596,0.8444,0.8108,0.8094,0.8162,0.8304,0.8694,0.9671,1.1242,1.1102,1.1176,1.1401,1.091,1.1144,1.1961,1.1756,1.1557,1.135,1.0519,1.0224,1.0215,0.9472,0.9063,0.8905,0.0,0.0,0.0,0.0,0.0,0.0,0.0,0.0,0.0,0.0,0.0,0.0,1.0535,1.0999,1.1522,1.1965,1.2974,0.0,1.4663,1.5649,1.6694,1.746,0.0,0.0,0.0,0.0,1.8093,1.7802,1.8102,0.0,1.8649,1.8462,1.836,1.8297,1.8066,1.7784,1.7451,1.7235,1.7028,1.6881,1.6394,1.5974,1.5833,1.5497,1.5213,1.4991,1.5057,1.4941,1.4546,1.4615,1.4654,1.475,1.5115,1.5279,1.524,1.5613,1.5839,1.5839,1.5506,1.5431,1.5347,1.4908,1.4741,1.4671,1.3985,1.3182,1.2336,1.2589,1.232,1.1641,1.0988,1.0782,1.0572,0.0,0.0,0.0,0.0,0.0,0.0,0.0,0.0,0.0,0.0,0.0,0.0,0.0,0.0,0.0,0.0,0.0,0.0,0.0,0.0,0.847,0.8121,0.8094,0.8316,0.88,0.8815,0.8815,0.8815,0.9488,1.0129,1.0708,1.0518,1.1212,1.2634,1.1776,1.1357,1.127,1.076,1.0142,0.9527,0.9534,0.9277,0.8905,0.8905,0.0,0.0,0.0,0.0,0.0,0.0,0.0,0.0,0.8408,0.8419,0.8558,1.0066,1.0794,1.1441,1.2993,0.0,0.0,1.5122,1.5617,0.0,1.7252,1.7384,1.7279,1.7245,0.0,1.7482,1.7525,1.8224,1.8701,1.8433,1.8334,1.8269,1.8134,1.7647,1.7314,1.7245,1.6821,1.6324,1.5974,1.548,1.4991,1.4641,1.4569,1.4569,1.4569,1.4274,1.4194,1.4418,1.4081,1.4099,1.4421,1.4714,1.4882,1.4867,1.524,1.5318,1.5347,1.5347,1.5347,1.5166,1.4048,1.3535,1.3366,1.2334,1.1483,1.0829,1.103,1.0409,0.9466,0.9745,0.9661,0.9356,0.0,0.0,0.0,0.0,0.0,0.0,0.0,0.0,0.0,0.0,0.0,0.0,0.0,0.0,0.0,0.0,0.0,0.0,0.0,0.0,0.8608,0.8282,0.8054,0.7988,0.8109,0.8109,0.8109,0.8109,0.88,0.9458,1.0099,0.984,1.0415,1.168,1.1481,1.114,1.0683,1.0234,0.9969,0.9772,0.9257,0.8992,0.8905,0.8905,0.8484,0.0,0.0,0.0,0.0,0.0,0.0,0.0,0.8158,0.8494,0.8894,0.9546,1.0377,1.135,1.2556,1.3248,0.0,0.0,1.5486,1.5924,1.6524,1.6631,1.6751,1.7224,1.7226,1.721,1.7584,1.8082,1.8431,1.8338,1.8345,1.7998,1.7088,1.6881,1.6612,1.6211,1.5771,1.5488,1.5409,1.4991,1.4705,1.4641,1.4569,1.4497,1.4201,1.4129,1.395,1.3733,1.3675,1.3755,1.4084,1.4157,1.4443,1.486,1.4932,1.4846,1.465,1.5173,1.4908,1.3964,1.2845,1.2083,1.158,1.1322,1.0636,0.9694,0.9735,0.9407,0.8915,0.9047,0.9173,0.9356,0.0,0.0,0.0,0.0,0.0,0.0,0.0,0.0,0.0,0.0,0.0,0.0,0.0,0.0,0.0,0.0,0.0,0.0,0.0,0.8764,0.862,0.8306,0.804,0.7899,0.7899,0.7899,0.7899,0.7899,0.8244,0.8853,0.9706,1.0034,1.0785,1.1858,1.1393,1.0965,1.0608,1.0103,0.9728,0.9413,0.9383,0.9173,0.8905,0.8905,0.8422,0.7768,0.787,0.0,0.0,0.0,0.0,0.0,0.0,0.0,0.8228,0.9144,1.0003,1.1009,0.0,0.0,0.0,1.5118,0.0,1.5542,1.6223,1.6384,1.6488,1.6853,1.6948,1.6999,1.7053,1.7559,1.7936,1.7646,1.7513,1.7295,1.6673,1.6403,1.6061,1.5576,1.5355,1.5054,1.4697,1.4489,1.4281,1.4065,1.4065,1.3992,1.3848,1.3775,1.371,1.3499,1.3492,1.3425,1.3362,1.3278,1.3355,1.3608,1.3467,1.3335,1.3275,1.388,1.362,1.2845,1.1643,1.0961,1.0626,1.012,0.9519,0.9003,0.9003,0.8882,0.8698,0.8698,0.8869,0.9112,0.0,0.0,0.0,0.0,0.0,0.0,0.0,0.0,0.0,0.0,0.0,0.0,0.0,0.0,0.0,0.0,0.0,0.0,0.0,0.8689,0.8542,0.8306,0.804,0.7899,0.7899,0.787,0.787,0.7899,0.796,0.8543,0.0,0.0,1.1315,1.2352,1.146,1.0905,1.0603,1.0114,0.9443,0.8785,0.9338,0.9201,0.8677,0.8677,0.8225,0.762,0.7753,0.765,0.7453,0.753,0.0,0.0,0.0,0.0,0.7317,0.8649,0.9515,1.0454,0.0,0.0,1.4234,1.5241,1.5236,0.0,1.6063,1.6322,1.6384,1.6384,1.6674,1.6765,1.6357,1.6901,1.7243,1.6798,1.6637,1.6453,1.6385,1.5991,1.5576,1.5133,1.5062,1.4776,1.4129,1.4057,1.3848,1.3499,1.3492,1.3492,1.3492,1.3492,1.3419,1.3346,1.3346,1.3046,1.2452,1.23,1.2215,1.2056,1.1646,1.1505,1.1668,1.1923,1.1946,1.1643,1.0529,1.0014,0.9932,0.8995,0.8568,0.8568,0.8568,0.8568,0.8568,0.8568,0.8674,0.8844,0.0,0.0,0.0,0.0,0.0,0.0,0.0,0.0,0.0,0.0,0.0,0.9028,0.8913,0.8891,0.0,0.0,0.0,0.0,0.8806,0.0,0.0,0.8293,0.804,0.7899,0.7899,0.7724,0.7724,0.7899,0.8199,0.0,0.0,0.0,0.0,1.2298,1.1939,1.1119,1.0009,0.9935,0.9188,0.8034,0.8139,0.802,0.7766,0.7766,0.7707,0.7589,0.7499,0.7514,0.7545,0.7453,0.7298,0.0,0.0,0.0,0.7056,0.7718,0.8632,0.9583,0.0,0.0,1.3184,0.0,1.4748,1.5132,0.0,0.0,1.6384,0.0,1.6425,1.6465,1.6307,1.6406,1.6422,1.6175,1.6071,1.5943,1.5438,1.5346,1.5133,1.4713,1.4418,1.4201,1.4129,1.3775,1.3564,1.3492,1.3492,1.3492,1.3492,1.3492,1.3273,1.2746,1.2746,1.2452,1.1855,1.144,1.1419,1.1646,1.0908,1.0439,1.0253,0.9752,0.9847,1.0443,0.9336,0.8823,0.8823,0.8652,0.8568,0.8568,0.8568,0.8568,0.8568,0.8568,0.8674,0.8844,0.0,0.0,0.0,0.0,0.0,0.0,0.0,0.0,0.0,0.0,0.0,0.8974,0.8902,0.8891,0.0,0.0,0.0,0.0,0.8736,0.8463,0.0,0.0,0.804,0.7899,0.7899,0.7709,0.765,0.7724,0.0,0.0,0.0,1.0348,1.1349,0.0,0.0,0.0,0.0,0.0,0.0,0.7899,0.7899,0.818,0.8534,0.7864,0.7893,0.8243,0.7629,0.7314,0.7203,0.7219,0.7323,0.738,0.7083,0.0,0.0,0.0,0.8284,0.0,1.0779,1.1987,1.2986,0.0,1.4459,1.48,1.5525,0.0,1.6063,1.6322,1.6384,1.6206,1.5615,1.5718,1.5628,1.5047,1.5099,1.5178,1.4927,1.4837,1.4701,1.4322,1.4201,1.3985,1.3775,1.3564,1.3492,1.3492,1.3492,1.3346,1.3046,1.2813,1.2365,1.1781,1.1545,1.1093,1.0501,1.0126,0.9795,0.9473,0.9329,0.9166,0.8875,0.8657,0.8897,0.9336,0.8823,0.8568,0.8568,0.8568,0.8568,0.8568,0.8568,0.8568,0.8568,0.8568,0.8613,0.8718,0.0,0.0,0.0,0.0,0.0,0.0,0.0,0.0,0.0,0.0,0.0,0.0,0.8902,0.0,0.0,0.0,0.0,0.0,0.8729,0.0,0.0,0.0,0.0,0.7899,0.7899,0.7709,0.7605,0.0,0.0,0.0,1.0597,1.0548,1.1815,0.0,1.2844,1.2031,0.0,0.0,0.0,0.0,0.8316,0.8709,0.928,0.8761,0.8957,0.9392,0.8323,0.7797,0.7579,0.7343,0.7354,0.7462,0.7192,0.7279,0.0,0.0,0.0,0.0,0.0,0.0,1.2276,1.3522,1.3962,1.4345,0.0,0.0,1.5784,0.0,1.6234,1.5904,1.4951,1.5078,1.5078,1.4139,1.4204,1.4395,1.4206,1.4187,1.4109,1.3825,1.3792,1.3757,1.3484,1.3492,1.3492,1.3492,1.3346,1.3046,1.2445,1.199,1.1465,1.0732,1.0421,0.9965,0.9372,0.9003,0.8399,0.7691,0.7998,0.8091,0.7955,0.8138,0.8321,0.8499,0.8548,0.8568,0.8568,0.8568,0.8568,0.8568,0.8568,0.8568,0.8568,0.8564,0.8476,0.8524,0.0,0.0,0.0,0.0,0.0,0.0,0.0,0.0,0.0,0.0,0.0,0.0,0.0,0.0,0.0,0.0,0.0,0.0,0.0,0.0,0.0,0.0,0.0,0.0,0.7899,0.7709,0.7605,0.0,0.0,0.0,1.0597,1.0399,1.1899,1.4724,1.402,1.2653,1.0842,0.0,0.0,0.0,0.0,0.9246,0.928,1.0659,1.1229,1.1096,0.9844,0.9466,0.9359,0.8089,0.7332,0.7022,0.7496,0.7332,0.6947,0.0,0.0,0.0,0.0,0.9935,0.0,1.2097,1.3111,0.0,0.0,0.0,1.5701,1.5722,1.5735,1.5488,1.4647,1.4734,1.4625,1.3773,1.365,1.3534,1.322,1.3199,1.3135,1.3064,1.3031,1.3155,1.3462,1.3492,1.3492,1.3492,1.2973,1.2445,1.205,1.1471,1.0732,0.9669,0.9669,0.9372,0.8775,0.8327,0.7953,0.7496,0.7573,0.7672,0.778,0.7951,0.813,0.8312,0.8491,0.8568,0.8568,0.8568,0.8568,0.8568,0.8568,0.8568,0.8564,0.8292,0.8201,0.8251,0.0,0.0,0.0,0.0,0.0,0.0,0.0,0.0,0.0,0.0,0.0,0.0,0.0,0.8891,0.8891,0.8891,0.0,0.0,0.0,0.0,0.0,0.0,0.0,0.0,0.0,0.762,0.0,0.0,0.0,0.7764,0.9329,0.9629,1.0514,1.1822,1.2582,1.2611,1.1992,1.0842,0.0,0.0,0.0,1.0326,1.1129,1.0945,1.1748,1.2742,1.1175,0.0,0.0,0.0,0.9018,0.8463,0.7874,0.7835,0.7841,0.7114,0.7415,0.0,0.0,0.0,0.0,1.1751,1.2467,1.3038,1.3693,1.4345,1.4809,1.4934,1.4949,1.4678,1.3879,1.3932,1.3856,1.3021,1.2913,1.2853,1.2749,1.2729,1.2727,1.2658,1.2884,1.3053,1.317,1.2998,1.282,1.2579,1.1996,1.1329,1.049,0.9976,0.9377,0.8627,0.8394,0.8165,0.794,0.7791,0.7638,0.7484,0.7484,0.7516,0.7586,0.7768,0.7886,0.7967,0.826,0.8459,0.8568,0.8568,0.8568,0.8568,0.8568,0.8568,0.8564,0.8292,0.8201,0.8247,0.0,0.0,0.0,0.0,0.0,0.0,0.0,0.0,0.0,0.9099,0.0,0.0,0.0,0.0,0.8891,0.8891,0.8903,0.884,0.8669,0.0,0.0,0.0,0.0,0.0,0.0,0.0,0.0,0.0,0.0,0.0,0.0,0.9018,0.9631,1.0456,1.1127,1.1822,0.0,0.0,0.0,1.0455,0.0,0.0,1.2283,1.2253,1.3142,1.418,1.2821,0.0,0.0,0.0,0.0,0.9904,0.8878,0.8448,0.8109,0.7166,0.7554,0.0,0.8645,0.0,0.0,0.0,0.0,1.2267,1.3341,0.0,1.4033,1.4063,1.405,1.382,1.3127,1.2964,1.2885,1.2405,1.2367,1.2321,1.2228,1.2195,1.2258,1.2321,1.2548,1.2655,1.2632,1.2317,1.1925,1.1552,1.0834,1.0104,0.929,0.8783,0.8305,0.7778,0.7551,0.7423,0.7484,0.7484,0.7484,0.7484,0.7484,0.7484,0.7488,0.7675,0.784,0.778,0.8134,0.8361,0.8479,0.8544,0.8568,0.8568,0.8568,0.8568,0.8564,0.8204,0.8113,0.8067,0.0,0.0,0.0,0.0,0.0,0.0,0.0,0.0,0.8953,0.9088,0.0,0.0,0.0,0.0,0.0,0.8925,0.8936,0.8902,0.8806,0.8488,0.0,0.0,0.0,0.0,0.0,0.0,0.0,0.0,0.0,0.0,0.0,0.0,0.9438,1.0987,0.9953,1.0334,1.1776,0.0,1.253,1.2295,0.0,1.2297,1.2617,0.0,1.55,1.5461,1.4859,1.4637,0.0,1.2672,0.0,1.1149,1.0495,0.9126,0.764,0.7101,0.7332,0.7804,0.0,0.0,0.0,0.0,0.0,0.0,1.3124,0.0,1.3337,1.3249,1.314,1.2901,1.2373,1.1878,1.1705,1.1989,1.2058,1.1996,1.1622,1.1622,1.1677,1.1984,1.1963,1.1897,1.1805,1.141,1.0923,1.0453,0.9614,0.891,0.8478,0.7868,0.747,0.7212,0.7224,0.7305,0.7476,0.748,0.7484,0.7484,0.7484,0.7484,0.7488,0.7671,0.7752,0.7772,0.8122,0.8276,0.8296,0.8487,0.8568,0.8568,0.8568,0.8568,0.8568,0.8032,0.7856,0.7878,0.0,0.0,0.0,0.0,0.0,0.8913,0.8953,0.8913,0.8913,0.0,0.0,0.0,0.8891,0.9371,0.9692,0.9692,0.9697,0.9429,0.8774,0.8517,0.8306,0.8158,0.7983,0.7797,0.7605,0.7499,0.7345,0.7107,0.6993,0.7099,0.7376,0.7757,0.8376,0.9151,0.9394,0.9769,1.0206,0.99,0.0,1.1976,1.1643,1.2492,0.0,0.0,0.0,0.0,0.0,1.5617,1.5173,0.0,1.3592,1.2167,1.0743,0.9687,0.8874,0.8312,0.8671,0.9165,0.8597,0.0,0.0,0.0,0.0,0.0,0.0,0.0,1.2081,1.1926,1.1915,1.173,1.1172,1.095,1.1004,1.1338,1.1591,1.1685,1.1622,1.1622,1.1659,1.1684,1.1575,1.1352,1.1089,1.0474,0.9753,0.9114,0.8428,0.7872,0.7442,0.7233,0.712,0.7025,0.7155,0.7248,0.7297,0.7419,0.7484,0.7484,0.7484,0.7484,0.7484,0.7537,0.7561,0.7573,0.7805,0.7897,0.7867,0.8166,0.8292,0.8292,0.812,0.812,0.8032,0.7771,0.7591,0.7616,0.0,0.0,0.0,0.8947,0.8919,0.8993,0.9315,0.9095,0.901,0.0,0.0,0.0,0.932,1.0318,1.0693,1.0051,1.0001,0.9643,0.8838,0.8542,0.8335,0.8185,0.7997,0.7797,0.7605,0.7469,0.7298,0.7107,0.696,0.6908,0.6908,0.7232,0.7583,0.7983,0.8284,0.8707,0.9133,0.8257,0.9255,0.0,1.2051,0.0,0.0,1.5068,1.597,0.0,0.0,0.0,1.6166,1.5944,1.4716,0.0,0.0,0.0,1.0352,0.9427,0.983,1.0376,0.9339,0.9574,0.0,0.0,0.0,0.0,1.1139,1.1135,1.0954,0.0,1.0994,1.0728,1.0424,1.0382,1.0492,1.0821,1.1033,1.1306,1.1586,1.1622,1.1622,1.1622,1.1213,1.073,1.0269,0.9354,0.8565,0.7879,0.7344,0.7009,0.6729,0.6729,0.6761,0.6904,0.694,0.7033,0.711,0.7285,0.7374,0.7374,0.7447,0.7484,0.7484,0.7484,0.7484,0.7492,0.7596,0.7692,0.7714,0.7811,0.7964,0.8028,0.794,0.7944,0.7856,0.7595,0.7507,0.7517,0.0,0.0,0.9027,0.91,0.9055,0.9281,1.0001,0.9557,0.9382,0.0,0.9624,0.9586,1.0406,1.1654,1.1874,1.0491,1.022,0.9815,0.9077,0.8641,0.8374,0.8322,0.8054,0.7797,0.7605,0.7469,0.7298,0.7107,0.696,0.6908,0.6908,0.6908,0.7058,0.736,0.7042,0.7472,0.8381,0.754,0.8518,1.0834,1.2729,1.3683,0.0,0.0,1.6428,1.6545,1.7029,1.7199,1.7079,1.6478,1.5244,0.0,0.0,0.0,1.1895,1.0543,1.0883,0.0,1.0225,1.0226,0.0,0.0,1.0328,0.0,1.1481,1.0874,1.0143,0.0,1.0295,1.0017,0.9992,1.0073,1.0144,1.0438,1.0549,1.0806,1.1431,1.1549,1.1509,1.1447,1.0703,0.9958,0.939,0.8291,0.7391,0.6881,0.6552,0.642,0.642,0.642,0.6489,0.6639,0.6668,0.6757,0.6995,0.7127,0.7224,0.7228,0.7399,0.7484,0.7484,0.7484,0.7403,0.7411,0.7332,0.7419,0.7593,0.7341,0.7516,0.7856,0.7852,0.7852,0.7768,0.7503,0.7415,0.7415,0.0,0.8992,0.9174,0.9721,0.9794,1.003,1.0775,1.0758,1.0724,1.0876,1.1316,1.2145,1.3481,1.3362,1.3057,1.277,1.1603,1.0572,0.9832,0.8915,0.8387,0.8374,0.8068,0.7797,0.7605,0.7469,0.7298,0.7107,0.696,0.6908,0.6908,0.6908,0.6993,0.7155,0.6977,0.7076,0.7464,0.8538,0.9534,1.0453,1.1345,1.3082,1.5251,1.6075,1.6663,1.7055,1.716,1.7031,1.6676,1.5786,1.5265,1.4792,0.0,1.3228,1.3069,1.1907,1.2036,1.2346,1.1353,1.1328,1.1426,1.0568,1.0516,0.0,1.0093,1.0358,1.0518,0.0,0.9896,0.9959,0.9542,0.9702,0.9903,0.9721,1.0189,1.0569,1.0784,1.1004,1.1044,1.062,1.0013,0.932,0.8554,0.7591,0.6876,0.6548,0.6416,0.642,0.642,0.642,0.6432,0.6469,0.6611,0.6708,0.6745,0.7066,0.7224,0.7228,0.7251,0.7257,0.7257,0.7096,0.7019,0.7019,0.6976,0.701,0.702,0.7008,0.7243,0.7591,0.7319,0.7231,0.7231,0.7231,0.7143,0.7143,0.9056,0.9024,0.923,0.9927,1.0026,1.0372,1.1519,1.135,1.1367,1.216,1.3227,1.3954,1.3954,1.4276,1.4039,1.2956,1.1728,1.0678,0.9944,0.8919,0.8325,0.8298,0.8039,0.7855,0.7753,0.7514,0.7345,0.7251,0.7009,0.6908,0.6908,0.6908,0.7162,0.7584,0.7109,0.7314,0.8063,0.8448,0.9436,1.0873,1.2311,0.0,1.5591,1.6467,1.6881,1.6934,1.6795,1.6539,1.6151,1.5566,1.5352,0.0,1.4147,1.4036,1.4038,1.3116,1.3128,1.3252,1.228,1.2133,1.2097,1.1433,1.1085,0.0,0.0,1.0298,1.0175,1.0219,0.9971,0.9726,0.9892,0.9899,0.9825,0.9539,0.9923,1.0151,0.9938,1.0433,1.0711,1.0366,0.9465,0.8628,0.8129,0.7175,0.6517,0.6412,0.642,0.642,0.642,0.642,0.642,0.642,0.6509,0.6558,0.6558,0.6818,0.6925,0.6876,0.697,0.7019,0.7022,0.6942,0.6865,0.6865,0.6791,0.6805,0.6809,0.6799,0.693,0.7222,0.7112,0.7139,0.7139,0.7139,0.7139,0.7139,0.9071,0.9046,0.9242,0.9964,1.017,1.0673,1.2026,1.184,1.2111,1.3752,1.4864,1.5182,1.4272,1.5076,1.5003,1.3325,1.2008,1.1052,1.0579,0.9262,0.8511,0.8581,0.8148,0.7958,0.8079,0.7647,0.7392,0.7392,0.7058,0.6908,0.6908,0.6908,0.7307,0.7997,0.7412,0.7868,0.0,0.0,0.0,1.1754,0.0,1.4813,1.5447,1.6517,1.6725,1.6431,1.6145,1.5876,1.5596,1.5295,1.5248,1.5175,1.4576,1.466,1.4825,1.3941,1.3888,1.3883,1.3043,1.2774,1.2699,1.2392,1.1778,1.1273,0.0,0.0,0.0,1.0789,1.0184,0.0,0.0,0.0,0.0,0.9452,0.0,0.0,0.0,0.9753,0.0,1.0123,0.9009,0.8128,0.7946,0.682,0.612,0.6302,0.6319,0.6331,0.6363,0.64,0.642,0.642,0.642,0.642,0.642,0.6591,0.6614,0.6552,0.6749,0.6765,0.6816,0.6773,0.6788,0.6788,0.6641,0.6638,0.6679,0.6544,0.6634,0.6898,0.7044,0.7115,0.7139,0.7139,0.7139,0.7139,0.9022,0.9007,0.923,0.9974,1.0581,1.1197,1.1842,1.2618,1.382,1.5714,1.5549,1.5669,1.6818,0.0,0.0,0.0,1.3997,1.2716,1.3223,1.0699,0.9437,0.9949,0.8636,0.8183,0.877,0.7864,0.7392,0.7392,0.7058,0.6908,0.6908,0.6908,0.7201,0.7752,0.7958,0.0,0.0,0.0,1.1421,0.0,1.3841,1.4364,0.0,1.5632,1.5809,1.557,1.518,1.5028,1.4937,0.0,1.4869,1.5173,1.4323,1.4608,1.5027,1.3932,1.3788,1.3914,1.357,1.3512,1.3315,1.2505,1.2482,1.2253,1.0695,0.0,1.1185,1.0617,0.0,0.0,0.0,0.0,0.0,0.0,0.0,0.0,0.8483,0.8904,0.9278,0.907,0.8551,0.8016,0.7596,0.6393,0.575,0.5937,0.5949,0.6018,0.6232,0.6331,0.642,0.642,0.642,0.642,0.642,0.6391,0.6417,0.6444,0.6401,0.6403,0.635,0.6346,0.6338,0.6338,0.6338,0.6345,0.6373,0.642,0.6573,0.6742,0.6895,0.7031,0.7139,0.7139,0.7139,0.7139,0.906,0.9028,0.9236,1.0027,1.0484,1.1019,1.1787,1.2753,1.3701,1.4514,1.5853,1.6836,0.0,0.0,0.0,0.0,0.0,1.3701,0.0,1.1552,1.0235,0.9988,0.9458,0.9044,0.8792,0.8299,0.7837,0.7392,0.7058,0.6908,0.6908,0.6908,0.7399,0.8286,0.8234,0.0,1.0784,0.0,1.1555,0.0,0.0,1.3652,0.0,1.5277,1.544,1.4896,1.4687,1.4512,1.4329,1.4056,1.4326,1.4641,1.3965,1.4109,1.4466,1.3952,1.3821,1.3716,1.361,1.3614,1.3448,1.283,1.2558,1.2232,1.1223,1.1106,1.1131,1.0875,0.0,0.0,0.0,0.0,0.0,0.0,0.9337,0.0,0.0,0.0,0.8627,0.8686,0.0,0.0,0.6834,0.6169,0.5861,0.5928,0.6024,0.6147,0.6195,0.6281,0.631,0.6416,0.635,0.635,0.642,0.6226,0.6177,0.6211,0.623,0.6166,0.6105,0.6266,0.6338,0.6338,0.6338,0.6338,0.6268,0.6325,0.6434,0.6583,0.6736,0.6939,0.7139,0.7139,0.7139,0.7139,0.9109,0.0,0.9189,0.976,1.022,1.0896,1.2124,1.2922,1.3989,1.5632,1.6627,0.0,1.7215,1.792,0.0,0.0,1.6307,1.5446,0.0,1.3016,1.1734,1.1186,1.0741,1.0178,0.9519,0.8899,0.8293,0.7675,0.7155,0.6986,0.7114,0.6973,0.7618,0.8922,0.8744,0.987,1.1853,0.0,1.2006,1.3076,1.331,1.346,1.3648,1.4862,1.4891,1.434,1.4222,1.4057,1.3862,1.3662,1.3987,1.4343,1.3777,1.3768,1.3952,1.3763,1.3608,1.3427,1.345,1.3501,1.3452,1.2863,1.2473,1.2063,1.1511,1.1254,1.1135,1.1243,1.1023,0.0,0.0,0.0,0.9804,0.946,0.0,0.8761,0.0,0.7916,0.0,0.0,0.0,0.0,0.0,0.5987,0.5864,0.5921,0.5932,0.5961,0.6043,0.6154,0.6269,0.6339,0.6256,0.6214,0.635,0.602,0.5881,0.5935,0.5958,0.5971,0.5973,0.6129,0.622,0.6338,0.6338,0.6338,0.6338,0.6338,0.6342,0.6488,0.6641,0.6858,0.7088,0.7126,0.7139,0.7139,0.9109,0.905,0.0,0.9035,0.9857,1.1134,1.3057,1.3379,1.546,2.1262,1.8318,0.0,0.0,0.0,0.0,0.0,0.0,1.8577,1.8069,1.5575,1.4267,1.4629,1.2583,1.1468,1.1505,0.9793,0.8712,0.837,0.7388,0.7166,0.7666,0.714,0.7821,0.9488,0.9741,1.0797,1.2377,1.2626,1.3492,1.4666,1.411,1.4047,1.4323,0.0,1.4037,1.3962,1.3716,1.3621,1.361,1.36,1.4003,1.4411,1.3779,1.3721,1.3805,1.3198,1.3026,1.3004,1.3027,1.3293,1.3382,1.2528,1.2328,1.2047,1.1108,1.1276,1.162,1.1693,1.1659,1.1724,1.1832,1.1023,1.013,0.9608,0.9221,0.0,0.0,0.0,0.0,0.0,0.0,0.0,0.0,0.584,0.5567,0.5887,0.5405,0.5255,0.5608,0.6018,0.6211,0.6215,0.6189,0.6214,0.6214,0.5815,0.5617,0.5624,0.559,0.5671,0.5813,0.5966,0.6118,0.6338,0.6338,0.6338,0.6338,0.6338,0.6342,0.6488,0.6641,0.6797,0.6953,0.7088,0.7139,0.7139,0.0,0.0,0.0,0.0,0.0,1.0433,1.3006,1.5054,1.705,0.0,1.7387,0.0,0.0,1.8647,1.9888,0.0,0.0,1.9645,1.9204,1.7121,1.565,1.5023,1.4241,1.3369,1.2425,1.1269,1.0212,0.9268,0.8432,0.8109,0.8292,0.8096,0.8547,0.9514,1.0186,1.1298,0.0,0.0,0.0,0.0,0.0,1.3846,1.4129,0.0,1.406,1.3716,1.361,1.3621,1.3621,1.3621,1.3951,1.43,1.377,1.3862,1.4042,1.3536,1.338,1.3412,1.3418,1.3481,1.3401,1.2532,1.212,1.1695,1.0833,1.0974,1.1092,1.0422,1.0933,1.1273,1.0688,1.0156,0.9753,0.9595,0.8966,0.8216,0.0,0.0,0.0,0.0,0.0,0.0,0.0,0.0,0.5763,0.5521,0.544,0.5414,0.5584,0.5726,0.584,0.6018,0.5882,0.5837,0.6017,0.5624,0.5488,0.5617,0.5579,0.5664,0.5806,0.5959,0.6115,0.6338,0.6338,0.6338,0.6338,0.6338,0.6288,0.6359,0.6603,0.6732,0.6807,0.7051,0.7139,0.7139,0.9755,1.0307,0.0,0.0,0.0,1.2815,1.4683,1.6576,1.7811,0.0,1.7345,0.0,1.7593,0.0,2.0304,0.0,2.0304,2.02,1.994,1.8459,1.7246,1.6343,1.5877,1.506,1.3937,1.276,1.1627,1.0484,0.944,0.8926,0.8926,0.8696,0.9022,0.0,0.0,1.1602,1.2745,1.3594,1.4101,0.0,0.0,1.3939,0.0,1.4165,1.3931,1.3621,1.3621,1.3628,1.3616,1.3616,1.3811,1.3979,1.3721,1.3705,1.3755,1.3495,1.3378,1.3405,1.3368,1.3468,1.3411,1.2689,1.2328,1.1895,1.0947,1.1095,1.1145,1.0194,1.0653,1.1054,1.0553,1.0035,0.9692,0.9627,0.8909,0.807,0.0,0.6695,0.0,0.0,0.0,0.0,0.0,0.6231,0.5826,0.5469,0.5277,0.5246,0.0,0.5575,0.5628,0.5794,0.5672,0.5653,0.5818,0.5561,0.5425,0.5554,0.5528,0.561,0.5803,0.5901,0.6061,0.6338,0.6338,0.6338,0.6338,0.6338,0.6338,0.6291,0.6586,0.6702,0.6736,0.7031,0.7139,0.7051,1.0739,1.1114,1.1032,0.9543,1.3888,0.0,0.0,0.0,1.7836,0.0,1.8225,1.895,2.0166,2.0304,2.027,2.0235,2.02,2.02,2.02,1.9545,0.0,1.8529,1.7403,1.6513,1.5953,1.4196,1.286,1.1984,1.0371,0.0,0.0,0.0,0.0,0.0,1.0965,0.0,1.2769,1.3895,1.4642,1.5017,1.4558,1.4326,1.428,1.381,1.3583,1.3594,1.3573,1.3618,1.3588,1.3588,1.3632,1.3641,1.3641,1.3368,1.3058,1.3058,1.2998,1.3035,1.299,1.3289,1.351,1.2982,1.2874,1.254,1.1432,1.1563,1.1686,1.0953,1.0914,1.1106,1.1311,1.0616,0.9915,0.9639,0.9096,0.8246,0.6928,0.6738,0.6731,0.0,0.0,0.0,0.0,0.6165,0.5673,0.5659,0.4927,0.0,0.0,0.5498,0.556,0.5566,0.5608,0.5577,0.5617,0.5491,0.5428,0.5428,0.5428,0.5515,0.58,0.58,0.5969,0.6261,0.6261,0.6261,0.6261,0.6261,0.6261,0.6291,0.6586,0.6709,0.6756,0.7037,0.7051,0.7051,1.1339,1.2189,1.2776,0.0,1.343,1.5112,0.0,0.0,0.0,0.0,1.8421,1.895,2.0166,2.0304,1.994,1.9026,1.895,0.0,0.0,0.0,0.0,1.8546,1.8072,1.7377,1.6512,1.5227,1.406,1.3018,1.1514,0.0,1.0756,0.0,0.0,0.0,0.0,1.204,1.2544,1.3703,1.4209,1.4244,1.3847,1.3552,1.3362,1.3563,1.3624,1.3671,1.3638,1.3618,1.3588,1.3588,1.3835,1.4073,1.3736,1.3708,1.3826,1.3456,1.3356,1.3348,1.3364,1.3475,1.3381,1.2783,1.2402,1.1969,1.1173,1.1258,1.132,1.0639,1.0994,1.1222,1.0579,1.0253,0.9984,0.9651,0.9092,0.8399,0.758,0.7219,0.0,0.7393,0.0,0.0,0.6258,0.596,0.5556,0.5077,0.4849,0.4867,0.5277,0.5267,0.531,0.5449,0.5441,0.5475,0.5422,0.5425,0.5428,0.5428,0.5428,0.5515,0.58,0.58,0.5969,0.6261,0.6099,0.6099,0.6261,0.6099,0.6099,0.6291,0.6586,0.6834,0.7037,0.7112,0.6966,0.6881,1.25,1.4123,1.5405,1.4782,0.0,0.0,1.4512,1.6569,0.0,1.7876,1.8245,0.0,1.9435,1.9975,1.9797,1.8595,1.8517,0.0,1.8517,0.0,0.0,1.8774,1.8293,1.7772,1.7182,1.6055,1.4951,1.3908,1.2497,0.0,1.1201,0.0,0.0,0.0,0.0,1.2197,1.2603,1.3697,1.4127,1.4046,1.3409,1.3064,0.0,1.3234,1.3362,1.3416,1.357,1.3733,1.3893,1.3689,1.3784,1.3907,1.3614,1.3714,1.3821,1.3571,1.3511,1.345,1.3338,1.3277,1.3166,1.2598,1.2344,1.1993,1.1349,1.1363,1.1333,1.08,1.0935,1.1011,1.0515,1.0221,0.995,0.9497,0.889,0.8297,0.7785,0.7558,0.0,0.0,0.7004,0.0,0.6098,0.567,0.5129,0.4503,0.4583,0.4767,0.5044,0.5112,0.5187,0.5389,0.5339,0.5307,0.5425,0.5428,0.5428,0.5428,0.5428,0.5515,0.58,0.58,0.5969,0.6261,0.6022,0.6018,0.6099,0.5867,0.5867,0.6054,0.6257,0.6537,0.6786,0.6786,0.6789,0.6792,1.376,1.64,0.0,0.0,0.0,0.0,0.0,1.5783,0.0,1.6991,0.0,1.8517,1.8517,1.9435,1.9654,1.8581,1.8517,1.8517,1.8517,1.8517,1.8673,1.8988,1.8226,1.776,1.7666,1.657,1.5479,1.4456,1.3198,0.0,0.0,0.0,0.0,0.0,0.0,0.0,0.0,1.3707,1.4035,1.3894,1.3016,1.2706,1.2743,1.2865,1.2969,1.3118,1.3502,1.3867,1.4176,1.3729,1.3564,1.3511,1.3511,1.3511,1.3511,1.3511,1.3511,1.345,1.3103,1.2989,1.2928,1.2552,1.2428,1.2289,1.1744,1.1615,1.1496,1.1136,1.085,1.0637,1.0657,1.0203,0.9692,0.9228,0.8568,0.8044,0.7681,0.7638,0.0,0.0,0.0,0.0,0.6116,0.5419,0.472,0.4103,0.4325,0.455,0.4792,0.4923,0.5094,0.5359,0.5204,0.5168,0.5328,0.5418,0.5428,0.5428,0.5428,0.5515,0.58,0.5803,0.5969,0.6257,0.5941,0.5864,0.5864,0.5634,0.5581,0.5714,0.5943,0.6196,0.6428,0.6343,0.6523,0.6615,1.3795,0.0,0.0,0.0,0.0,1.7184,1.7366,1.7949,1.7876,1.6527,1.7607,1.8517,1.8517,1.8697,1.8736,1.8517,1.8517,0.0,0.0,0.0,0.0,1.8581,1.7962,1.738,1.6879,1.6327,1.5246,1.3779,1.2808,1.1777,1.0694,0.0,0.0,0.0,0.0,0.0,1.2743,1.3317,0.0,1.2764,1.2264,1.22,1.2492,1.2504,1.2959,1.3559,1.3593,1.3666,1.3729,1.3615,1.3564,1.3511,1.3511,1.3511,1.3511,1.3511,1.3511,1.345,1.3103,1.2989,1.2867,1.2305,1.2182,1.2042,1.168,1.1596,1.1472,1.0975,1.0809,1.054,0.9914,0.913,0.8654,0.8712,0.8307,0.7776,0.7203,0.7315,0.0,0.0,0.0,0.5941,0.0,0.0,0.0,0.4408,0.4336,0.4463,0.4788,0.4577,0.4675,0.5118,0.5146,0.5116,0.5169,0.5298,0.5428,0.5428,0.5428,0.5515,0.58,0.5663,0.5673,0.5941,0.5553,0.5476,0.5634,0.5401,0.5604,0.597,0.6016,0.6196,0.6343,0.6257,0.6171,0.6171,1.5762,0.0,0.0,0.0,0.0,0.0,0.0,1.862,1.8233,1.75,1.8018,1.82,1.7393,1.8027,1.8517,1.8517,1.8517,1.8517,1.8517,1.8517,1.8517,1.8517,1.7639,1.7018,1.671,1.6161,1.5295,1.4019,1.3055,1.2009,1.0944,1.0091,0.0,1.0174,0.0,1.2321,0.0,0.0,1.2812,1.2733,1.2073,1.2044,1.2394,1.2604,1.2984,1.3345,1.3479,1.3549,1.3549,1.3549,1.3544,1.3511,1.3511,1.3511,1.3511,1.3511,1.339,1.3155,1.2858,1.2613,1.2428,1.1934,1.1809,1.1747,1.131,1.1185,1.1052,1.0478,1.0408,1.0134,0.9426,0.8747,0.8336,0.8178,0.8021,0.767,0.7098,0.7115,0.7028,0.0,0.0,0.0,0.0,0.0,0.0,0.0,0.0,0.4248,0.4502,0.4434,0.4558,0.4966,0.5016,0.5044,0.5128,0.5284,0.5428,0.5428,0.5292,0.5378,0.5663,0.5447,0.5526,0.5712,0.5398,0.5321,0.5401,0.5246,0.5394,0.5702,0.5702,0.5858,0.5994,0.5908,0.5908,0.5908,1.8297,1.8394,0.0,0.0,2.0464,2.0447,1.9273,1.8774,1.8517,1.8517,1.8517,1.8055,1.6817,1.7755,1.8517,1.8517,1.8517,1.8517,1.8517,1.8135,1.8113,1.8587,1.7497,1.6823,1.6735,1.6227,1.5329,1.4146,1.325,1.2255,1.1125,1.0281,1.0173,0.0,0.0,1.2615,1.3026,1.2667,1.2651,1.2834,1.2157,1.2184,1.2543,1.286,1.3023,1.3125,1.3408,1.3511,1.3511,1.3321,1.3381,1.3511,1.3511,1.345,1.339,1.339,1.3155,1.2797,1.2359,1.2112,1.1809,1.1365,1.124,1.1178,1.0737,1.0611,1.0478,0.9958,0.9767,0.9497,0.8983,0.8429,0.7949,0.7637,0.7499,0.727,0.6706,0.6685,0.6582,0.0,0.0,0.0,0.5424,0.4988,0.0,0.0,0.4052,0.4026,0.4237,0.4271,0.4488,0.4862,0.4882,0.4972,0.5084,0.527,0.5428,0.5428,0.5223,0.5238,0.5522,0.5228,0.5303,0.5559,0.5323,0.5243,0.5246,0.5093,0.5156,0.5368,0.5368,0.5518,0.5733,0.5733,0.5733,0.5733,0.0,0.0,0.0,0.0,0.0,1.9273,1.9139,1.8774,1.8517,1.8517,1.8517,1.8433,1.8309,1.8416,1.8517,1.8517,1.8517,1.8517,1.8517,1.6964,1.691,1.8861,1.7921,1.7206,1.688,1.6525,1.5365,1.3313,1.3081,1.2187,1.0658,1.055,1.0787,1.1231,1.1849,1.2198,1.2316,1.278,1.2775,1.2448,1.2393,1.2577,1.2928,1.2963,1.3177,1.3468,1.3502,1.3511,1.339,1.2818,1.3009,1.3511,1.3511,1.3277,1.3042,1.3042,1.2797,1.2359,1.1615,1.1365,1.117,1.0338,1.0148,1.0148,1.0085,1.0085,0.9958,0.946,0.8958,0.8559,0.8426,0.7638,0.7003,0.684,0.6355,0.5891,0.5492,0.571,0.5735,0.5259,0.0,0.0,0.4936,0.4315,0.4036,0.4333,0.4041,0.3929,0.412,0.4015,0.4172,0.4698,0.4828,0.4925,0.4938,0.522,0.5428,0.5428,0.5223,0.5238,0.5522,0.509,0.5084,0.5321,0.509,0.5015,0.5015,0.5018,0.5156,0.5368,0.5368,0.5518,0.5733,0.5733,0.5733,0.5733,0.0,0.0,0.0,0.0,0.0,0.0,0.0,2.0246,2.0564,1.899,1.9926,2.0147,1.8672,1.9838,2.0196,1.8896,1.8814,1.8814,1.8814,1.8105,1.8109,1.8951,1.7873,1.7139,1.6827,1.5935,1.4824,1.3638,1.3217,1.2327,1.103,1.1021,1.1116,1.1324,1.2113,1.2416,1.2359,1.275,1.2648,1.2266,1.2208,1.2129,1.2132,1.2132,1.221,1.232,1.232,1.232,1.2258,1.1888,1.2205,1.2704,1.2328,1.202,1.1779,1.1779,1.1593,1.1219,1.0905,1.0654,1.0471,1.0078,1.0015,0.9958,0.9646,0.9582,0.946,0.8894,0.8511,0.8115,0.7689,0.7218,0.6643,0.6156,0.5914,0.5686,0.5352,0.5411,0.5396,0.5157,0.4956,0.4705,0.4416,0.4093,0.3942,0.3976,0.3652,0.3594,0.3946,0.3898,0.401,0.4374,0.4714,0.4918,0.4918,0.5145,0.5223,0.5226,0.4974,0.4978,0.5165,0.495,0.493,0.509,0.5015,0.5018,0.5018,0.5018,0.5156,0.5368,0.5368,0.5518,0.5733,0.5733,0.5733,0.5733,2.0648,0.0,1.8936,0.0,1.9398,2.0233,2.0233,2.1729,2.1955,1.9331,2.0333,2.0604,1.8846,2.0193,2.0633,1.9146,1.8987,1.8987,1.8987,1.8987,1.8827,1.8483,1.7644,1.7038,1.6677,1.568,1.48,1.4101,1.3538,1.2801,1.1914,1.189,1.1784,1.164,1.2292,1.2418,1.2175,1.2321,1.2249,1.2051,1.1924,1.1692,1.1516,1.1516,1.1516,1.1516,1.1516,1.1447,1.1392,1.1087,1.1269,1.1578,1.1296,1.108,1.0829,1.0829,1.064,1.0332,1.0205,0.9958,0.9767,0.9582,0.9582,0.9454,0.9145,0.9087,0.8958,0.8447,0.8187,0.7787,0.7196,0.6857,0.6406,0.5578,0.5466,0.5352,0.4967,0.4912,0.4903,0.4891,0.4669,0.439,0.3946,0.3785,0.3577,0.329,0.3174,0.3395,0.3994,0.3886,0.3959,0.4308,0.4731,0.4877,0.4924,0.5036,0.5087,0.5024,0.4825,0.4751,0.4879,0.4891,0.4936,0.5018,0.5018,0.5018,0.5018,0.5018,0.5156,0.5368,0.5368,0.5518,0.5733,0.5733,0.5733,0.5733,1.9139,1.9101,1.8577,1.6837,2.0048,2.2844,2.2844,2.2873,2.1955,1.9331,1.904,1.9028,1.9016,1.9028,1.904,1.8987,1.8987,1.8987,1.8987,1.8987,1.8483,1.7257,1.7202,1.6972,1.6438,1.6116,1.5498,1.4516,1.4165,1.3751,1.3263,1.3263,1.2936,1.2305,1.2284,1.2061,1.1701,1.1516,1.1541,1.1794,1.1578,1.1509,1.1516,1.1516,1.1516,1.1516,1.1516,1.1392,1.1212,1.0521,1.0199,1.0246,1.0792,1.0766,1.0514,1.0514,1.0268,0.9894,0.946,0.9338,0.921,0.8641,0.8511,0.8511,0.8517,0.8517,0.8382,0.8052,0.7987,0.7723,0.6876,0.6551,0.6109,0.5173,0.4844,0.4522,0.4079,0.4024,0.4136,0.4362,0.4126,0.3842,0.3695,0.3209,0.2769,0.2361,0.2672,0.3318,0.4337,0.4013,0.4063,0.4667,0.4836,0.4927,0.4884,0.5019,0.5024,0.4831,0.476,0.4751,0.4882,0.498,0.5015,0.5018,0.5018,0.5018,0.5018,0.5018,0.5156,0.5368,0.5368,0.5518,0.5733,0.5733,0.5733,0.5733,1.7571,1.9684,2.1542,2.0946,2.1967,2.2402,2.1028,2.0782,2.0333,1.9146,1.8987,1.8987,1.8987,1.8987,1.8987,0.0,1.8987,1.8987,1.8987,1.8987,1.8093,1.6083,1.5968,1.6069,1.6318,1.5426,1.4727,1.4424,1.3727,1.3083,1.2492,1.2138,1.1809,1.1605,1.1906,1.19,1.1724,1.1768,1.1559,1.1136,1.1077,1.0835,1.0405,1.059,1.0667,1.0667,1.0667,1.06,1.0398,1.0073,0.9855,0.9708,0.974,0.9717,0.9649,0.9649,0.9513,0.9412,0.912,0.9014,0.8909,0.8619,0.8517,0.8517,0.8517,0.8317,0.8117,0.8052,0.7596,0.7099,0.6568,0.5973,0.5422,0.4858,0.4497,0.419,0.4024,0.4024,0.4006,0.4126,0.3955,0.3637,0.3125,0.2916,0.2692,0.2323,0.2626,0.3013,0.3417,0.382,0.4233,0.4577,0.4305,0.4429,0.5018,0.4369,0.4303,0.4785,0.4515,0.4643,0.4991,0.4985,0.5018,0.5018,0.5018,0.5018,0.5023,0.5187,0.5314,0.5377,0.5461,0.5597,0.5741,0.5735,0.5738,0.5744,1.8938,2.0443,2.1718,2.1718,2.1718,2.1321,1.9991,1.9798,1.9604,1.9093,1.8987,1.8987,1.8987,1.8987,0.0,1.8987,1.8987,1.8602,1.7699,1.7644,1.6978,1.5468,1.541,1.5526,1.5853,1.4802,1.4227,1.4121,1.3296,1.2643,1.2249,1.1927,1.1643,1.1366,1.163,1.1609,1.1436,1.143,1.1212,1.0836,1.0743,1.0417,1.0036,1.0266,1.0327,1.0327,1.0327,1.0124,0.9916,0.9852,0.971,0.9499,0.9417,0.9405,0.9437,0.9254,0.9206,0.9174,0.9034,0.8931,0.8829,0.8684,0.8581,0.8452,0.8317,0.7982,0.7652,0.7326,0.6736,0.6189,0.5779,0.5247,0.477,0.4305,0.3999,0.3691,0.3524,0.3524,0.3561,0.3624,0.3601,0.3271,0.2603,0.2576,0.2353,0.1797,0.217,0.2505,0.2631,0.3422,0.3844,0.3929,0.378,0.4001,0.4514,0.3664,0.3448,0.3764,0.3608,0.4006,0.4953,0.4311,0.4389,0.5023,0.5023,0.4626,0.416,0.4911,0.5273,0.539,0.5427,0.555,0.5654,0.4926,0.5109,0.5573,2.2232,2.1126,1.9798,1.9798,1.9798,1.9798,1.9798,1.9798,1.9604,1.9093,1.8987,1.8987,1.8987,1.8987,1.8934,1.8762,1.8762,1.7809,1.5526,1.541,1.541,1.541,1.5294,1.5177,1.501,1.4282,1.3795,1.3563,1.2818,1.2389,1.2389,1.2389,1.2042,1.1457,1.1457,1.1319,1.1022,1.0625,1.0645,1.0886,1.049,1.0357,1.0357,1.0381,1.0387,1.0387,1.0311,1.0108,0.9839,0.9833,0.9708,0.9604,0.9604,0.975,0.983,0.9383,0.9254,0.9249,0.9238,0.9071,0.8837,0.8799,0.8618,0.8317,0.8052,0.7582,0.6985,0.6207,0.5609,0.5101,0.4711,0.4451,0.4194,0.3605,0.3431,0.319,0.2747,0.2691,0.2768,0.2997,0.3038,0.2735,0.2087,0.2092,0.1815,0.0962,0.1476,0.1857,0.2026,0.2737,0.3093,0.3007,0.3362,0.3596,0.3701,0.2958,0.2385,0.1965,0.1919,0.2911,0.4636,0.3132,0.329,0.4636,0.4875,0.4079,0.2586,0.4031,0.4794,0.5068,0.5102,0.521,0.5203,0.34,0.3853,0.5034,0.0,0.0,1.9798,1.9798,1.9798,1.9798,1.9798,1.9798,1.9604,1.9093,1.8987,1.8987,1.8987,1.8987,1.8255,1.6415,1.6244,1.6026,1.541,1.541,1.541,1.541,1.446,1.3983,1.4094,1.3554,1.2826,1.2035,1.1849,1.1483,1.1052,1.1052,1.1051,1.1142,1.1142,1.1181,1.1255,1.0921,1.0823,1.0905,1.0685,1.0628,1.0647,1.0852,1.0924,1.0924,1.0704,1.0563,1.0341,1.0194,1.0016,0.9841,0.9841,0.9879,0.9895,0.9782,0.975,0.9712,0.954,0.9006,0.8369,0.8113,0.7878,0.7722,0.7657,0.7195,0.6605,0.5881,0.5279,0.4841,0.4647,0.4264,0.3835,0.3546,0.3147,0.2802,0.2691,0.2465,0.2345,0.238,0.2211,0.1929,0.1533,0.1489,0.133,0.0942,0.1437,0.1641,0.1223,0.1995,0.2591,0.283,0.292,0.3603,0.4931,0.2627,0.1172,0.0505,0.0521,0.0765,0.1177,0.2115,0.2034,0.1331,0.3851,0.4084,0.2433,0.1556,0.1587,0.2189,0.2273,0.2403,0.2327,0.1878,0.1343,0.0717,1.9991,1.9798,1.9798,1.9798,1.9798,1.9423,1.8417,1.9109,1.9202,1.7589,1.7368,1.7368,1.7368,1.7368,1.681,1.5517,1.541,1.541,1.541,1.541,1.541,1.541,1.3614,1.265,1.2765,1.2859,1.2449,1.1465,1.1465,1.1276,1.0955,1.0955,1.1042,1.1189,1.1189,1.1356,1.163,1.1211,1.1141,1.1274,1.0985,1.09,1.0918,1.1057,1.1037,1.0887,1.0432,1.0056,0.9755,0.9296,0.8988,0.8765,0.8765,0.8765,0.8765,0.8765,0.9079,0.9362,0.9244,0.8458,0.7715,0.7421,0.7133,0.6923,0.6726,0.6195,0.5543,0.4954,0.4422,0.4069,0.3946,0.3675,0.3425,0.3313,0.2947,0.2691,0.2691,0.241,0.2196,0.2231,0.2004,0.1671,0.1346,0.1348,0.1232,0.0939,0.1268,0.1283,0.0964,0.1275,0.1493,0.1699,0.1879,0.2455,0.3439,0.1519,0.0428,-0.0,-0.0,-0.0,-0.0,0.0941,0.0862,0.0078,0.1962,0.2198,0.1258,-0.0082,-0.042,-0.0,0.0088,0.0089,0.009,0.009,-0.0358,-0.0987,1.9267,1.9267,1.9267,1.9267,1.9267,1.862,1.6705,1.8038,1.8394,1.5864,1.5468,1.541,1.541,1.505,1.4815,1.4815,1.4815,1.4815,1.4815,1.4815,1.4815,1.4815,1.2765,1.1622,1.1622,1.2295,1.2238,1.147,1.1436,1.1423,1.1423,1.1423,1.145,1.149,1.149,1.1587,1.1716,1.135,1.1192,1.1254,1.0887,1.0738,1.0738,1.0738,1.0582,1.0357,0.9599,0.9145,0.8689,0.7995,0.7613,0.7464,0.7464,0.7464,0.7464,0.7464,0.7927,0.8318,0.847,0.7643,0.6795,0.6584,0.6346,0.6007,0.5717,0.5064,0.4436,0.403,0.356,0.3226,0.3226,0.3077,0.3015,0.3015,0.2805,0.2691,0.2635,0.2363,0.2166,0.217,0.189,0.1615,0.1351,0.1355,0.1235,0.0994,0.1019,0.1024,0.1003,0.0723,0.0533,0.0325,0.0733,0.0946,0.095,0.0286,-0.0,-0.0,-0.0,-0.0,-0.0,-0.0,-0.0,-0.0,-0.0,-0.0,-0.0079,-0.0828,-0.1266,-0.1361,-0.1414,-0.1436,-0.1436,-0.1436,-0.1436,-0.1436,1.692,1.692,1.692,1.692,1.692,1.6807,1.6431,1.6705,1.6751,1.6316,1.5768,1.541,1.541,1.3485,1.2166,1.2166,1.2166,1.2166,1.2166,1.2166,1.2166,1.2166,1.1802,1.1622,1.1622,1.1794,1.1776,1.167,1.1503,1.1423,1.1423,1.1423,1.1557,1.1797,1.1797,1.152,1.0953,1.073,1.0162,0.9377,0.9155,0.9079,0.9079,0.9079,0.8922,0.8761,0.8461,0.8152,0.7918,0.7613,0.7536,0.7464,0.7464,0.7464,0.7464,0.7464,0.7084,0.6703,0.7314,0.6579,0.5635,0.5538,0.5431,0.5232,0.5044,0.4861,0.4475,0.3713,0.3362,0.3226,0.3226,0.3077,0.3015,0.3015,0.2805,0.2577,0.2296,0.2064,0.1755,0.159,0.1267,0.1106,0.1049,0.1049,0.1061,0.1024,0.1031,0.1043,0.1064,0.1006,0.074,0.0067,0.0135,0.0205,0.014,0.0073,-0.0,-0.0,-0.0,-0.0,-0.0,-0.0,-0.0,-0.0,-0.0,-0.0,-0.0,-0.0167,-0.0681,-0.139,-0.1423,-0.1436,-0.1436,-0.1436,-0.1436,-0.1436,1.6384,1.6384,1.6384,1.6384,1.6384,1.6384,1.6384,1.6384,1.6384,1.6384,1.5836,1.4874,1.3485,1.229,1.1622,1.1622,1.2197,1.2606,1.2606,1.1948,1.1622,1.1622,1.2233,1.2395,1.1977,1.1992,1.2031,1.2031,1.1937,1.1683,1.1253,1.1253,1.1021,1.0698,1.0698,1.0387,0.9965,0.9744,0.9448,0.9003,0.8775,0.8703,0.8703,0.8703,0.8542,0.8156,0.7625,0.7238,0.685,0.6318,0.6167,0.6167,0.6167,0.6167,0.6167,0.6167,0.6086,0.6005,0.5854,0.5345,0.4844,0.4841,0.4605,0.4436,0.4385,0.4207,0.3901,0.3515,0.333,0.3226,0.3226,0.3117,0.3028,0.3028,0.2879,0.2721,0.2648,0.2178,0.1787,0.1727,0.1317,0.1018,0.1033,0.1035,0.1042,0.1057,0.1058,0.1065,0.1078,0.1079,0.0742,-0.0,-0.0,-0.0,-0.0,-0.0,-0.0,-0.0,-0.0,-0.0236,-0.0707,-0.0707,-0.055,-0.0314,-0.0314,-0.0318,-0.0408,-0.0667,-0.1024,-0.1396,-0.1425,-0.1436,-0.1436,-0.1436,-0.1436,-0.1436,1.6384,1.6384,1.6384,1.6384,1.6384,1.6384,1.6384,1.6019,1.572,1.572,1.4991,1.3786,1.1802,1.1831,1.2014,1.2014,1.2921,1.3492,1.3492,1.2562,1.2014,1.2014,1.2965,1.2746,1.1242,1.1545,1.17,1.1552,1.17,1.1403,1.0807,1.0807,1.0351,0.9593,0.9593,0.9372,0.8922,0.877,0.8623,0.8394,0.8169,0.8169,0.8169,0.8169,0.7936,0.7472,0.6861,0.6321,0.5857,0.5246,0.5018,0.5018,0.5018,0.5018,0.5018,0.5018,0.5318,0.5464,0.4854,0.4543,0.4307,0.4307,0.4094,0.3882,0.386,0.3595,0.342,0.3399,0.3322,0.3258,0.3258,0.3166,0.3091,0.3027,0.2837,0.2701,0.2638,0.2125,0.1713,0.1796,0.1298,0.1052,0.1074,0.1076,0.1077,0.1079,0.1012,0.1012,0.1079,0.095,0.0616,-0.0,-0.0,-0.0,-0.0,-0.0,-0.0,-0.0,-0.0,-0.0471,-0.1335,-0.1335,-0.11,-0.0786,-0.0786,-0.0799,-0.0904,-0.1254,-0.1369,-0.1406,-0.1427,-0.1436,-0.1436,-0.1436,-0.1436,-0.1436,1.6384,1.6384,1.6384,1.6384,1.6384,1.6384,1.6384,1.4883,1.3683,1.3683,1.2658,1.1809,1.1622,1.2636,1.3353,1.3353,1.344,1.3492,1.3492,1.3404,1.3353,1.3353,1.344,1.1761,0.7936,0.9291,0.9825,0.9306,0.9825,1.0045,0.997,0.997,0.982,0.9593,0.9593,0.8993,0.7936,0.7859,0.7326,0.649,0.649,0.6493,0.6493,0.6493,0.6331,0.6015,0.5789,0.5556,0.5321,0.5093,0.5018,0.5018,0.5018,0.5018,0.5018,0.5018,0.4935,0.4776,0.4701,0.4389,0.4157,0.4157,0.3995,0.3807,0.3644,0.3616,0.3583,0.3505,0.3418,0.3352,0.3352,0.3209,0.3027,0.2709,0.2513,0.2213,0.16,0.1512,0.1411,0.1097,0.1057,0.1073,0.1075,0.1076,0.1077,0.1079,0.0742,0.0674,0.1079,0.0484,0.0072,-0.0,-0.0,-0.0,-0.0,-0.0,-0.0,-0.0,-0.0,-0.0471,-0.1335,-0.1335,-0.1257,-0.1257,-0.1257,-0.129,-0.1261,-0.1347,-0.1381,-0.1432,-0.1435,-0.1436,-0.1436,-0.1436,-0.1436,-0.1436,1.4579,1.4579,1.4579,1.4579,1.4579,1.4579,1.4579,1.3983,1.3511,1.3511,1.1655,1.011,0.9722,1.195,1.3492,1.3492,1.3492,1.3492,1.3492,1.2077,1.1929,1.3419,1.3492,1.2519,1.0496,0.914,0.8313,0.8093,0.9291,0.9674,0.915,0.915,0.8689,0.7927,0.7927,0.7553,0.6872,0.6872,0.6644,0.6338,0.6338,0.6338,0.6338,0.6338,0.6103,0.5864,0.5637,0.5479,0.5243,0.5093,0.5018,0.5018,0.5018,0.5018,0.494,0.4859,0.4779,0.4698,0.4543,0.4387,0.4231,0.4157,0.4079,0.391,0.3797,0.3667,0.3616,0.3585,0.3507,0.3448,0.3448,0.3344,0.3191,0.2785,0.2616,0.2361,0.1949,0.1682,0.1492,0.1388,0.1202,0.1076,0.1076,0.1076,0.1077,0.1079,0.0742,0.0476,0.0415,0.0142,-0.0,-0.0,-0.0,-0.0,-0.0,-0.0,-0.0,-0.0,-0.0,-0.0157,-0.055,-0.1021,-0.1335,-0.1335,-0.1335,-0.1292,-0.1263,-0.1348,-0.1382,-0.1436,-0.1436,-0.1436,-0.1436,-0.1436,-0.1436,-0.1436,1.3511,1.3511,1.3511,1.3511,1.2826,1.2266,1.2266,1.2266,1.2266,1.2266,1.0661,0.9664,1.0021,1.1451,1.2378,1.2378,1.2378,1.2378,1.2378,1.0812,1.0663,1.2305,1.2378,1.1848,1.0795,0.8613,0.7484,0.7484,0.8613,0.8841,0.8318,0.8318,0.7859,0.7019,0.6942,0.6714,0.6416,0.6338,0.6338,0.6345,0.6407,0.6434,0.6359,0.6386,0.6317,0.6152,0.5839,0.5601,0.5442,0.5206,0.5129,0.5121,0.5083,0.5045,0.4937,0.4779,0.4701,0.4621,0.4462,0.4384,0.4384,0.4155,0.4079,0.3999,0.3841,0.3714,0.3669,0.3669,0.3599,0.354,0.354,0.3467,0.3256,0.2735,0.2581,0.2329,0.1947,0.1587,0.1381,0.1409,0.121,0.1076,0.1076,0.1076,0.1082,0.1097,0.0823,0.0487,-0.0,-0.0,-0.0,-0.0,-0.0,-0.0154,-0.0393,-0.0393,-0.0314,-0.0157,-0.0157,-0.0236,-0.0393,-0.1021,-0.1335,-0.1336,-0.1267,-0.1301,-0.1264,-0.1357,-0.1391,-0.1436,-0.1436,-0.1436,-0.1436,-0.1436,-0.1436,-0.1436,1.3442,1.3442,1.3442,1.3442,1.1281,0.9484,0.9484,0.9484,0.9484,0.9484,0.9484,1.0478,1.3147,1.1355,0.9922,0.9922,0.9922,0.9916,0.9846,0.9846,0.9846,0.9916,0.9922,0.916,0.7561,0.7484,0.7484,0.7484,0.7484,0.7484,0.7484,0.7484,0.7411,0.718,0.7019,0.6791,0.6718,0.6416,0.6264,0.6359,0.6481,0.6563,0.6573,0.6668,0.6698,0.6615,0.6117,0.6034,0.5951,0.5535,0.5368,0.5349,0.5224,0.511,0.494,0.4781,0.4701,0.4623,0.4462,0.4384,0.4384,0.4155,0.3921,0.3763,0.3763,0.3763,0.3763,0.3763,0.3691,0.3626,0.3626,0.3558,0.3254,0.2397,0.2315,0.2015,0.1215,0.1076,0.1076,0.1076,0.1076,0.1076,0.1076,0.1076,0.1093,0.1065,0.1068,0.0797,0.0076,-0.0,-0.0,-0.0,-0.0,-0.0393,-0.1257,-0.1335,-0.11,-0.0628,-0.0628,-0.0864,-0.1335,-0.1335,-0.1335,-0.1338,-0.1289,-0.132,-0.1266,-0.1378,-0.1408,-0.1436,-0.1436,-0.1436,-0.1436,-0.1436,-0.1436,-0.1436,1.0661,1.0661,1.0661,1.0661,1.004,0.9484,0.9484,0.9484,0.9484,0.9484,0.9484,0.9886,1.0885,1.0839,1.0519,0.9916,0.9922,0.8922,0.663,0.6475,0.7011,0.8152,0.9306,0.969,0.916,0.8093,0.7484,0.7484,0.7484,0.7484,0.7484,0.7484,0.7411,0.7184,0.7099,0.6949,0.6718,0.6416,0.638,0.6573,0.6634,0.6194,0.5409,0.5431,0.5574,0.5693,0.5199,0.5452,0.5951,0.5535,0.5368,0.5363,0.5325,0.521,0.4925,0.4681,0.4501,0.4325,0.4016,0.3997,0.3997,0.4079,0.4079,0.3999,0.3841,0.3763,0.3763,0.3763,0.3509,0.326,0.326,0.2968,0.2537,0.2003,0.1897,0.1714,0.1181,0.1108,0.1099,0.1078,0.1077,0.1089,0.1117,0.0821,0.0825,0.1082,0.0586,0.0223,-0.0,-0.0,-0.0,-0.0,-0.0,-0.0393,-0.1257,-0.1335,-0.1257,-0.11,-0.11,-0.1178,-0.1335,-0.1335,-0.1335,-0.1338,-0.1289,-0.132,-0.1266,-0.1378,-0.1408,-0.1436,-0.1436,-0.1436,-0.1436,-0.1436,-0.1436,-0.1436,0.9484,0.9484,0.9484,0.9484,0.9484,0.9484,0.9484,0.9484,0.9484,0.9484,0.8762,0.8781,1.0226,1.0513,1.0438,0.9922,0.9922,0.9079,0.7088,0.5709,0.5783,0.7464,0.8232,0.8998,0.9916,0.8932,0.8169,0.7484,0.7484,0.7484,0.7484,0.7173,0.7134,0.7442,0.6734,0.6476,0.6488,0.6003,0.6141,0.679,0.6017,0.5355,0.4613,0.4353,0.4676,0.5245,0.4825,0.5256,0.6031,0.5604,0.5483,0.5439,0.5355,0.5157,0.4944,0.4543,0.4335,0.4133,0.3912,0.3791,0.3841,0.3921,0.3999,0.3921,0.3841,0.3763,0.3763,0.3763,0.3608,0.3295,0.3141,0.2869,0.245,0.1897,0.1795,0.1615,0.1215,0.1139,0.1132,0.1114,0.1112,0.112,0.1066,0.0913,0.0711,0.0673,0.0228,-0.0,-0.0,-0.0,-0.0,-0.0,-0.0,-0.0236,-0.0786,-0.11,-0.1335,-0.1335,-0.1335,-0.1335,-0.1335,-0.1335,-0.1264,-0.1277,-0.1307,-0.1337,-0.1367,-0.1396,-0.1418,-0.1436,-0.1436,-0.1436,-0.1436,-0.1436,-0.1436,-0.1436,0.9612,0.9414,0.9285,0.9548,0.9414,0.9221,0.9157,0.9157,0.9157,0.9157,0.7466,0.7403,1.0351,1.0288,0.9841,0.9458,0.9463,0.9463,0.9463,0.663,0.5709,0.7234,0.6777,0.7468,0.9382,0.9765,0.9084,0.7484,0.7484,0.7484,0.7484,0.6707,0.6798,0.7525,0.617,0.5723,0.6078,0.5147,0.5405,0.6425,0.4732,0.4022,0.3931,0.3398,0.3937,0.4924,0.4748,0.529,0.6008,0.5746,0.5579,0.548,0.5305,0.5064,0.4732,0.4296,0.4064,0.3912,0.3739,0.3591,0.3606,0.3606,0.3606,0.3684,0.3763,0.3763,0.3763,0.3763,0.3763,0.3528,0.3141,0.2982,0.265,0.1908,0.1749,0.1658,0.1249,0.117,0.117,0.1096,0.1094,0.1016,0.1006,0.1019,0.0748,0.0078,-0.0,-0.0,-0.0,-0.0,-0.0,-0.0,-0.0,-0.0,-0.0079,-0.0864,-0.1257,-0.1335,-0.1335,-0.1335,-0.1335,-0.1335,-0.1274,-0.1304,-0.1335,-0.1364,-0.1393,-0.1423,-0.1436,-0.1436,-0.1436,-0.1436,-0.1436,-0.1436,-0.1436,-0.1436,1.0371,0.8554,0.7782,0.9983,0.856,0.6872,0.6346,0.6276,0.6276,0.6276,0.6321,0.6567,0.7249,0.9448,0.9518,0.6321,0.6093,0.6093,0.6093,0.5401,0.5171,0.5553,0.5401,0.5556,0.6015,0.8618,0.9084,0.7484,0.7484,0.7484,0.7484,0.7326,0.6738,0.5801,0.5791,0.5466,0.4718,0.3776,0.3027,0.2596,0.215,0.206,0.1972,0.1882,0.2509,0.3403,0.3758,0.4474,0.5282,0.5565,0.5644,0.5625,0.5625,0.4532,0.3346,0.3203,0.2631,0.1911,0.1794,0.1835,0.188,0.188,0.2352,0.2979,0.3606,0.3763,0.3763,0.3763,0.3294,0.2744,0.2668,0.2119,0.1647,0.1405,0.1403,0.1391,0.1206,0.1202,0.1199,0.1192,0.0882,0.0517,0.023,0.0232,0.0155,-0.0,-0.0,-0.0,-0.0,-0.0,-0.0,-0.0,-0.0,-0.0314,-0.1021,-0.0864,-0.0943,-0.1335,-0.1335,-0.1335,-0.1335,-0.1335,-0.1274,-0.1304,-0.1335,-0.1364,-0.1393,-0.1423,-0.1436,-0.1436,-0.1436,-0.1436,-0.1436,-0.1436,-0.1436,-0.1436,0.8619,0.7391,0.6872,0.8361,0.7391,0.6156,0.5495,0.5428,0.5535,0.5823,0.6139,0.6338,0.6338,0.7778,0.7774,0.5249,0.5018,0.5018,0.5018,0.5018,0.5018,0.5018,0.5018,0.5018,0.5018,0.6703,0.7169,0.6328,0.5935,0.6163,0.6861,0.6089,0.5665,0.555,0.5218,0.5059,0.4901,0.3471,0.251,0.1884,0.1525,0.1436,0.1436,0.1436,0.1704,0.224,0.2418,0.3314,0.43,0.4393,0.4397,0.4399,0.4399,0.3678,0.2771,0.1943,0.1388,0.0935,0.1163,0.1217,0.1272,0.1257,0.1646,0.2038,0.2507,0.3057,0.3294,0.2585,0.2195,0.2038,0.1803,0.1412,0.102,0.0864,0.11,0.1173,0.0695,0.1002,0.1232,0.1227,0.1064,0.0687,0.0078,-0.0,-0.0,-0.0,-0.0,-0.0,-0.0,-0.0,-0.0157,-0.0628,-0.0628,-0.0707,-0.0943,-0.0943,-0.1021,-0.1335,-0.1335,-0.1335,-0.1335,-0.1335,-0.1281,-0.1325,-0.1341,-0.1372,-0.1413,-0.1429,-0.1436,-0.1436,-0.1436,-0.1436,-0.1436,-0.1436,-0.1436,-0.1436,0.642,0.642,0.642,0.642,0.642,0.6222,0.5627,0.5582,0.5765,0.6273,0.6338,0.6338,0.6338,0.6338,0.6025,0.5251,0.5096,0.5018,0.5018,0.5018,0.5018,0.5018,0.5018,0.5026,0.5045,0.5048,0.5056,0.5078,0.433,0.4656,0.5839,0.4492,0.4503,0.5597,0.4556,0.464,0.5364,0.376,0.278,0.2154,0.1705,0.1525,0.1436,0.1436,0.1436,0.1436,0.1524,0.242,0.3497,0.3408,0.2959,0.2419,0.2419,0.2419,0.215,0.0806,0.0265,0.0259,0.0676,0.0827,0.0807,0.0867,0.094,0.1019,0.0862,0.1803,0.2353,0.1175,0.1097,0.1175,0.0784,0.0705,0.0549,0.0236,0.0628,0.0707,-0.0078,0.055,0.1021,0.0942,0.1178,0.0943,0.0079,-0.0,-0.0,-0.0,-0.0,-0.0,-0.0,-0.0,-0.0314,-0.1021,-0.1257,-0.11,-0.0707,-0.11,-0.1335,-0.1335,-0.1335,-0.1335,-0.1336,-0.1262,-0.1295,-0.1264,-0.1353,-0.1386,-0.1436,-0.1436,-0.1436,-0.1436,-0.1436,-0.1436,-0.1436,-0.1436,-0.1436,-0.1436,0.642,0.642,0.642,0.642,0.642,0.6354,0.6284,0.6233,0.6246,0.6328,0.6338,0.6338,0.6338,0.6338,0.6261,0.6106,0.5404,0.5018,0.5018,0.5018,0.5018,0.5018,0.5018,0.5064,0.5162,0.5165,0.5216,0.5322,0.5036,0.4737,0.4575,0.4314,0.4326,0.4528,0.436,0.4372,0.4476,0.4208,0.3136,0.1525,0.1974,0.1794,0.1436,0.1436,0.1436,0.1524,0.2151,0.2598,0.3227,0.477,0.3147,0.0359,0.0359,0.0359,0.0359,0.009,-0.053,-0.1126,-0.1016,-0.0994,-0.0971,-0.0948,-0.0392,-0.0078,-0.102,0.0078,0.1175,0.094,0.0548,0.0235,0.0157,-0.0157,-0.0393,-0.0471,-0.0393,-0.0549,-0.1019,-0.0392,-0.0,-0.047,0.0549,0.0943,0.0079,-0.0,-0.0,-0.0,-0.0,-0.0,-0.0,-0.0,-0.0079,-0.0157,-0.0943,-0.1257,-0.1178,-0.1257,-0.1335,-0.1335,-0.1335,-0.1335,-0.1337,-0.1284,-0.1315,-0.1265,-0.1373,-0.1403,-0.1436,-0.1436,-0.1436,-0.1436,-0.1436,-0.1436,-0.1436,-0.1436,-0.1436,-0.1436,0.642,0.642,0.642,0.642,0.642,0.6554,0.6952,0.6982,0.6795,0.6338,0.6338,0.6338,0.6338,0.6338,0.6338,0.6338,0.5948,0.5485,0.5018,0.509,0.509,0.5018,0.5018,0.504,0.5091,0.5079,0.5173,0.5385,0.5271,0.5154,0.4925,0.4517,0.43,0.43,0.43,0.43,0.4297,0.3942,0.3226,0.242,0.1973,0.1615,0.1436,0.1436,0.1436,0.1436,0.1793,0.1973,0.2153,0.2425,0.1438,-0.0,-0.0,-0.0359,-0.0718,-0.0448,-0.0891,-0.141,-0.138,-0.135,-0.1321,-0.129,-0.1031,-0.0863,-0.1335,-0.1021,-0.0706,-0.0784,-0.0862,-0.0862,-0.0862,-0.1019,-0.1176,-0.1176,-0.0864,-0.0942,-0.1803,-0.1804,-0.1333,-0.047,0.0157,0.0393,-0.0,-0.0,-0.0,-0.0,-0.0,-0.0,-0.0,-0.0,-0.0,-0.0,-0.0628,-0.1021,-0.1335,-0.1335,-0.1335,-0.1335,-0.1335,-0.1266,-0.1283,-0.1296,-0.1328,-0.1372,-0.1384,-0.1407,-0.1436,-0.1436,-0.1436,-0.1436,-0.1436,-0.1436,-0.1436,-0.1436,-0.1436,-0.1436]},{"header":{"parameterUnit":"m.s-1","parameterCategory":1,"la1":30.6,"la2":28.766,"lo1":-90.7593,"lo2":-88.6598,"dy":0.0162,"dx":0.0183,"nx":116,"ny":114,"refTime":"2024-05-16T06:00:00:Z","depth":0,"parameterNumber":3,"parameterNumberName":"V-component_of_WINDS"},"data":[0.0,0.0,0.0,0.0,0.0,0.0,0.0,0.0,0.0,0.0,0.0,0.0,0.0,0.0,0.0,0.0,0.0,0.0,0.0,0.0,0.0,0.0,0.0,0.0,0.0,0.0,0.0,0.0,0.0,0.0,0.0,0.0,0.0,0.0,0.0,0.0,0.0,0.0,0.0,0.0,0.0,0.0,0.0,0.0,0.0,0.0,0.0,0.0,0.0,0.0,0.0,0.0,0.0,0.0,0.0,0.0,0.0,0.0,0.0,0.0,0.0,0.0,0.0,0.0,0.0,0.0,0.0,0.0,0.0,0.0,0.0,0.0,0.0,0.0,0.0,0.0,0.0,0.0,0.0,0.0,0.0,0.0,0.0,0.0,0.0,0.0,0.0,0.0,0.0,0.0,0.0,0.0,0.0,0.0,0.0,0.0,0.0,0.0,0.0,0.0,0.0,0.0,0.0,0.0,0.0,0.0,0.0,0.0,0.0,0.0,0.0,0.0,0.0,0.0,0.0,0.0,0.0,0.0,0.0,0.0,0.0,0.0,0.0,0.0,0.0,0.0,0.0,0.0,0.0,0.0,0.0,0.0,0.0,0.0,0.0,0.0,0.0,0.0,0.0,0.0,0.0,0.0,0.0,0.0,0.0,0.0,0.0,0.0,0.0,0.0,0.0,0.0,0.0,0.0,0.0,0.0,0.0,0.0,0.0,0.0,0.0,0.0,0.0,0.0,0.0,0.0,0.0,0.0,0.0,0.0,0.0,0.0,0.0,0.0,0.0,0.0,0.0,0.0,0.0,0.0,0.0,0.0,0.0,0.0,0.0,0.0,0.0,0.0,0.0,0.0,0.0,0.0,0.0,0.0,0.0,0.0,0.0,0.0,0.0,0.0,0.0,0.0,0.0,0.0,0.0,0.0,0.0,0.0,0.0,0.0,0.0,0.0,0.0,0.0,0.0,0.0,0.0,0.0,0.0,0.0,0.0,0.0,0.0,0.0,0.0,0.0,0.0,0.0,0.0,0.0,0.0,0.0,0.0,0.0,0.0,0.0,0.0,0.0,0.0,0.0,0.0,0.0,0.0,0.0,0.0,0.0,0.0,0.0,0.0,0.0,0.0,0.0,0.0,0.0,0.0,0.0,0.0,0.0,0.0,0.0,0.0,0.0,0.0,0.0,0.0,0.0,0.0,0.0,0.0,0.0,0.0,0.0,0.0,0.0,0.0,0.0,0.0,0.0,0.0,0.0,0.0,0.0,0.0,0.0,0.0,0.0,0.0,0.0,0.0,0.0,0.0,0.0,0.0,0.0,0.0,0.0,0.0,0.0,0.0,0.0,0.0,0.0,0.0,0.0,0.0,0.0,0.0,0.0,0.0,0.0,0.0,0.0,0.0,0.0,0.0,0.0,0.0,0.0,0.0,0.0,0.0,0.0,0.0,0.0,0.0,0.0,0.0,0.0,0.0,0.0,0.0,0.0,0.0,0.0,0.0,0.0,0.0,0.0,0.0,0.0,0.0,0.0,0.0,0.0,0.0,0.0,0.0,0.0,0.0,0.0,0.0,0.0,0.0,0.0,0.0,0.0,0.0,0.0,0.0,0.0,0.0,0.0,0.0,0.0,0.0,0.0,0.0,0.0,0.0,0.0,0.0,0.0,0.0,0.0,0.0,0.0,0.0,0.0,0.0,0.0,0.0,0.0,0.0,0.0,0.0,0.0,0.0,0.0,0.0,0.0,0.0,0.0,0.0,0.0,0.0,0.0,0.0,0.0,0.0,0.0,0.0,0.0,0.0,0.0,0.0,0.0,0.0,0.0,0.0,0.0,0.0,0.0,0.0,0.0,0.0,0.0,0.0,0.0,0.0,0.0,0.0,0.0,0.0,0.0,0.0,0.0,0.0,0.0,0.0,0.0,0.0,0.0,0.0,0.0,0.0,0.0,0.0,0.0,0.0,0.0,0.0,0.0,0.0,0.0,0.0,0.0,0.0,0.0,0.0,0.0,0.0,0.0,0.0,0.0,0.0,0.0,0.0,0.0,0.0,0.0,0.0,0.0,0.0,0.0,0.0,0.0,0.0,0.0,0.0,0.0,0.0,0.0,0.0,0.0,0.0,0.0,0.0,0.0,0.0,0.0,0.0,0.0,0.0,0.0,0.0,0.0,0.0,0.0,0.0,0.0,0.0,0.0,0.0,0.0,0.0,0.0,0.0,0.0,0.0,0.0,0.0,0.0,0.0,0.0,0.0,0.0,0.0,0.0,0.0,0.0,0.0,0.0,0.0,0.0,0.0,0.0,0.0,0.0,0.0,0.0,0.0,0.0,0.0,0.0,0.0,0.0,0.0,0.0,0.0,0.0,0.0,0.0,0.0,0.0,0.0,0.0,0.0,0.0,0.0,0.0,0.0,0.0,0.0,0.0,0.0,0.0,0.0,0.0,0.0,0.0,0.0,0.0,0.0,0.0,0.0,0.0,0.0,0.0,0.0,0.0,0.0,0.0,0.0,0.0,0.0,0.0,0.0,0.0,0.0,0.0,0.0,0.0,0.0,0.0,0.0,0.0,0.0,0.0,0.0,0.0,0.0,0.0,0.0,0.0,0.0,0.0,0.0,0.0,0.0,0.0,0.0,0.0,0.0,0.0,0.0,0.0,0.0,0.0,0.0,0.0,0.0,0.0,0.0,0.0,0.0,0.0,0.0,0.0,0.0,0.0,0.0,0.0,0.0,0.0,0.0,0.0,0.0,0.0,0.0,0.0,0.0,0.0,0.0,0.0,0.0,0.0,0.0,0.0,0.0,0.0,0.0,0.0,0.0,0.0,0.0,0.0,0.0,0.0,0.0,0.0,0.0,0.0,0.0,0.0,0.0,0.0,0.0,0.0,0.0,0.0,0.0,0.0,0.0,0.0,0.0,0.0,0.0,0.0,0.0,0.0,0.0,0.0,0.0,0.0,0.0,0.0,0.0,0.0,0.0,0.0,0.0,0.0,0.0,0.0,0.0,0.0,0.0,0.0,0.0,0.0,0.0,0.0,0.0,0.0,0.0,0.0,0.0,0.0,0.0,0.0,0.0,0.0,0.0,0.0,0.0,0.0,0.0,0.0,0.0,0.0,0.0,0.0,0.0,0.0,0.0,0.0,0.0,0.0,0.0,0.0,0.0,0.0,0.0,0.0,0.0,0.0,0.0,0.0,0.0,0.0,0.0,0.0,0.0,0.0,0.0,0.0,0.0,0.0,0.0,0.0,0.0,0.0,0.0,0.0,0.0,0.0,0.0,0.0,0.0,0.0,0.0,0.0,0.0,0.0,0.0,0.0,0.0,0.0,0.0,0.0,0.0,0.0,0.0,0.0,0.0,0.0,0.0,0.0,0.0,0.0,0.0,0.0,0.0,0.0,0.0,0.0,0.0,0.0,0.0,0.0,0.0,0.0,0.0,0.0,0.0,0.0,0.0,0.0,0.0,0.0,0.0,0.0,0.0,0.0,0.0,0.0,0.0,0.0,0.0,0.0,0.0,0.0,0.0,0.0,0.0,0.0,0.0,0.0,0.0,0.0,0.0,0.0,0.0,0.0,0.0,0.0,0.0,0.0,0.0,0.0,0.0,0.0,0.0,0.0,0.0,0.0,0.0,0.0,0.0,0.0,0.0,0.0,0.0,0.0,0.0,0.0,0.0,0.0,0.0,0.0,0.0,0.0,0.0,0.0,0.0,0.0,0.0,0.0,0.0,0.0,0.0,0.0,0.0,0.0,0.0,0.0,0.0,0.0,0.0,0.0,0.0,0.0,0.0,0.0,0.0,0.0,0.0,0.0,0.0,0.0,0.0,0.0,0.0,0.0,0.0,0.0,0.0,0.0,0.0,0.0,0.0,0.0,0.0,0.0,0.0,0.0,0.0,0.0,0.0,0.0,0.0,0.0,0.0,0.0,0.0,0.0,0.0,0.0,0.0,0.0,0.0,0.0,0.0,0.0,0.0,0.0,0.0,0.0,0.0,0.0,0.0,0.0,0.0,0.0,0.0,0.0,0.0,0.0,0.0,0.0,0.0,0.0,0.0,0.0,0.0,0.0,0.0,0.0,0.0,0.0,0.0,0.0,0.0,0.0,0.0,0.0,0.0,0.0,0.0,0.0,0.0,0.0,0.0,0.0,0.0,0.0,0.0,0.0,0.0,0.0,0.0,0.0,0.0,0.0,0.0,0.0,0.0,0.0,0.0,0.0,0.0,0.0,0.0,0.0,0.0,0.0,0.0,0.0,0.0,0.0,0.0,0.0,0.0,0.0,0.0,0.0,0.0,0.0,0.0,0.0,0.0,0.0,0.0,0.0,0.0,0.0,0.0,0.0,0.0,0.0,0.0,0.0,0.0,0.0,0.0,0.0,0.0,0.0,0.0,0.0,0.0,0.0,0.0,0.0,0.0,0.0,0.0,0.0,0.0,0.0,0.0,0.0,0.0,0.0,0.0,0.0,0.0,0.0,0.0,0.0,0.0,0.0,0.0,0.0,0.0,0.0,0.0,0.0,0.0,0.0,0.0,0.0,0.0,0.0,0.0,0.0,0.0,0.0,0.0,0.0,0.0,0.0,0.0,0.0,0.0,0.0,0.0,0.0,0.0,0.0,0.0,0.0,0.0,0.0,0.0,0.0,0.0,0.0,0.0,0.0,0.0,0.0,0.0,0.0,0.0,0.0,0.0,0.0,0.0,0.0,0.0,0.0,0.0,0.0,0.0,0.0,0.0,0.0,0.0,0.0,0.0,0.0,0.0,0.0,0.0,0.0,0.0,0.0,0.0,0.0,0.0,0.0,0.0,0.0,0.0,0.0,0.0,0.0,0.0,0.0,0.0,0.0,0.0,0.0,0.0,0.0,0.0,0.0,0.0,0.0,0.0,0.0,0.0,0.0,0.0,0.0,0.0,0.0,0.0,0.0,0.0,0.0,0.0,0.0,0.0,0.0,0.0,0.0,0.0,0.0,0.0,0.0,0.0,0.0,0.0,0.0,0.0,0.0,0.0,0.0,0.0,0.0,0.0,0.0,0.0,0.0,0.0,0.0,0.0,0.0,0.0,0.0,0.0,0.0,0.0,0.0,0.0,0.0,0.0,0.0,0.0,0.0,0.0,0.0,0.0,0.0,0.0,0.0,0.0,0.0,0.0,0.0,0.0,0.0,0.0,0.0,0.0,0.0,0.0,0.0,0.0,0.0,0.0,0.0,0.0,0.0,0.0,0.0,0.0,0.0,0.0,0.0,0.0,0.0,0.0,0.0,0.0,0.0,0.0,0.0,0.0,0.0,0.0,0.0,0.0,0.0,0.0,0.0,0.0,0.0,0.0,0.0,0.0,0.0,0.0,0.0,0.0,0.0,0.0,0.0,0.0,0.0,0.0,0.0,0.0,0.0,0.0,0.0,0.0,0.0,0.0,0.0,0.0,0.0,0.0,0.0,0.0,0.0,0.0,0.0,0.0,0.0,0.0,0.0,0.0,0.0,0.0,0.0,0.0,0.0,0.0,0.0,0.0,0.0,0.0,0.0,0.0,0.0,0.0,0.0,0.0,0.0,0.0,0.0,0.0,0.0,0.0,0.0,0.0,0.0,0.0,0.0,0.0,0.0,0.0,0.0,0.0,0.0,0.0,0.0,0.0,0.0,0.0,0.0,0.0,0.0,0.0,0.0,0.0,0.0,0.0,0.0,0.0,0.0,0.0,0.0,0.0,0.0,0.0,0.0,0.0,0.0,0.0,0.0,0.0,0.0,0.0,0.0,0.0,0.0,0.0,0.0,0.0,0.0,0.0,0.0,0.0,0.0,0.0,0.0,0.0,0.0,0.0,0.0,0.0,0.0,0.0,0.0,0.0,0.0,0.0,0.0,0.0,0.0,0.0,0.0,0.0,0.0,0.0,0.0,0.0,0.0,0.0,0.0,0.0,0.0,0.0,0.0,0.0,0.0,0.0,0.0,0.0,0.0,0.0,0.0,0.0,0.0,0.0,0.0,0.0,0.0,0.0,0.0,0.0,0.0,0.0,0.0,0.0,0.0,0.0,0.0,0.0,0.0,0.0,0.0,0.0,0.0,0.0,0.0,0.0,0.0,0.0,0.0,0.0,0.0,0.0,0.0,0.0,0.0,-1.1872,-1.0916,0.0,0.0,0.0,0.0,0.0,0.0,0.0,0.0,0.0,0.0,0.0,0.0,0.0,0.0,0.0,0.0,0.0,0.0,0.0,0.0,0.0,0.0,0.0,-0.3911,-0.3911,-0.3911,-0.3911,-0.3911,-0.3911,0.0,0.0,0.0,0.0,0.0,-0.3911,-0.3911,-0.3964,-0.4097,-0.4149,-0.4471,-0.5014,-0.4811,-0.4467,-0.3988,0.0,0.0,0.0,0.0,0.0,0.0,0.0,0.0,0.0,0.0,0.0,0.0,0.0,0.0,0.0,0.0,0.0,0.0,0.0,0.0,0.0,0.0,0.0,0.0,0.0,0.0,0.0,0.0,0.0,0.0,0.0,0.0,0.0,0.0,0.0,0.0,0.0,0.0,0.0,0.0,0.0,0.0,0.0,0.0,0.0,0.0,0.0,0.0,0.0,0.0,0.0,0.0,0.0,0.0,0.0,0.0,0.0,0.0,0.0,0.0,0.0,0.0,0.0,0.0,0.0,0.0,0.0,0.0,0.0,0.0,-1.4084,-1.3215,0.0,0.0,0.0,0.0,0.0,0.0,0.0,0.0,0.0,0.0,0.0,0.0,0.0,0.0,0.0,0.0,0.0,0.0,0.0,0.0,0.0,-0.352,-0.3874,-0.3911,-0.3911,-0.3911,-0.3911,-0.3911,-0.3911,-0.3911,0.0,0.0,0.0,-0.3911,-0.3911,-0.3942,-0.4105,-0.4436,-0.4796,-0.525,-0.583,-0.5812,-0.5324,-0.447,-0.4166,0.0,0.0,0.0,0.0,0.0,0.0,0.0,0.0,0.0,0.0,0.0,0.0,0.0,0.0,0.0,0.0,0.0,0.0,0.0,0.0,0.0,0.0,0.0,0.0,0.0,0.0,0.0,0.0,0.0,0.0,0.0,0.0,0.0,0.0,0.0,0.0,0.0,0.0,0.0,0.0,0.0,0.0,0.0,0.0,0.0,0.0,0.0,0.0,0.0,0.0,0.0,0.0,0.0,0.0,0.0,0.0,0.0,0.0,0.0,0.0,0.0,0.0,0.0,-1.9553,-1.8279,-1.7768,-1.8252,-1.8702,-1.892,-1.6658,-1.612,-1.6667,-1.5017,0.0,0.0,0.0,0.0,0.0,0.0,0.0,0.0,0.0,0.0,0.0,0.0,0.0,0.0,0.0,0.0,0.0,0.0,0.0,-0.352,-0.3874,-0.3911,-0.3911,-0.3911,-0.3911,-0.3911,-0.3911,-0.3911,0.0,0.0,-0.3911,-0.3911,-0.3911,-0.4134,-0.4474,-0.4925,-0.6199,-0.6815,-0.6732,-0.6611,-0.6341,-0.5981,-0.5246,-0.5221,-0.5626,0.0,0.0,0.0,0.0,0.0,0.0,0.0,0.0,0.0,0.0,0.0,0.0,0.0,0.0,0.0,0.0,0.0,0.0,0.0,0.0,0.0,0.0,0.0,0.0,0.0,0.0,0.0,0.0,0.0,0.0,0.0,0.0,0.0,0.0,0.0,0.0,0.0,0.0,0.0,0.0,0.0,-1.1549,-1.1285,0.0,0.0,0.0,0.0,0.0,0.0,0.0,0.0,0.0,0.0,0.0,0.0,0.0,-1.2646,-0.9491,-1.7412,-2.1515,-2.1695,-2.1356,-2.1138,-2.1093,-2.1129,-2.1525,-2.2088,-2.1744,0.0,-1.8365,-1.7851,0.0,0.0,0.0,0.0,0.0,0.0,0.0,0.0,0.0,0.0,0.0,0.0,0.0,0.0,0.0,0.0,0.0,0.0,0.0,0.0,0.0,-0.4134,-0.4208,-0.4392,-0.4649,-0.4597,-0.4156,-0.4364,-0.4328,-0.3926,-0.3911,-0.3911,-0.3911,-0.4416,-0.5196,-0.623,-0.7047,-0.7408,-0.7414,-0.7132,-0.692,-0.6805,-0.6101,-0.5567,-0.5209,-0.4558,0.0,0.0,0.0,0.0,0.0,0.0,0.0,0.0,0.0,0.0,0.0,0.0,0.0,0.0,0.0,0.0,0.0,0.0,0.0,0.0,0.0,0.0,0.0,0.0,0.0,0.0,0.0,0.0,0.0,0.0,0.0,0.0,0.0,0.0,0.0,0.0,0.0,0.0,0.0,-1.0467,-1.1643,-1.1966,-1.2148,-1.1832,0.0,0.0,0.0,0.0,0.0,0.0,0.0,0.0,0.0,-1.644,-1.6061,-1.6426,-1.7598,-2.1055,-2.2772,-2.2757,-2.2039,-2.2069,-2.2787,-2.3295,-2.3728,-2.4028,-2.4223,-2.3445,-2.1909,-2.0504,-1.924,-1.8136,0.0,0.0,0.0,0.0,-1.7826,-1.7859,0.0,0.0,0.0,0.0,0.0,0.0,0.0,0.0,0.0,0.0,0.0,0.0,-0.4295,-0.4446,-0.4668,-0.4962,-0.5262,-0.5232,-0.4737,-0.4773,-0.4619,-0.4156,-0.3979,-0.3927,-0.4008,-0.5015,-0.612,-0.7288,-0.7802,-0.8054,-0.8042,-0.7544,-0.7333,-0.7388,-0.6607,-0.5903,-0.5307,-0.4774,-0.4443,0.0,0.0,0.0,0.0,0.0,0.0,0.0,0.0,0.0,0.0,0.0,0.0,0.0,0.0,0.0,0.0,0.0,0.0,0.0,0.0,0.0,0.0,0.0,0.0,0.0,0.0,0.0,0.0,0.0,0.0,0.0,0.0,0.0,0.0,0.0,0.0,0.0,0.0,-1.1468,-1.2528,-1.2957,-1.344,-1.3253,0.0,0.0,0.0,0.0,0.0,0.0,-1.7019,-1.7588,-1.8539,-2.0143,-1.8759,-1.9768,-2.3565,-2.3595,-2.3939,-2.4597,-2.331,-2.3191,-2.4148,-2.4972,-2.5347,-2.5362,-2.5689,-2.5585,-2.494,-2.2904,-2.1574,-2.0767,-2.0007,-1.9741,-1.9838,-2.0556,-2.0625,-2.0528,0.0,0.0,0.0,0.0,0.0,0.0,0.0,0.0,0.0,0.0,0.0,-0.4572,-0.4317,-0.4873,-0.531,-0.5459,-0.5368,-0.5465,-0.5793,-0.4896,-0.447,-0.4748,-0.42,-0.4009,-0.4264,-0.6051,-0.7198,-0.757,-0.8658,-0.9038,-0.8658,-0.7976,-0.7682,-0.7629,-0.6627,-0.6533,-0.6972,-0.5572,-0.5255,-0.5578,0.0,0.0,0.0,0.0,0.0,0.0,0.0,0.0,0.0,0.0,0.0,0.0,0.0,0.0,0.0,0.0,0.0,0.0,0.0,0.0,0.0,0.0,0.0,0.0,0.0,0.0,0.0,0.0,0.0,0.0,0.0,0.0,0.0,0.0,0.0,0.0,0.0,0.0,0.0,-1.5026,-1.5868,0.0,0.0,0.0,0.0,-1.6573,-1.7149,-1.8181,-1.9919,-2.044,-2.1505,-2.3313,-2.2118,-2.2133,-2.3595,-2.3595,-2.4866,-2.74,-2.6033,-2.545,-2.5525,-2.5989,-2.6246,-2.6261,-2.6437,-2.6512,-2.6393,-2.4985,-2.3807,-2.2833,-2.2804,-2.279,-2.279,-2.2833,-2.3083,-2.3458,0.0,0.0,0.0,0.0,0.0,-0.4248,-0.4374,-0.4455,-0.4435,-0.4228,-0.4496,-0.4766,-0.4929,-0.5341,-0.5835,-0.6349,-0.6616,-0.6643,-0.6372,-0.5785,-0.5483,-0.5502,-0.4859,-0.5085,-0.6385,-0.716,-0.7947,-0.868,-0.8832,-0.8646,-0.8053,-0.7522,-0.7085,-0.6712,-0.6337,-0.6347,-0.6496,-0.5702,-0.534,-0.5224,-0.4617,-0.4411,0.0,0.0,0.0,0.0,0.0,0.0,0.0,0.0,0.0,0.0,0.0,0.0,0.0,0.0,0.0,0.0,0.0,0.0,0.0,0.0,0.0,0.0,0.0,0.0,0.0,0.0,0.0,0.0,0.0,0.0,0.0,0.0,0.0,0.0,0.0,0.0,0.0,-1.6291,-1.6748,0.0,-1.6266,-1.6829,-1.757,-1.844,-1.9401,-2.0514,-2.1873,-2.2453,-2.3298,-2.4391,-2.4268,-2.4433,-2.4881,-2.5734,-2.6632,-2.756,-2.7096,-2.6871,-2.6871,-2.7085,-2.716,-2.716,-2.7235,-2.7215,-2.7186,-2.6722,-2.5789,-2.4652,-2.4652,-2.4652,-2.4652,-2.4652,-2.4759,-2.4896,0.0,0.0,0.0,0.0,-0.4301,-0.4362,-0.4575,-0.4595,-0.4567,-0.4486,-0.4774,-0.5127,-0.5429,-0.5941,-0.6508,-0.7085,-0.7509,-0.7567,-0.7181,-0.6713,-0.6332,-0.6075,-0.5613,-0.6095,-0.7625,-0.8085,-0.8591,-0.9252,-0.9105,-0.8584,-0.7771,-0.7402,-0.6923,-0.6386,-0.6228,-0.6178,-0.6159,-0.5935,-0.5618,-0.5264,-0.5008,-0.5005,-0.5098,0.0,0.0,0.0,0.0,0.0,0.0,0.0,0.0,0.0,0.0,0.0,0.0,0.0,0.0,0.0,0.0,0.0,0.0,0.0,0.0,0.0,0.0,0.0,0.0,0.0,0.0,0.0,0.0,0.0,0.0,0.0,0.0,0.0,0.0,0.0,-1.704,-1.7554,-1.7839,-1.7993,-1.7947,-1.8973,-1.995,-2.0752,-2.1772,-2.2785,-2.3743,-2.4197,-2.4644,-2.5174,-2.5616,-2.5974,-2.6273,-2.7141,-2.7625,-2.7625,-2.7625,-2.7865,-2.8248,-2.8135,-2.8173,-2.8457,-2.8308,-2.8248,-2.8248,-2.8248,-2.7739,-2.6901,-2.6452,-2.6273,-2.6273,-2.6273,-2.6273,-2.6273,0.0,0.0,0.0,-0.4426,-0.4507,-0.4575,-0.4764,-0.4793,-0.4847,-0.4964,-0.5341,-0.5663,-0.5789,-0.6651,-0.7307,-0.7579,-0.7841,-0.8062,-0.8185,-0.748,-0.6892,-0.6431,-0.6526,-0.6985,-0.7835,-0.8826,-0.9226,-0.9125,-0.9416,-0.9033,-0.7871,-0.7622,-0.7192,-0.6647,-0.6337,-0.6178,-0.6178,-0.6178,-0.6109,-0.5883,-0.5472,-0.5676,-0.6149,0.0,0.0,0.0,0.0,0.0,0.0,0.0,0.0,0.0,0.0,0.0,0.0,0.0,0.0,0.0,0.0,0.0,0.0,0.0,0.0,0.0,0.0,0.0,0.0,0.0,0.0,0.0,0.0,0.0,0.0,0.0,0.0,0.0,-1.6927,-1.7842,-1.8637,-1.8864,-1.9364,-1.9615,-1.9474,-2.064,-2.2045,-2.3523,-2.4253,-2.4925,-2.5553,-2.5612,-2.5642,-2.5734,-2.6115,-2.6752,-2.7655,-2.7685,-2.7685,-2.7685,-2.7685,-2.8323,-2.9579,-2.9131,-2.9385,-3.0193,-2.9759,-2.9579,-2.9579,-2.9579,-2.9579,-2.9445,-2.8195,-2.7685,-2.7685,-2.7655,-2.764,-2.7625,0.0,0.0,-0.4199,-0.4455,-0.4507,-0.4575,-0.4764,-0.4793,-0.4785,-0.4777,-0.527,-0.5754,-0.6105,-0.6856,-0.7514,-0.7868,-0.7827,-0.7952,-0.8327,-0.7094,-0.6512,-0.6808,-0.7656,-0.8466,-0.922,-0.9455,-0.9562,-0.9438,-0.9474,-0.883,-0.7622,-0.7515,-0.709,-0.6337,-0.6228,-0.6178,-0.6178,-0.6178,-0.614,-0.6119,-0.5845,-0.5903,-0.6126,0.0,0.0,0.0,0.0,0.0,0.0,0.0,0.0,0.0,0.0,0.0,0.0,0.0,0.0,0.0,0.0,0.0,0.0,0.0,0.0,0.0,0.0,0.0,0.0,0.0,0.0,0.0,0.0,0.0,0.0,0.0,0.0,-1.782,-1.8455,-1.9628,-2.0411,-2.0536,-2.1164,-2.1407,-2.0962,-2.2726,-2.3904,-2.3869,-2.4814,-2.5497,-2.5672,-2.5718,-2.5945,-2.6393,-2.6997,-2.7724,-2.8517,-2.8861,-2.9026,-2.9026,-2.9026,-2.9385,-3.0043,-2.9909,-2.9819,-2.9759,-2.9639,-2.9579,-2.9579,-2.9579,-2.9579,-2.9549,-2.9175,-2.9026,-2.8966,-2.8487,-2.8008,-2.7685,0.0,-0.3963,-0.4199,-0.4555,-0.4555,-0.4575,-0.4764,-0.4724,-0.4713,-0.4838,-0.5224,-0.5718,-0.638,-0.6907,-0.7341,-0.7752,-0.7882,-0.7962,-0.794,-0.7217,-0.7051,-0.7702,-0.8442,-0.9136,-0.9727,-0.9784,-0.9794,-0.9681,-0.9629,-0.8942,-0.767,-0.767,-0.7139,-0.6178,-0.6178,-0.6178,-0.6178,-0.6178,-0.6178,-0.6168,-0.6095,-0.6228,-0.6526,-0.6393,-0.6708,-0.7181,-0.7134,-0.7338,-0.7577,-0.7379,0.0,0.0,0.0,0.0,0.0,0.0,0.0,0.0,0.0,0.0,0.0,0.0,0.0,0.0,0.0,0.0,0.0,0.0,0.0,0.0,0.0,0.0,0.0,0.0,-1.8315,-1.9498,-2.0533,-2.1108,-2.1643,-2.2283,-2.2292,-2.2464,-2.2857,-2.414,-2.4862,-2.4733,-2.5574,-2.6104,-2.6104,-2.6136,-2.6465,-2.7113,-2.7715,-2.836,-2.8965,-2.9357,-2.9669,-2.9849,-2.9669,-2.9849,-3.0342,-3.0342,-3.0357,-3.0402,-3.0402,-3.0402,-3.0402,-3.0402,-3.0402,-3.0342,0.0,0.0,0.0,0.0,-2.8757,-2.8472,0.0,-0.3808,-0.4097,-0.4664,-0.4595,-0.4535,-0.4724,-0.4595,-0.4619,-0.5006,-0.5202,-0.5648,-0.6549,-0.6789,-0.7055,-0.7478,-0.7924,-0.7935,0.0,0.0,-0.8106,-0.8759,-0.9005,-0.9352,-0.974,-0.9898,-0.9895,-0.9688,-0.974,-0.9099,-0.7818,-0.7871,-0.7289,-0.6178,-0.6201,-0.6211,-0.6211,-0.6234,-0.6248,-0.6243,-0.622,-0.6519,-0.6956,-0.6796,-0.7371,-0.821,-0.7736,-0.8056,-0.8564,-0.8028,0.0,0.0,0.0,0.0,0.0,0.0,0.0,0.0,0.0,0.0,0.0,0.0,0.0,0.0,0.0,0.0,0.0,0.0,0.0,0.0,0.0,0.0,0.0,0.0,-2.0021,-2.1615,-2.2745,-2.2523,-2.2614,-2.3749,-2.3245,-2.3356,-2.478,-2.5134,-2.5388,-2.5683,-2.635,-2.6712,-2.6717,0.0,0.0,0.0,0.0,-2.8872,-2.916,-2.9592,-2.9998,-3.0317,-2.9983,-3.0088,-3.0612,-3.0612,-3.0956,-3.1482,-3.1482,-3.1482,-3.1482,-3.1482,-3.1482,-3.1362,-3.0253,-2.9759,-2.9699,-2.9774,-2.9699,-2.9594,0.0,-0.3887,-0.4027,-0.4475,-0.4403,-0.4321,-0.4535,-0.4382,-0.4411,-0.4803,-0.512,-0.5568,-0.6319,-0.6691,-0.7085,-0.754,-0.7475,-0.7483,0.0,0.0,-0.8802,-0.915,-0.9455,-0.9756,-1.0156,-0.9969,-0.9629,-0.9138,-0.9458,-0.8823,-0.7241,-0.7717,-0.7289,-0.6182,-0.6346,-0.6417,-0.6426,-0.6599,-0.6674,-0.666,-0.6487,-0.643,-0.6495,-0.7346,-0.7799,-0.8097,-0.898,-0.9502,-0.9738,-0.9764,-0.9674,-0.9523,-0.9425,0.0,0.0,0.0,0.0,0.0,0.0,0.0,0.0,0.0,0.0,0.0,0.0,0.0,0.0,0.0,0.0,0.0,0.0,0.0,0.0,-1.9583,-2.1009,-2.2395,-2.3985,-2.4149,-2.4044,-2.3912,-2.5003,-2.5544,-2.5052,-2.6258,-2.674,-2.587,-2.6332,-2.6726,-2.6776,-2.6749,-2.7326,-2.8475,-2.9112,-2.9719,-3.0208,-3.0798,-3.1195,-3.1228,-3.1195,0.0,-3.1345,-3.1345,-3.1347,-3.1482,-3.1482,-3.1482,-3.1482,-3.1482,-3.1482,-3.1452,-3.1255,-3.0806,-3.0387,-3.0941,-3.0492,-2.9654,-0.3844,-0.3911,-0.3994,-0.4301,-0.426,-0.4228,-0.4342,-0.426,-0.4283,-0.4524,-0.4705,-0.5056,-0.5738,-0.5874,-0.6063,-0.6469,-0.6625,0.0,0.0,-0.8646,-0.9136,-0.9597,-0.9764,-0.9926,-1.0154,-0.9844,-0.9569,-0.9295,-0.9242,-0.8613,-0.7503,-0.7503,-0.709,-0.6328,-0.6431,-0.6534,-0.6641,-0.6749,-0.6791,-0.6773,-0.6557,-0.6412,-0.6425,-0.6856,-0.7396,-0.7978,-0.862,-0.9361,-0.9999,-1.011,-1.0182,-1.0148,-0.9961,-0.9498,-0.8927,0.0,0.0,0.0,0.0,0.0,0.0,0.0,0.0,0.0,0.0,0.0,0.0,0.0,0.0,-1.4904,0.0,0.0,-1.8692,-2.1196,-2.1899,-2.283,-2.4835,-2.5405,-2.5506,-2.5301,-2.5766,-2.6182,-2.6301,-2.6792,-2.6905,-2.6287,-2.6863,-2.7204,-2.7243,-2.757,-2.8322,-2.954,-2.9935,-3.0374,-3.1016,-3.1302,-3.1482,-3.1482,-3.1482,-3.1482,-3.1482,-3.1482,-3.1482,-3.1482,-3.1482,-3.1482,-3.1482,-3.1482,-3.1482,-3.1482,-3.1482,-3.133,-3.1061,-3.1347,-3.112,-3.0597,-0.3844,-0.3911,-0.3973,-0.4166,-0.4207,-0.4207,-0.4207,-0.4207,-0.4221,-0.428,-0.4293,-0.4519,-0.5136,-0.5002,-0.5056,-0.545,0.0,0.0,0.0,-0.888,-0.931,-1.0002,-1.0,-0.9999,-0.9999,-0.9725,-0.9562,-0.9458,-0.904,-0.8455,-0.7711,-0.7295,-0.6858,-0.6417,-0.6454,-0.659,-0.6796,-0.6838,-0.6876,-0.689,-0.6637,-0.6649,-0.6678,-0.6483,-0.7031,-0.7925,-0.8137,-0.8988,-0.9947,-0.9947,-1.0154,-1.0364,-1.0021,-0.9883,-0.9748,-0.9241,-0.9243,0.0,0.0,0.0,0.0,0.0,0.0,0.0,0.0,0.0,-1.3311,-1.5005,-1.6021,-1.6933,-1.8124,-1.8777,-1.9926,-2.2406,-2.268,-2.331,-2.5364,-2.621,-2.6632,-2.6767,-2.6241,-2.6294,-2.7312,-2.6878,-2.6551,-2.654,-2.7154,-2.7609,-2.7882,-2.8497,-2.9457,-3.0687,-3.0702,-3.0971,-3.1467,-3.1482,-3.1482,-3.1482,-3.1482,-3.1482,-3.1482,-3.1482,-3.1482,-3.1482,-3.1482,-3.1482,-3.1482,-3.1482,-3.1482,-3.1482,-3.1482,-3.1482,-3.1482,-3.1482,-3.1482,-3.1482,0.0,-0.3911,-0.3973,-0.4166,-0.4207,-0.4207,-0.4207,-0.4207,-0.4221,-0.428,-0.4293,-0.4432,-0.4822,-0.4829,-0.5083,-0.5778,0.0,0.0,-0.8711,-0.9144,-0.966,-1.0375,-1.0131,-0.9999,-0.9999,-0.9725,-0.9354,-0.8883,-0.883,-0.8243,-0.7192,-0.7139,-0.6776,-0.622,-0.6393,-0.659,-0.6805,-0.7045,-0.7229,-0.7357,-0.6974,-0.7111,-0.7528,-0.7141,-0.7396,-0.8031,-0.9033,-0.9569,-0.9799,-0.9799,-0.9947,-1.0043,-1.0005,-0.9761,-0.9603,-1.0038,0.0,-0.9467,-1.0212,-1.0572,-1.0922,-1.1708,-1.1669,-1.2271,0.0,0.0,-1.5749,-1.8332,-1.859,-1.8748,-1.9898,-2.0205,-2.0738,-2.2142,-2.3116,-2.4181,-2.5494,-2.6219,-2.6811,-2.7445,-2.6946,-2.6649,-2.6774,-2.6229,-2.5879,-2.5881,-2.6511,-2.7371,-2.8537,-2.9217,-3.0132,-3.1332,-3.1362,-3.1392,-3.1482,-3.1482,-3.1482,-3.1482,-3.1482,-3.1482,-3.1482,-3.1482,-3.1482,-3.1482,-3.1482,-3.1482,-3.1482,-3.1482,-3.1482,-3.1482,-3.1482,-3.1482,-3.1482,-3.1482,-3.1482,-3.1482,0.0,-0.3911,-0.3931,-0.4014,-0.4125,-0.4207,-0.4207,-0.4207,-0.4172,-0.4075,-0.4177,-0.4259,-0.4282,-0.4266,-0.4628,-0.5483,-0.6184,0.0,-0.8583,-0.914,-0.9716,-1.049,-1.0154,-0.9999,-0.9999,-0.9725,-0.951,-0.9249,-0.8613,-0.8031,-0.7557,-0.6869,-0.6509,-0.6351,-0.6435,-0.659,-0.6796,-0.6946,-0.7031,-0.7078,-0.7131,-0.7291,-0.7542,-0.7967,-0.8249,-0.8508,-0.8981,-0.9413,0.0,0.0,-0.9903,-0.9999,-0.9999,-0.9822,-0.9663,-1.0128,-1.0369,0.0,-1.192,-1.2156,-1.232,-1.3335,-1.3641,-1.4238,-1.6353,-1.6727,-1.7099,-1.861,-1.9071,-1.9417,-1.9972,-2.0385,-2.1229,0.0,-2.344,-2.4262,-2.6482,-2.6739,-2.676,-2.7006,-2.6541,-2.6283,-2.6669,-2.6457,-2.6475,-2.6863,-2.7849,-2.8793,-2.958,-3.0251,-3.0821,-3.1234,-3.1351,-3.1409,-3.1409,-3.1467,-3.1482,-3.1482,-3.1482,-3.1482,-3.1482,-3.1482,-3.1482,-3.1482,-3.1482,-3.1482,-3.1482,-3.1482,-3.1482,-3.1482,-3.1482,-3.1482,-3.1482,-3.1482,-3.1482,-3.1482,0.0,-0.3911,-0.3911,-0.3973,-0.4104,-0.4187,-0.4125,-0.4166,-0.4125,-0.3931,-0.4084,-0.4145,-0.3994,-0.3931,-0.4221,-0.5053,-0.57,-0.6689,0.0,-0.8851,-0.9562,-1.028,-1.0015,-0.99,-0.9999,-0.9725,-0.9614,-0.9614,-0.8613,-0.8084,-0.7871,-0.6923,-0.6418,-0.6393,-0.6393,-0.6506,-0.6702,-0.6702,-0.674,-0.6832,-0.7239,-0.748,-0.7684,-0.8511,-0.8835,-0.8923,-0.8923,-0.924,0.0,0.0,-0.95,-0.966,-0.9661,-0.9581,-0.9674,-1.0381,-1.1146,-1.1921,-1.2789,-1.3176,-1.3491,-1.4307,-1.506,-1.589,-1.6955,-1.7629,-1.8166,-1.8872,-1.9374,-1.9755,-1.9889,-2.0276,-2.1205,-2.3265,-2.3354,-2.408,-2.674,-2.6718,-2.6491,-2.6598,-2.5842,-2.5615,-2.6327,-2.6304,-2.6505,-2.7102,-2.849,-2.9581,-3.0046,-3.091,-3.1292,-3.119,-3.1292,-3.1351,-3.1351,-3.1467,-3.1482,-3.1482,-3.1482,-3.1482,-3.1482,-3.1482,-3.1482,-3.1482,-3.1482,-3.1482,-3.1482,-3.1676,-3.1704,-3.1497,-3.1676,-3.1631,-3.1482,-3.1482,-3.1482,-3.1482,0.0,0.0,-0.3952,-0.4166,-0.4187,-0.4145,-0.3931,-0.4084,-0.4125,-0.3931,-0.4084,-0.4207,-0.4187,-0.4014,-0.4116,-0.468,-0.5433,-0.6356,-0.7384,-0.8234,-0.9066,-0.9898,-0.9653,-0.9665,-0.9991,-0.9725,-0.9614,-0.9614,-0.904,-0.8455,-0.7871,-0.7348,-0.6771,-0.6187,-0.6187,-0.6295,-0.6482,-0.6482,-0.6604,-0.6832,-0.7239,-0.7711,-0.8193,-0.8624,-0.8971,-0.919,-0.919,0.0,0.0,-0.8458,-0.8458,-0.8756,-0.8826,-0.9078,0.0,-1.0968,-1.2206,-1.3017,-1.2304,-1.3166,-1.4307,-1.4471,-1.5545,-1.6842,-1.8025,-1.8622,-1.9158,-1.9826,-1.9952,-2.0016,-2.0156,-2.022,-2.0656,-2.2016,-2.2698,-2.3659,-2.5614,-2.5792,-2.5965,-2.6538,-2.5077,-2.4495,0.0,-2.5338,-2.523,-2.5619,-2.758,-2.8931,-2.9406,-3.0723,-3.1482,-3.1482,-3.1482,-3.1482,-3.1482,-3.1482,-3.1482,-3.1482,-3.1482,-3.1482,-3.1482,-3.1482,-3.1482,-3.1482,-3.1482,-3.1482,-3.1526,-3.2213,-3.2108,-3.1541,-3.2243,-3.2093,-3.1482,-3.1482,-3.1482,-3.1482,0.0,0.0,0.0,-0.3994,-0.3994,-0.3973,-0.3911,-0.4076,-0.4125,-0.3931,-0.4084,0.0,0.0,0.0,0.0,0.0,-0.5268,-0.6115,-0.7248,-0.8291,-0.904,-0.9485,-0.9787,-0.9896,-0.9657,-0.9614,-0.9614,-0.9614,-0.8666,-0.8084,-0.7871,-0.6923,-0.6391,-0.6178,-0.6178,-0.6484,-0.6874,-0.6874,-0.7136,-0.7583,-0.8094,-0.8435,-0.8644,-0.9127,-0.9285,-0.9181,0.0,0.0,-0.8494,-0.8275,-0.8446,-0.882,-0.9048,0.0,0.0,-1.0831,-1.2173,-1.3218,-1.3372,-1.3854,-1.4568,-1.5571,-1.6188,-1.692,-1.8434,-1.8879,-1.9101,-1.9422,-1.9496,-1.9419,-1.9182,-1.9425,-2.0191,-2.1837,-2.259,-2.3765,-2.5937,-2.6323,-2.6236,-2.5986,-2.5856,0.0,0.0,0.0,0.0,-2.6731,-2.8144,-2.9178,-2.969,-3.0528,-3.0999,-3.094,-3.1132,-3.1249,-3.1249,-3.1424,-3.1482,-3.1482,-3.1482,-3.1482,-3.1482,-3.1482,-3.1764,-3.2183,-3.2183,-3.2437,-3.2856,-3.308,-3.3036,-3.2856,-3.308,-3.3036,-3.2841,-3.2841,-3.311,-3.3236,0.0,0.0,0.0,0.0,0.0,0.0,0.0,0.0,0.0,0.0,0.0,0.0,0.0,0.0,0.0,0.0,0.0,-0.594,-0.6981,0.0,-0.8507,-0.9014,-0.9369,-0.9431,-0.9133,-0.9122,-0.9141,-0.9285,-0.8572,-0.821,-0.819,-0.745,-0.7031,-0.6815,-0.6815,-0.7025,-0.7402,-0.7402,-0.761,-0.7972,-0.8599,-0.881,-0.8892,-0.9182,-0.9189,0.0,0.0,0.0,-0.7837,-0.7878,-0.824,-0.8731,-0.9123,0.0,0.0,-1.1369,-1.2466,-1.3569,-1.3962,-1.444,-1.5091,-1.6202,-1.6645,-1.7113,-1.8359,-1.8672,-1.8694,-1.8771,-1.8844,-1.8763,-1.849,-1.8719,-1.9513,-2.1064,-2.1838,-2.3097,-2.5558,-2.594,-2.5951,-2.5968,-2.5991,-2.5756,0.0,0.0,0.0,-2.688,-2.8309,-2.9234,-2.9547,-3.0412,-3.0895,-3.0762,-3.1014,-3.1087,-3.1087,-3.1249,-3.1366,-3.1366,-3.1482,-3.1601,-3.1781,-3.1825,-3.2243,-3.2871,-3.2871,-3.3095,-3.3514,-3.3754,-3.3709,-3.3514,-3.3754,-3.3863,-3.3819,-3.3819,-3.4206,-3.4503,0.0,0.0,0.0,0.0,0.0,0.0,0.0,0.0,0.0,0.0,0.0,0.0,0.0,0.0,0.0,0.0,0.0,0.0,0.0,0.0,0.0,-0.8487,-0.845,-0.8413,-0.8391,-0.8307,-0.8384,-0.868,-0.8655,-0.8665,-0.8763,-0.8724,-0.841,-0.7835,-0.7835,-0.7882,-0.7882,-0.7882,-0.7935,-0.8016,-0.8634,-0.8904,-0.8888,-0.8835,0.0,0.0,0.0,0.0,-0.7289,-0.7338,-0.7875,-0.8617,0.0,0.0,0.0,-1.2411,-1.316,-1.3952,-1.4154,-1.4903,-1.5855,-1.6342,-1.683,-1.7313,-1.7895,-1.7996,-1.7993,-1.8046,-1.8056,-1.8094,0.0,0.0,-1.8553,-1.9826,-2.0564,-2.1877,-2.4426,-2.4766,-2.5185,0.0,0.0,0.0,0.0,0.0,0.0,-2.6167,0.0,-2.9057,-2.892,-3.0322,-3.1087,-3.1087,-3.1087,-3.1087,-3.1087,-3.1087,-3.1102,-3.1132,-3.141,-3.1826,-3.2347,-3.2452,-3.2916,-3.3544,-3.3544,-3.3559,-3.3649,-3.4277,-3.422,-3.3711,-3.434,-3.4592,-3.4519,-3.4519,-3.4982,-3.5355,0.0,0.0,0.0,0.0,0.0,0.0,0.0,0.0,0.0,0.0,0.0,0.0,0.0,0.0,0.0,0.0,0.0,0.0,0.0,0.0,0.0,0.0,0.0,-0.8709,-0.8411,-0.8504,-0.861,-0.8712,-0.8261,-0.8046,-0.8061,-0.7624,-0.7382,-0.7235,-0.7235,-0.7432,-0.7817,-0.7817,-0.8255,-0.8949,0.0,-0.8941,-0.9161,0.0,0.0,0.0,0.0,0.0,0.0,0.0,0.0,0.0,0.0,-1.1866,-1.2599,0.0,0.0,-1.4246,-1.5089,-1.5504,-1.5828,-1.6273,-1.6507,-1.6655,-1.6884,-1.6922,-1.6922,-1.6955,-1.6977,-1.688,0.0,0.0,0.0,-1.9084,-2.0962,0.0,-2.4755,-2.5911,0.0,-2.6317,0.0,-2.6637,-2.6748,-2.703,0.0,0.0,-2.8492,-2.8983,-2.9406,-3.0265,-3.0702,-3.0702,-3.0821,-3.0895,-3.0895,-3.1014,-3.1323,-3.1795,-3.1855,-3.2241,-3.2986,-3.2986,-3.3466,-3.4233,-3.4233,-3.4517,-3.5011,-3.5175,-3.5435,-3.5691,-3.5859,-3.6229,-3.6656,-3.6656,-3.7064,-3.7424,0.0,0.0,0.0,0.0,0.0,0.0,0.0,0.0,0.0,0.0,0.0,0.0,0.0,0.0,0.0,0.0,0.0,0.0,0.0,0.0,0.0,0.0,-0.7682,-0.8003,-0.762,-0.8101,-0.8339,0.0,0.0,0.0,-0.7946,-0.7524,-0.7289,-0.7289,-0.7289,-0.747,-0.774,-0.774,0.0,0.0,0.0,0.0,0.0,0.0,0.0,0.0,0.0,0.0,0.0,0.0,0.0,-1.1621,-1.2343,-1.2842,-1.3286,-1.3889,0.0,-1.486,-1.5546,-1.5835,-1.6053,-1.6312,-1.6229,-1.6113,-1.6169,-1.6186,-1.6115,-1.5893,-1.6053,-1.6046,-1.5452,-1.6045,-1.7061,0.0,0.0,0.0,-2.445,-2.5882,-2.6709,0.0,-2.7144,0.0,-2.7369,-2.7915,-2.8502,0.0,-2.9087,-2.9247,-2.961,-3.0234,-3.0568,-3.0568,-3.0702,-3.0702,-3.0702,-3.1174,-3.1557,-3.1924,-3.2311,-3.2907,-3.3654,-3.3654,-3.4088,-3.4778,-3.4713,-3.4937,-3.5359,-3.5668,-3.6022,-3.643,-3.6723,-3.7251,-3.7764,-3.7764,-3.8181,-3.8668,0.0,0.0,0.0,0.0,0.0,0.0,0.0,0.0,0.0,0.0,0.0,0.0,0.0,0.0,0.0,0.0,0.0,0.0,0.0,0.0,0.0,0.0,-0.6751,-0.6896,-0.667,-0.7399,-0.777,0.0,0.0,0.0,0.0,0.0,0.0,0.0,0.0,0.0,0.0,0.0,0.0,0.0,0.0,0.0,0.0,0.0,0.0,0.0,0.0,0.0,0.0,0.0,-1.1877,-1.2334,-1.3107,-1.3638,-1.4084,-1.4644,-1.5157,-1.5591,-1.5763,-1.6073,-1.6384,-1.6384,-1.6032,-1.5725,-1.5717,-1.5622,-1.5449,-1.4994,-1.5229,-1.5337,-1.4864,-1.5279,-1.6227,-1.785,0.0,-2.156,-2.4028,-2.5322,-2.6304,-2.7063,-2.7583,-2.79,-2.7973,-2.8475,-2.9073,-2.9697,-2.9755,-2.9755,-2.9755,-3.0277,-3.0568,-3.0568,-3.0568,-3.0568,-3.0568,-3.1389,-3.1831,-3.1918,-3.2859,-3.3636,-3.4337,-3.4337,-3.4649,-3.5213,-3.5133,-3.5198,-3.5409,-3.607,-3.6492,-3.6723,-3.731,-3.7879,-3.8407,-3.8407,-3.8772,-3.9272,0.0,0.0,0.0,0.0,0.0,0.0,0.0,0.0,0.0,0.0,-0.4838,-0.4646,0.0,0.0,0.0,0.0,0.0,0.0,0.0,0.0,0.0,0.0,-0.629,-0.6687,-0.6997,-0.7165,0.0,0.0,0.0,0.0,0.0,0.0,0.0,0.0,0.0,0.0,0.0,0.0,0.0,0.0,0.0,0.0,0.0,0.0,0.0,0.0,0.0,0.0,0.0,0.0,-1.2607,-1.3212,-1.3494,-1.3882,-1.4346,-1.48,-1.5328,-1.5773,-1.6156,-1.6322,-1.6384,-1.6384,-1.6032,-1.5696,-1.5721,-1.5083,0.0,0.0,-1.4701,-1.4423,-1.4262,-1.5054,-1.6222,-1.7828,-1.9557,-2.1661,-2.433,-2.5373,-2.6104,0.0,-2.7399,-2.7926,-2.8519,-2.9087,0.0,0.0,-3.0408,-3.0408,-3.0408,-3.051,-3.0568,-3.0568,-3.0568,-3.0568,-3.0568,-3.1206,-3.1926,-3.262,-3.3299,-3.4124,-3.5035,-3.4824,-3.4963,-3.5213,-3.5767,-3.6006,-3.6085,-3.6845,-3.7472,-3.7994,-3.8108,-3.8535,-3.9148,-3.9148,-3.9202,-3.9272,0.0,0.0,0.0,0.0,0.0,0.0,0.0,-0.5102,-0.5356,-0.5894,-0.5589,-0.5364,-0.5447,-0.5273,-0.5166,0.0,0.0,0.0,0.0,0.0,0.0,0.0,0.0,-0.6182,-0.643,0.0,0.0,0.0,0.0,0.0,0.0,0.0,0.0,0.0,0.0,0.0,0.0,0.0,0.0,0.0,0.0,0.0,0.0,0.0,0.0,0.0,0.0,0.0,0.0,0.0,-1.1993,-1.3201,-1.3779,-1.4128,-1.4449,-1.5152,-1.5515,-1.5784,-1.6249,-1.6384,-1.6384,-1.6384,-1.5846,-1.531,-1.5289,0.0,0.0,0.0,-1.4114,-1.405,-1.3686,-1.4324,0.0,-1.6996,-1.8685,-2.0751,-2.3549,-2.4731,-2.5662,-2.6663,-2.7636,-2.8347,-2.8652,-2.9552,-3.0248,-3.0553,-3.0568,-3.0568,-3.0568,-3.0568,-3.0568,-3.0568,-3.0568,-3.0568,-3.0568,-3.154,-3.2271,-3.2796,-3.3761,-3.4574,-3.5213,-3.5379,-3.5559,-3.5767,-3.629,-3.6585,-3.6723,-3.7488,-3.7994,-3.8334,-3.8645,-3.9023,-3.9272,-3.9272,-3.9272,-3.9272,0.0,0.0,0.0,0.0,0.0,0.0,0.0,-0.5495,-0.5795,-0.646,-0.6327,-0.6098,-0.5947,-0.5589,-0.5313,0.0,0.0,0.0,0.0,0.0,0.0,0.0,0.0,0.0,0.0,0.0,0.0,0.0,0.0,0.0,0.0,0.0,0.0,0.0,0.0,0.0,0.0,0.0,0.0,0.0,0.0,0.0,0.0,0.0,0.0,0.0,0.0,0.0,0.0,0.0,-1.1103,-1.2402,-1.3501,-1.4066,-1.4449,-1.513,-1.5535,-1.5773,-1.6136,-1.6301,-1.6353,-1.626,-1.5717,-1.51,-1.4915,-1.4598,0.0,-1.3598,-1.3692,-1.3783,-1.3286,-1.3672,-1.466,0.0,-1.7787,-1.9737,-2.271,-2.3971,-2.511,-2.6416,-2.7824,0.0,-2.8681,-2.9827,0.0,-3.0642,-3.0702,-3.0702,-3.0568,-3.0568,-3.0568,-3.0568,-3.0568,-3.0568,-3.0568,-3.1729,-3.2494,-3.2859,-3.4002,-3.4883,-3.5459,-3.5816,-3.6117,-3.643,-3.6859,-3.716,-3.7354,-3.8067,-3.8407,-3.859,-3.9077,-3.9272,-3.9272,-3.9272,-3.9272,-3.9272,0.0,0.0,0.0,0.0,0.0,0.0,0.0,-0.5508,-0.6084,-0.6924,-0.6645,-0.6372,-0.6357,-0.6031,-0.567,0.0,0.0,0.0,0.0,0.0,0.0,0.0,0.0,0.0,0.0,0.0,0.0,0.0,0.0,0.0,0.0,0.0,0.0,0.0,0.0,0.0,0.0,0.0,0.0,0.0,0.0,0.0,0.0,0.0,0.0,0.0,0.0,0.0,0.0,0.0,0.0,-1.0514,-1.1858,-1.3207,-1.4274,-1.4256,0.0,0.0,-1.5742,-1.6063,-1.628,-1.5856,-1.568,-1.5513,-1.5012,0.0,-1.4165,-1.4063,-1.3611,-1.3261,-1.321,-1.3672,-1.4771,-1.6702,0.0,-1.9211,-2.2478,-2.3525,-2.4457,-2.572,0.0,0.0,-2.8681,-2.9827,-3.0642,-3.0762,-3.0955,-3.0895,-3.0642,-3.0568,-3.0568,-3.0568,-3.0568,-3.0568,-3.0568,-3.1264,-3.2076,-3.2974,-3.3711,-3.4861,-3.6305,-3.6196,-3.6492,-3.7071,-3.7706,-3.7994,-3.8067,-3.8843,-3.9218,-3.9202,-3.9272,-3.9272,-3.9272,-3.9272,-3.9272,-3.9272,0.0,0.0,0.0,0.0,0.0,0.0,-0.505,-0.5498,-0.6117,-0.6982,-0.6943,-0.6826,-0.6826,-0.6494,-0.5987,-0.5323,0.0,0.0,0.0,0.0,0.0,0.0,0.0,0.0,0.0,0.0,0.0,0.0,0.0,0.0,0.0,0.0,0.0,0.0,0.0,0.0,0.0,0.0,0.0,0.0,0.0,0.0,0.0,0.0,0.0,0.0,0.0,0.0,0.0,0.0,0.0,0.0,-1.023,-1.1308,0.0,0.0,-1.4255,-1.4976,-1.5535,-1.5825,-1.5974,-1.6104,-1.5902,-1.5565,-1.498,-1.4529,-1.4099,-1.3627,-1.3348,-1.3198,-1.3198,-1.3421,-1.4113,-1.5854,-1.6593,-1.7965,-2.0954,-2.1816,-2.2904,-2.4979,-2.6591,-2.7839,0.0,0.0,-3.0762,-3.0955,-3.0955,-3.0895,-3.0895,-3.0762,-3.0702,-3.0568,-3.0568,-3.0792,-3.1248,-3.2121,-3.2809,-3.3199,-3.4743,-3.5629,-3.5936,-3.6852,-3.7456,-3.7879,-3.8535,-3.8843,-3.8843,-3.9148,-3.9272,-3.9272,-3.9272,-3.9272,-3.9325,-3.959,-3.9642,-3.9677,0.0,0.0,0.0,0.0,0.0,-0.4574,-0.5028,-0.5454,-0.6009,-0.6797,-0.6895,-0.6895,-0.6895,-0.6528,-0.6064,-0.5533,-0.5343,0.0,0.0,0.0,0.0,0.0,0.0,0.0,0.0,0.0,0.0,0.0,0.0,0.0,0.0,0.0,0.0,0.0,0.0,0.0,0.0,0.0,0.0,0.0,0.0,0.0,0.0,0.0,0.0,0.0,0.0,0.0,0.0,0.0,0.0,0.0,0.0,0.0,0.0,0.0,-1.3546,-1.4223,-1.5059,-1.5487,-1.5764,-1.5933,-1.5939,-1.5691,-1.481,-1.4514,-1.4181,-1.3353,-1.3198,-1.3232,-1.3323,-1.3357,-1.3835,-1.5318,-1.6,-1.7195,-1.9664,-2.0565,-2.1743,-2.376,0.0,-2.6707,-2.7998,-2.9798,-3.0999,-3.1176,-3.1219,-3.1278,-3.1307,-3.1379,-3.1306,-3.1014,-3.1116,-3.1435,-3.2003,-3.273,-3.3224,-3.3522,-3.4976,-3.5804,-3.6111,-3.7262,-3.8068,-3.8645,-3.9077,-3.9272,-3.9272,-3.9272,-3.9272,-3.9325,-3.9432,-3.9484,-3.9537,-3.9918,-4.007,-4.007,0.0,0.0,0.0,0.0,0.0,0.0,-0.5005,-0.533,-0.5721,-0.6333,-0.6416,-0.6416,-0.6416,-0.6035,-0.5835,-0.5888,-0.5593,0.0,0.0,0.0,0.0,0.0,0.0,0.0,0.0,0.0,-0.6742,-0.6406,-0.7596,-0.8187,0.0,0.0,0.0,0.0,0.0,0.0,0.0,0.0,0.0,0.0,0.0,0.0,0.0,0.0,0.0,0.0,0.0,0.0,0.0,0.0,0.0,0.0,0.0,0.0,0.0,0.0,-1.2701,-1.3649,-1.4151,-1.5001,-1.5593,-1.5115,-1.5747,-1.6095,-1.454,-1.4565,-1.4563,-1.3423,-1.3198,-1.3301,-1.3648,-1.3682,-1.412,-1.5482,-1.6247,-1.7249,-1.8904,-2.0204,-2.1249,0.0,0.0,-2.5371,-2.6678,-2.9386,-3.119,-3.1495,-3.2048,-3.2176,-3.1739,-3.2516,-3.2664,-3.189,-3.2415,-3.2671,-3.2671,-3.2687,-3.3154,-3.3968,-3.3983,-3.5149,-3.7187,-3.7203,-3.7992,-3.9272,-3.9272,-3.9272,-3.9272,-3.9272,-3.9272,-3.9325,-3.9746,-3.9901,-3.9935,-4.0269,-4.04,-4.04,0.0,0.0,0.0,0.0,0.0,0.0,0.0,-0.4883,-0.5247,-0.5905,-0.5977,-0.6084,-0.6377,-0.6035,-0.5803,-0.5835,-0.5452,0.0,0.0,0.0,0.0,0.0,0.0,0.0,0.0,0.0,-0.6837,-0.6742,-0.8282,-0.8829,-0.8488,-0.884,0.0,0.0,0.0,0.0,0.0,0.0,0.0,0.0,0.0,0.0,0.0,0.0,0.0,0.0,0.0,0.0,0.0,0.0,0.0,0.0,0.0,0.0,0.0,0.0,0.0,0.0,-1.3478,-1.4178,-1.4701,-1.4846,-1.5119,-1.5114,-1.4333,-1.4237,-1.4148,-1.3348,-1.3198,-1.3301,-1.3648,-1.3715,-1.4286,-1.6089,-1.6902,-1.774,-1.8933,0.0,0.0,-2.2511,-2.5502,-2.8119,0.0,0.0,-3.1552,-3.2312,-3.2477,-3.2586,-3.2718,-3.3387,-3.3161,-3.1946,-3.2415,-3.2939,-3.3463,-3.3763,-3.4064,-3.4358,-3.5328,-3.6145,-3.6861,-3.758,-3.8418,-3.9272,-3.9272,-3.9272,-3.9325,-3.959,-3.9694,-3.9746,-4.0104,-4.0237,-4.0286,-4.0676,-4.0819,-4.0866,0.0,0.0,0.0,0.0,0.0,0.0,0.0,-0.4664,-0.4975,-0.5477,-0.5537,-0.5693,-0.6123,-0.5791,-0.5605,-0.5783,-0.5381,0.0,0.0,0.0,0.0,0.0,0.0,0.0,0.0,-0.6297,-0.6998,-0.7317,-0.864,-0.9213,-0.9062,-0.9403,-0.918,-0.8525,0.0,0.0,0.0,0.0,0.0,0.0,0.0,0.0,0.0,0.0,0.0,0.0,0.0,0.0,0.0,0.0,0.0,0.0,0.0,0.0,0.0,0.0,-1.0594,-1.1683,0.0,-1.3629,-1.4279,-1.4523,-1.473,-1.4703,-1.4212,-1.3921,-1.3647,-1.3273,-1.3124,-1.327,-1.3809,-1.4046,-1.4583,-1.5953,-1.6892,-1.7806,0.0,0.0,0.0,-2.3925,0.0,0.0,0.0,-3.1366,-3.1992,-3.2788,-3.2964,-3.314,-3.3387,-3.4018,-3.3901,-3.2772,-3.3235,-3.3751,-3.4235,-3.4489,-3.4673,-3.4659,-3.5547,-3.614,-3.6452,-3.7347,-3.8195,-3.8891,-3.9156,-3.9379,0.0,-3.9798,-3.9986,-4.0104,-4.0483,-4.0611,-4.0659,-4.1071,-4.1226,-4.1272,0.0,0.0,0.0,0.0,0.0,0.0,0.0,-0.4664,-0.4863,-0.5069,-0.5108,-0.5263,-0.5715,-0.5351,-0.5273,-0.5725,0.0,0.0,0.0,0.0,0.0,0.0,0.0,0.0,0.0,-0.6366,-0.7246,-0.7982,-0.8821,-0.9459,-0.9833,-0.9914,-0.9464,-0.8604,-0.8005,0.0,0.0,0.0,0.0,0.0,0.0,0.0,0.0,0.0,0.0,0.0,0.0,0.0,0.0,0.0,0.0,0.0,0.0,0.0,0.0,0.0,0.0,0.0,0.0,-1.3174,-1.4002,-1.4005,-1.4332,-1.4538,-1.4058,-1.3518,0.0,-1.3191,-1.3071,-1.3226,-1.4232,-1.4616,-1.4944,-1.5426,-1.6503,-1.7641,0.0,-2.0572,0.0,0.0,-2.7403,0.0,-3.0075,-3.1427,-3.2508,-3.3055,-3.3507,-3.3745,-3.3797,-3.4497,-3.4691,-3.4151,-3.4643,-3.4899,-3.4899,-3.4899,-3.4899,-3.4899,-3.4899,-3.5297,-3.6025,-3.6821,-3.7567,-3.8297,-3.9063,-3.9573,-3.9952,-3.9952,-4.0154,-4.0497,-4.0866,-4.1024,-4.1071,-4.1453,-4.1604,-4.1604,0.0,0.0,0.0,0.0,0.0,0.0,0.0,0.0,0.0,0.0,-0.5108,-0.5146,-0.5253,-0.5166,-0.5146,0.0,0.0,0.0,0.0,0.0,0.0,0.0,0.0,0.0,0.0,-0.69,-0.7608,-0.7703,-0.971,-1.0511,-1.0201,-1.1029,-1.085,-0.9853,-0.9289,-0.8382,0.0,0.0,0.0,0.0,0.0,0.0,0.0,0.0,0.0,0.0,-0.8948,-0.8874,0.0,0.0,0.0,0.0,0.0,0.0,0.0,0.0,-0.9996,-1.0516,-1.0918,0.0,-1.2291,-1.2238,-1.2302,-1.2392,0.0,-1.2393,-1.2468,-1.3147,0.0,-1.3659,-1.5096,-1.5071,-1.5414,-1.7219,-1.778,-1.849,-1.996,0.0,0.0,-2.8632,-2.9286,-3.0121,-3.1805,-3.2493,-3.3124,-3.3764,-3.4134,-3.4399,-3.4594,-3.4804,-3.4851,-3.4707,-3.4851,-3.4899,-3.4899,-3.4899,-3.4899,-3.4899,-3.4899,-3.5297,-3.6025,-3.7084,-3.7968,-3.8724,-3.9715,-4.022,-4.0336,-4.058,-4.0789,-4.0913,-4.1318,-4.1453,-4.1453,-4.156,-4.1604,-4.1604,0.0,0.0,0.0,0.0,0.0,0.0,0.0,0.0,0.0,0.0,0.0,-0.5108,-0.5108,-0.5108,0.0,0.0,0.0,0.0,0.0,0.0,0.0,0.0,0.0,-0.5771,-0.5834,-0.6947,-0.7834,-0.8464,-1.0069,-1.0882,-1.1039,-1.1375,-1.1118,-1.0298,-0.9526,-0.8417,0.0,0.0,0.0,0.0,0.0,0.0,0.0,0.0,0.0,0.0,-0.8545,-0.8596,0.0,-0.928,-0.9571,-0.9635,0.0,0.0,0.0,0.0,-0.9919,-1.0168,-1.0195,-1.1265,-1.2372,-1.2352,-1.2659,-1.3013,-1.3162,0.0,0.0,0.0,0.0,0.0,0.0,0.0,0.0,0.0,-1.8429,0.0,0.0,0.0,-2.6704,-2.9465,-3.0217,-3.1027,0.0,-3.2861,-3.3403,-3.405,-3.425,-3.4497,-3.4899,-3.4899,-3.4899,-3.4899,-3.4899,-3.4899,-3.4899,-3.4899,-3.4899,-3.4899,-3.4899,-3.5193,-3.5752,-3.711,-3.801,-3.8594,-3.9842,-4.0497,-4.0707,-4.0913,-4.1117,-4.1318,-4.1498,-4.1604,-4.1604,-4.1675,-4.1719,-4.1762,0.0,0.0,0.0,0.0,0.0,0.0,0.0,0.0,0.0,0.0,0.0,0.0,0.0,0.0,0.0,0.0,0.0,0.0,0.0,0.0,0.0,0.0,0.0,-0.6025,-0.6167,-0.695,-0.8025,-0.9391,-1.0161,-1.0973,-1.1793,-1.1491,-1.1028,-1.0371,-0.9289,-0.8197,0.0,0.0,0.0,0.0,0.0,0.0,0.0,0.0,0.0,0.0,0.0,0.0,0.0,-0.8956,-0.954,-1.0095,-0.994,0.0,0.0,0.0,0.0,0.0,-1.004,-1.1663,-1.3225,-1.2986,-1.3676,-1.4419,-1.4362,0.0,0.0,0.0,0.0,0.0,0.0,-1.6182,0.0,0.0,0.0,0.0,-2.4967,-2.6255,-2.7607,-2.9543,-3.0604,0.0,-3.2339,-3.2942,-3.3531,-3.4134,-3.4201,-3.4399,-3.4899,-3.4947,-3.4994,-3.4994,-3.5024,-3.5071,-3.5071,-3.493,-3.4899,-3.4899,-3.4947,-3.5118,-3.5475,-3.6996,-3.7908,-3.8374,-3.9791,-4.0651,-4.1071,-4.1117,-4.1363,-4.1648,-4.1692,-4.1692,-4.1736,-4.1892,-4.1977,-4.2019,0.0,0.0,0.0,0.0,0.0,0.0,0.0,0.0,0.0,0.0,0.0,0.0,0.0,0.0,0.0,0.0,0.0,0.0,0.0,0.0,0.0,0.0,-0.6016,-0.6396,-0.6916,-0.7715,-0.8378,-0.8912,-1.0485,-1.1314,-1.1406,-1.2237,-1.1846,-1.0444,-0.9365,-0.8264,-0.7158,0.0,0.0,0.0,0.0,0.0,0.0,0.0,0.0,0.0,0.0,0.0,0.0,-0.8763,-0.919,-0.9342,-0.978,0.0,0.0,0.0,0.0,0.0,-1.1445,-1.2791,-1.3428,-1.1961,-1.2673,-1.3662,-1.3331,0.0,0.0,0.0,0.0,0.0,0.0,-1.7173,-1.7675,0.0,0.0,-2.4269,0.0,0.0,-2.9021,-3.0505,0.0,-3.1467,-3.2756,-3.3178,-3.3681,-3.4399,-3.4643,-3.4787,-3.4899,-3.5165,-3.5333,-3.5333,-3.5616,-3.5732,-3.5732,-3.5195,-3.4899,-3.4899,-3.5211,-3.5333,-3.5441,-3.6962,-3.8027,-3.8762,-3.9975,-4.0858,-4.1498,-4.1701,-4.1788,-4.1892,-4.2103,-4.2205,-4.2205,-4.2246,-4.2246,-4.2287,0.0,0.0,0.0,0.0,0.0,0.0,0.0,0.0,0.0,0.0,0.0,0.0,0.0,0.0,0.0,0.0,0.0,0.0,0.0,0.0,0.0,-0.6273,-0.6639,-0.6949,-0.7198,-0.8178,-0.902,-0.9731,-1.1171,-1.1974,-1.216,-1.2074,-1.1327,-1.003,-0.8948,-0.8017,-0.7225,-0.6687,0.0,0.0,0.0,0.0,0.0,0.0,0.0,0.0,0.0,0.0,0.0,0.0,-0.8788,-0.9516,-0.9466,0.0,0.0,0.0,0.0,0.0,-1.0939,-1.2461,-1.3734,-1.2953,-1.4242,-1.5658,-1.5464,0.0,0.0,0.0,0.0,0.0,0.0,0.0,-1.9672,-2.272,0.0,-2.523,-2.7157,-2.8068,-2.8886,0.0,0.0,-3.1124,-3.1771,-3.2674,-3.3387,-3.3874,-3.4381,-3.4756,-3.4899,-3.5211,-3.5424,-3.5424,-3.5749,-3.5907,-3.5907,-3.5599,-3.5436,-3.5436,-3.5616,-3.5793,-3.6019,-3.7102,-3.7979,-3.8649,-4.0046,-4.0912,-4.1392,-4.1884,-4.2103,-4.2145,-4.2246,-4.2287,-4.2328,-4.2409,-4.2512,-4.2631,0.0,0.0,0.0,0.0,0.0,0.0,0.0,0.0,0.0,0.0,0.0,0.0,0.0,0.0,0.0,0.0,0.0,0.0,0.0,0.0,-0.6079,-0.651,-0.7086,-0.7541,-0.7854,-0.8758,-0.9715,-1.0735,-1.1802,-1.2498,-1.2768,-1.193,-1.0821,-0.9528,-0.87,-0.7884,-0.7087,-0.6668,-0.6495,0.0,0.0,0.0,0.0,0.0,0.0,0.0,0.0,0.0,0.0,0.0,0.0,0.0,0.0,0.0,0.0,-0.9953,-1.0046,-1.0363,-1.0689,-1.2307,-1.3997,-1.4411,0.0,-1.7227,-1.7382,0.0,0.0,0.0,0.0,0.0,0.0,-1.9733,0.0,-2.489,-2.5408,-2.6141,-2.8382,-2.8785,-2.9005,-2.9448,-3.0251,-3.0868,-3.1047,-3.2039,-3.2833,-3.3231,-3.3804,-3.4341,-3.4758,-3.5155,-3.5464,-3.5633,-3.5968,-3.6165,-3.6165,-3.6165,-3.6079,-3.5907,-3.6011,-3.6199,-3.652,-3.7224,-3.786,-3.8465,-3.9744,-4.061,-4.1145,-4.181,-4.2208,-4.2369,-4.2391,-4.2432,-4.245,-4.2591,-4.2786,-4.2882,0.0,0.0,0.0,0.0,0.0,0.0,0.0,0.0,0.0,0.0,0.0,0.0,0.0,0.0,0.0,0.0,0.0,0.0,0.0,0.0,-0.5867,-0.6036,-0.693,-0.8075,-0.9501,-0.9728,-1.0368,-1.1417,-1.2096,-1.2397,-1.2434,-1.2359,-1.1169,-0.914,-0.9052,-0.8114,-0.6555,-0.6505,-0.6488,0.0,0.0,0.0,0.0,0.0,0.0,0.0,0.0,0.0,0.0,0.0,0.0,0.0,0.0,0.0,-0.9956,-0.9918,-1.0097,-1.0622,-1.2034,-1.3164,-1.4224,-1.5684,-1.6181,0.0,-1.7093,-1.7209,0.0,-1.8013,0.0,0.0,0.0,-2.0916,-2.2792,-2.4898,-2.6383,-2.7769,-2.9123,0.0,-3.0377,-3.041,-3.0476,-3.079,-3.1467,-3.1632,-3.2006,-3.2713,-3.3078,-3.3587,-3.4303,-3.4966,-3.5641,-3.6385,-3.6731,-3.693,-3.693,-3.693,-3.6574,-3.589,-3.6301,-3.6444,-3.6502,-3.7079,-3.7718,-3.8412,-3.8729,-3.9697,-4.1109,-4.136,-4.1887,-4.2609,-4.2768,-4.2862,-4.2844,-4.2882,-4.2882,-4.2882,0.0,0.0,0.0,0.0,0.0,0.0,0.0,0.0,0.0,0.0,0.0,0.0,0.0,0.0,0.0,0.0,0.0,0.0,0.0,0.0,-0.6102,-0.666,-0.7147,-0.8018,-0.9292,-1.0042,-1.0931,-1.2071,-1.2284,-1.2416,-1.2391,-1.1658,-1.0721,-0.9579,-0.9251,-0.855,-0.7593,-0.7231,-0.7063,-0.7032,0.0,0.0,0.0,0.0,0.0,0.0,0.0,0.0,0.0,0.0,-0.7721,-0.8374,0.0,-0.9366,-0.9931,-1.0084,-1.0348,-1.0713,-1.1449,-1.2866,-1.4371,-1.5399,-1.6242,0.0,0.0,-1.8709,-1.9188,-1.9812,-2.0583,0.0,0.0,0.0,-2.4399,-2.6643,-2.7588,-2.854,-2.9889,-3.0344,-3.0526,-3.0526,-3.0526,-3.0626,-3.0865,-3.1508,-3.2018,-3.2328,-3.3018,-3.3558,-3.3846,-3.4765,-3.5486,-3.5919,-3.6763,-3.7259,-3.7354,-3.7259,-3.7126,-3.6956,-3.6992,-3.6987,-3.7027,-3.7334,-3.7718,-3.8114,-3.8706,-3.9372,-4.0076,-4.0618,-4.1323,-4.21,-4.2663,-4.2882,-4.292,-4.3195,-4.3283,-4.3318,0.0,0.0,0.0,0.0,0.0,0.0,0.0,0.0,0.0,0.0,0.0,0.0,0.0,0.0,0.0,0.0,0.0,0.0,-0.5566,-0.5789,-0.6188,-0.6823,-0.721,-0.7851,-0.8836,-0.9905,-1.0906,-1.1846,-1.2065,-1.2065,-1.1864,-1.1057,-1.0406,-0.988,-0.9352,-0.8958,-0.8631,-0.7826,-0.7509,-0.7478,-0.6918,-0.6638,0.0,0.0,0.0,0.0,0.0,0.0,0.0,0.0,-0.7375,-0.8077,0.0,0.0,-0.9854,-1.0208,-1.0666,-1.1162,-1.1332,-1.2799,-1.4471,0.0,0.0,0.0,-1.9207,-1.9947,-2.0504,-2.1407,-2.1853,0.0,0.0,0.0,0.0,0.0,-2.8454,-2.9135,-3.0344,-3.0526,-3.0526,-3.0526,-3.0593,-3.0651,-3.0651,-3.1412,-3.1918,-3.1918,-3.2616,-3.3151,-3.3448,-3.4302,-3.5133,-3.572,-3.6587,-3.718,-3.7577,-3.7484,-3.7484,-3.7577,-3.7521,-3.7447,-3.741,-3.7594,-3.7775,-3.7935,-3.8563,-3.9047,-3.9441,-3.9948,-4.0654,-4.1524,-4.2341,-4.2741,-4.2902,-4.3413,-4.3652,-4.3749,0.0,0.0,0.0,0.0,0.0,0.0,0.0,0.0,0.0,0.0,0.0,0.0,0.0,0.0,0.0,0.0,0.0,0.0,-0.5566,-0.5789,-0.6009,-0.6278,-0.7,-0.7656,-0.8273,-0.9328,-1.0157,-1.0694,-1.1286,-1.1274,-1.0681,-1.0681,-1.042,-0.988,-0.9352,-0.9254,-0.9432,-0.8213,-0.7756,-0.7759,-0.7144,-0.6787,0.0,0.0,0.0,0.0,0.0,0.0,0.0,0.0,-0.7393,-0.7593,0.0,0.0,0.0,-1.0153,-1.1098,-1.2012,-1.2012,-1.3127,-1.4485,0.0,0.0,0.0,-2.0102,-2.0586,-2.1036,-2.2486,0.0,-2.3725,-2.5089,-2.5278,0.0,-2.7807,-2.885,-2.9665,-3.041,-3.051,-3.0526,-3.051,-3.0797,-3.1015,-3.1015,-3.1329,-3.1504,-3.1504,-3.1765,-3.2241,-3.3038,-3.3547,-3.45,-3.6022,-3.6274,-3.6774,-3.7613,-3.7577,-3.7613,-3.7631,-3.7828,-3.7793,-3.7631,-3.7828,-3.7899,-3.7899,-3.8106,-3.8645,-3.9387,-3.9387,-3.9995,-4.0964,-4.1766,-4.2327,-4.2797,-4.3596,-4.3967,-4.4117,0.0,0.0,0.0,0.0,0.0,0.0,0.0,0.0,0.0,0.0,0.0,0.0,0.0,0.0,0.0,0.0,0.0,0.0,-0.5585,-0.57,-0.5922,-0.6278,-0.6505,-0.6785,-0.71,-0.7789,-0.8991,-1.0694,-1.0508,-1.0307,-1.0144,-0.9742,-0.978,-1.0185,-0.983,-0.9804,-0.9972,-0.8675,-0.8355,-0.8631,-0.7649,-0.7212,0.0,0.0,0.0,0.0,0.0,0.0,0.0,0.0,0.0,0.0,0.0,0.0,-1.0246,-1.0709,-1.1399,-1.2038,-1.2238,-1.3646,0.0,-1.5914,0.0,0.0,0.0,-2.1218,0.0,0.0,-2.4651,-2.5544,-2.6179,0.0,0.0,-2.8616,-2.9147,-2.9746,-3.0697,-3.0855,-3.0935,-3.1196,-3.1274,-3.1368,-3.1368,-3.1617,-3.1785,-3.1785,-3.2073,-3.2389,-3.2738,-3.344,-3.4107,-3.4804,-3.5444,-3.6211,-3.719,-3.7054,-3.7341,-3.8038,-3.7934,-3.7864,-3.7828,-3.8003,-3.8124,-3.8106,-3.8192,-3.8337,-3.8624,-3.9319,-3.9942,-4.051,-4.1286,-4.2106,-4.2901,-4.3361,-4.3966,-4.4553,0.0,0.0,0.0,0.0,0.0,0.0,0.0,0.0,0.0,0.0,0.0,0.0,0.0,0.0,0.0,0.0,0.0,0.0,0.0,-0.5662,-0.5885,-0.6278,-0.6295,-0.6493,-0.6906,-0.7231,-0.8043,-0.9391,-0.9315,-0.9378,-0.9566,-0.936,-0.9687,-1.0444,-1.0174,-1.0135,-1.022,-0.9185,-0.881,-0.888,-0.8126,-0.7673,-0.7406,0.0,0.0,0.0,0.0,0.0,0.0,0.0,0.0,0.0,0.0,0.0,0.0,-1.0814,-1.1641,-1.241,-1.3406,-1.4729,0.0,-1.7169,-1.9069,-2.0987,-2.2347,0.0,0.0,0.0,0.0,-2.6574,-2.6769,-2.7741,0.0,-2.9132,-2.9689,-3.0256,-3.0908,-3.1134,-3.1274,-3.1483,-3.1579,-3.1691,-3.1748,-3.2002,-3.2214,-3.2283,-3.2489,-3.2623,-3.2705,-3.3232,-3.3755,-3.4267,-3.4853,-3.5598,-3.6508,-3.6717,-3.7115,-3.7721,-3.7928,-3.8003,-3.8003,-3.814,-3.8192,-3.8225,-3.8336,-3.8401,-3.8469,-3.9222,-3.9684,-4.0037,-4.0858,-4.1592,-4.2335,-4.2872,-4.3649,-4.4463,0.0,0.0,0.0,0.0,0.0,0.0,0.0,0.0,0.0,0.0,0.0,0.0,0.0,0.0,0.0,0.0,0.0,0.0,0.0,0.0,-0.5848,-0.626,-0.6295,-0.6645,-0.7319,-0.7331,-0.7331,-0.7331,-0.7926,-0.8499,-0.9025,-0.9305,-0.9876,-1.0649,-1.0418,-1.0271,-1.0192,-0.9562,-0.9052,-0.8654,-0.8472,-0.7994,-0.7406,-0.7406,0.0,0.0,0.0,0.0,0.0,0.0,0.0,0.0,-0.7504,-0.7954,-0.8595,-1.0561,-1.1779,-1.2931,-1.4947,0.0,0.0,-1.8591,-1.9722,0.0,-2.3315,-2.4713,-2.5497,-2.5567,0.0,-2.7049,-2.7115,-2.8197,-2.9214,-2.9499,-3.0363,-3.1015,-3.1095,-3.1351,-3.1559,-3.1596,-3.1802,-3.2038,-3.2214,-3.2454,-3.2705,-3.2884,-3.2916,-3.2916,-3.2916,-3.3024,-3.344,-3.4173,-3.4418,-3.4896,-3.5693,-3.6417,-3.6834,-3.7029,-3.7721,-3.8153,-3.8225,-3.8225,-3.8225,-3.8256,-3.8597,-3.8759,-3.8818,-3.9117,-3.9396,-3.9722,-4.0457,-4.0984,-4.1412,-4.221,-4.313,-4.4017,0.0,0.0,0.0,0.0,0.0,0.0,0.0,0.0,0.0,0.0,0.0,0.0,0.0,0.0,0.0,0.0,0.0,0.0,0.0,0.0,-0.5644,-0.6045,-0.6378,-0.6614,-0.6774,-0.6774,-0.6774,-0.6774,-0.7319,-0.7901,-0.8474,-0.8744,-0.9419,-1.0379,-1.0338,-1.0074,-0.9619,-0.8858,-0.8477,-0.8346,-0.7837,-0.7545,-0.7406,-0.7406,-0.7056,0.0,0.0,0.0,0.0,0.0,0.0,0.0,-0.7775,-0.8494,-0.925,-1.0326,-1.1525,-1.2829,-1.4317,-1.5858,0.0,0.0,-2.0928,-2.3278,-2.5203,-2.5855,-2.5917,-2.5535,-2.64,-2.7408,-2.8004,-2.8797,-2.9639,-3.052,-3.0834,-3.1173,-3.1637,-3.1748,-3.1912,-3.2161,-3.2335,-3.2472,-3.2488,-3.2705,-3.2834,-3.2884,-3.2916,-3.2948,-3.3055,-3.3086,-3.3268,-3.3569,-3.3635,-3.4045,-3.486,-3.5041,-3.5747,-3.7011,-3.7192,-3.7689,-3.8415,-3.8274,-3.8336,-3.8628,-3.8952,-3.9216,-3.9408,-3.9483,-3.9693,-3.9994,-4.0165,-4.0745,-4.1495,-4.1666,-4.2698,-4.4017,0.0,0.0,0.0,0.0,0.0,0.0,0.0,0.0,0.0,0.0,0.0,0.0,0.0,0.0,0.0,0.0,0.0,0.0,0.0,-0.5397,-0.5625,-0.5979,-0.6395,-0.6599,-0.6599,-0.6599,-0.6599,-0.6599,-0.6887,-0.7528,-0.8512,-0.9316,-1.0057,-1.0677,-1.0578,-1.0092,-0.9262,-0.8591,-0.8127,-0.7864,-0.7839,-0.7663,-0.7406,-0.7406,-0.713,-0.6723,-0.6633,0.0,0.0,0.0,0.0,0.0,0.0,0.0,-0.867,-1.0111,-1.1256,-1.2609,0.0,0.0,0.0,-2.0618,0.0,-2.4163,-2.5837,-2.622,-2.6132,-2.5828,-2.6603,-2.747,-2.7964,-2.8937,-2.985,-3.0565,-3.1113,-3.1524,-3.1858,-3.202,-3.2214,-3.2473,-3.2557,-3.2654,-3.2816,-3.293,-3.3042,-3.3135,-3.3135,-3.3165,-3.3226,-3.3256,-3.3304,-3.3411,-3.3393,-3.3651,-3.4138,-3.459,-3.525,-3.6157,-3.7,-3.7919,-3.8828,-3.8658,-3.873,-3.8952,-3.9308,-3.9524,-3.9656,-3.9848,-4.0036,-4.0195,-4.0195,-4.0482,-4.0922,-4.0922,-4.1724,-4.287,0.0,0.0,0.0,0.0,0.0,0.0,0.0,0.0,0.0,0.0,0.0,0.0,0.0,0.0,0.0,0.0,0.0,0.0,0.0,-0.5482,-0.5708,-0.5979,-0.6395,-0.6599,-0.6599,-0.6633,-0.6633,-0.6599,-0.6769,-0.7558,0.0,0.0,-1.0832,-1.1122,-1.1019,-1.0214,-0.8937,-0.8487,-0.7889,-0.7306,-0.7801,-0.7721,-0.7313,-0.7313,-0.715,-0.6891,-0.674,-0.6858,-0.7042,-0.696,0.0,0.0,0.0,0.0,-0.7812,-0.969,-1.0802,-1.2133,0.0,0.0,-1.889,-2.249,-2.3687,0.0,-2.5706,-2.612,-2.622,-2.622,-2.6684,-2.7225,-2.7631,-2.8693,-2.9715,-3.0304,-3.1126,-3.1774,-3.1985,-3.2249,-3.2473,-3.2639,-3.2672,-3.2802,-3.3086,-3.3117,-3.3226,-3.3411,-3.3393,-3.3393,-3.3393,-3.3393,-3.3422,-3.3452,-3.3452,-3.3549,-3.3753,-3.4494,-3.4979,-3.5262,-3.6938,-3.8228,-3.9076,-3.8999,-3.9074,-3.9308,-3.9641,-3.9794,-3.9835,-4.0157,-4.031,-4.031,-4.031,-4.031,-4.031,-4.031,-4.0807,-4.1609,0.0,0.0,0.0,0.0,0.0,0.0,0.0,0.0,0.0,0.0,0.0,-0.4902,-0.5069,-0.5108,0.0,0.0,0.0,0.0,-0.5291,0.0,0.0,-0.5998,-0.6395,-0.6599,-0.6599,-0.6774,-0.6774,-0.6599,-0.7415,0.0,0.0,0.0,0.0,-1.1269,-1.1479,-1.0414,-0.8399,-0.8336,-0.7676,-0.6712,-0.6799,-0.688,-0.6962,-0.6962,-0.694,-0.6924,-0.6993,-0.6977,-0.6944,-0.7042,-0.7203,0.0,0.0,0.0,-0.7734,-0.8609,-0.9757,-1.0975,0.0,0.0,-1.8569,0.0,-2.3488,-2.4216,0.0,0.0,-2.622,0.0,-2.6286,-2.6607,-2.7547,-2.7851,-2.8588,-3.042,-3.0872,-3.129,-3.2366,-3.2539,-3.2639,-3.2852,-3.2961,-3.3055,-3.3086,-3.3256,-3.3364,-3.3393,-3.3393,-3.3393,-3.3393,-3.3393,-3.3481,-3.3643,-3.3643,-3.3753,-3.3947,-3.4191,-3.4631,-3.5317,-3.6531,-3.7642,-3.8603,-3.8753,-3.9131,-3.9664,-4.0039,-4.0215,-4.0215,-4.0272,-4.031,-4.031,-4.031,-4.031,-4.031,-4.031,-4.0807,-4.1609,0.0,0.0,0.0,0.0,0.0,0.0,0.0,0.0,0.0,0.0,0.0,-0.5,-0.5088,-0.5108,0.0,0.0,0.0,0.0,-0.5406,-0.5789,0.0,0.0,-0.6395,-0.6599,-0.6599,-0.6791,-0.6858,-0.6774,0.0,0.0,0.0,-1.0669,-1.13,0.0,0.0,0.0,0.0,0.0,0.0,-0.6599,-0.6599,-0.7142,-0.7888,-0.7174,-0.7458,-0.8136,-0.7367,-0.7187,-0.7298,-0.7282,-0.7617,-0.8019,-0.7629,0.0,0.0,0.0,-0.9282,0.0,-1.3612,-1.6423,-1.9252,0.0,-2.3139,-2.3686,-2.4845,0.0,-2.5706,-2.612,-2.622,-2.6445,-2.7182,-2.764,-2.834,-2.9532,-3.0119,-3.0777,-3.183,-3.2001,-3.2257,-3.2939,-3.3055,-3.3147,-3.3256,-3.3364,-3.3393,-3.3393,-3.3393,-3.3452,-3.3549,-3.3597,-3.3743,-3.3972,-3.4012,-3.4141,-3.4348,-3.4461,-3.5023,-3.5981,-3.6402,-3.7107,-3.8061,-3.8652,-3.9318,-4.0039,-4.0215,-4.031,-4.031,-4.031,-4.031,-4.031,-4.031,-4.031,-4.031,-4.031,-4.052,-4.1017,0.0,0.0,0.0,0.0,0.0,0.0,0.0,0.0,0.0,0.0,0.0,0.0,-0.5088,0.0,0.0,0.0,0.0,0.0,-0.5454,0.0,0.0,0.0,0.0,-0.6599,-0.6599,-0.6791,-0.6908,0.0,0.0,0.0,-1.1215,-1.1262,-1.2076,0.0,-1.2622,-1.1269,0.0,0.0,0.0,0.0,-0.7134,-0.7841,-0.8806,-0.8387,-0.8996,-0.9854,-0.847,-0.811,-0.8235,-0.784,-0.799,-0.8288,-0.7953,-0.8085,0.0,0.0,0.0,0.0,0.0,0.0,-1.8459,-2.1328,-2.2344,-2.2957,0.0,0.0,-2.5259,0.0,-2.6106,-2.6468,-2.6973,-2.7483,-2.8061,-2.8829,-2.9449,-3.018,-3.1173,-3.1311,-3.1689,-3.2769,-3.2889,-3.301,-3.3375,-3.3393,-3.3393,-3.3393,-3.3452,-3.3549,-3.3734,-3.3858,-3.4018,-3.4298,-3.4353,-3.4467,-3.4674,-3.4812,-3.5324,-3.6184,-3.6077,-3.6497,-3.7426,-3.8285,-3.9145,-3.9986,-4.0215,-4.031,-4.031,-4.031,-4.031,-4.031,-4.031,-4.031,-4.031,-4.0291,-4.031,-4.0539,0.0,0.0,0.0,0.0,0.0,0.0,0.0,0.0,0.0,0.0,0.0,0.0,0.0,0.0,0.0,0.0,0.0,0.0,0.0,0.0,0.0,0.0,0.0,0.0,-0.6599,-0.6791,-0.6908,0.0,0.0,0.0,-1.1215,-1.1399,-1.2484,-1.4219,-1.3598,-1.1748,-0.9138,0.0,0.0,0.0,0.0,-0.8813,-0.9199,-1.1183,-1.1989,-1.1899,-1.0742,-1.024,-0.9993,-0.8906,-0.8143,-0.7764,-0.8362,-0.8143,-0.7648,0.0,0.0,0.0,0.0,-1.3737,0.0,-1.8716,-2.078,0.0,0.0,0.0,-2.5127,-2.516,-2.5931,-2.6691,-2.7117,-2.7137,-2.7506,-2.8876,-2.9107,-2.9526,-3.0586,-3.0722,-3.1132,-3.2133,-3.2252,-3.256,-3.3321,-3.3393,-3.3393,-3.3393,-3.3577,-3.3734,-3.3795,-3.4037,-3.4298,-3.4572,-3.4572,-3.4674,-3.487,-3.502,-3.5147,-3.5267,-3.525,-3.5709,-3.6604,-3.7406,-3.8247,-3.9107,-3.9947,-4.031,-4.031,-4.031,-4.031,-4.031,-4.031,-4.031,-4.0291,-4.0308,-4.0307,-4.0556,0.0,0.0,0.0,0.0,0.0,0.0,0.0,0.0,0.0,0.0,0.0,0.0,0.0,-0.5108,-0.5108,-0.5108,0.0,0.0,0.0,0.0,0.0,0.0,0.0,0.0,0.0,-0.6891,0.0,0.0,0.0,-0.8436,-1.0181,-1.0647,-1.1079,-1.1516,-1.2637,-1.202,-1.0107,-0.9762,0.0,0.0,0.0,-1.0417,-1.1626,-1.1585,-1.2653,-1.3967,-1.2303,0.0,0.0,0.0,-1.0015,-0.9358,-0.8784,-0.874,-0.8709,-0.7866,-0.8199,0.0,0.0,0.0,0.0,-1.8009,-1.9569,-2.0664,-2.1913,-2.2957,-2.4048,-2.5227,-2.5762,-2.6343,-2.7387,-2.7491,-2.7639,-2.8408,-2.85,-2.8869,-2.9853,-2.9988,-3.035,-3.1329,-3.189,-3.2306,-3.2596,-3.3211,-3.3615,-3.3643,-3.3876,-3.4105,-3.4311,-3.4505,-3.4693,-3.4927,-3.4963,-3.5018,-3.5089,-3.5143,-3.5176,-3.5209,-3.5209,-3.5362,-3.5687,-3.6547,-3.7101,-3.7483,-3.8858,-3.9794,-4.031,-4.031,-4.031,-4.031,-4.031,-4.031,-4.0291,-4.0308,-4.0307,-4.0537,0.0,0.0,0.0,0.0,0.0,0.0,0.0,0.0,0.0,-0.4812,0.0,0.0,0.0,0.0,-0.5108,-0.5108,-0.5166,-0.5311,-0.5549,0.0,0.0,0.0,0.0,0.0,0.0,0.0,0.0,0.0,0.0,0.0,0.0,-1.0015,-1.0193,-1.0231,-1.1573,-1.1516,0.0,0.0,0.0,-0.9665,0.0,0.0,-1.3115,-1.3197,-1.4342,-1.5748,-1.4239,0.0,0.0,0.0,0.0,-1.0951,-0.9904,-0.9424,-0.9046,-0.7924,-0.8389,0.0,-1.1215,0.0,0.0,0.0,0.0,-1.9349,-2.135,0.0,-2.3012,-2.4605,-2.5217,-2.5855,-2.7214,-2.7487,-2.7632,-2.8192,-2.8273,-2.8506,-2.9161,-2.926,-2.9593,-3.0496,-3.1057,-3.1519,-3.1865,-3.251,-3.2989,-3.308,-3.3343,-3.3571,-3.3785,-3.3961,-3.4262,-3.4725,-3.4776,-3.4923,-3.5209,-3.5209,-3.5209,-3.5209,-3.5209,-3.5209,-3.5229,-3.6107,-3.6491,-3.6604,-3.8266,-3.9336,-3.989,-4.0196,-4.031,-4.031,-4.031,-4.031,-4.0291,-4.0326,-4.0325,-4.0553,0.0,0.0,0.0,0.0,0.0,0.0,0.0,0.0,-0.5039,-0.4832,0.0,0.0,0.0,0.0,0.0,-0.5127,-0.5186,-0.5244,-0.5291,-0.5752,0.0,0.0,0.0,0.0,0.0,0.0,0.0,0.0,0.0,0.0,0.0,0.0,-0.9946,-1.061,-1.0534,-1.0244,-0.9969,0.0,-1.2048,-1.1415,0.0,-1.3129,-1.3471,0.0,-1.7214,-1.7171,-1.6503,-1.6256,0.0,-1.4136,0.0,-1.2328,-1.1707,-1.018,-0.8522,-0.7851,-0.8143,-0.8899,0.0,0.0,0.0,0.0,0.0,0.0,-2.1002,0.0,-2.2086,-2.318,-2.4202,-2.5321,-2.6534,-2.6994,-2.741,-2.8244,-2.8406,-2.8432,-2.8587,-2.8587,-2.8902,-2.9663,-2.9797,-3.0202,-3.1159,-3.1347,-3.15,-3.17,-3.1944,-3.2127,-3.2203,-3.2458,-3.3013,-3.3929,-3.3987,-3.4369,-3.5171,-3.519,-3.5209,-3.5209,-3.5209,-3.5209,-3.5229,-3.6088,-3.647,-3.6566,-3.8209,-3.8935,-3.903,-3.9928,-4.031,-4.031,-4.031,-4.031,-4.031,-4.0381,-4.0415,-4.053,0.0,0.0,0.0,0.0,0.0,-0.5069,-0.5039,-0.5069,-0.5069,0.0,0.0,0.0,-0.5108,-0.541,-0.5596,-0.5596,-0.5627,-0.5582,-0.5456,-0.5745,-0.5979,-0.6147,-0.6436,-0.6689,-0.6908,-0.6993,-0.7155,-0.7392,-0.7499,-0.7747,-0.8156,-0.8653,-0.8826,-0.8799,-0.9987,-0.9897,-0.895,-0.9987,0.0,-1.1666,-1.2323,-1.3693,0.0,0.0,0.0,0.0,0.0,-1.7345,-1.6851,0.0,-1.5095,-1.3513,-1.1983,-1.0805,-0.9855,-0.9231,-0.9931,-1.0922,-1.0905,0.0,0.0,0.0,0.0,0.0,0.0,0.0,-2.0107,-2.2548,-2.3259,-2.405,-2.6002,-2.6435,-2.673,-2.7543,-2.8157,-2.8562,-2.8587,-2.8587,-2.8677,-2.892,-2.9573,-3.0161,-3.0467,-3.1302,-3.1902,-3.2049,-3.2297,-3.2477,-3.2559,-3.2626,-3.2791,-3.3051,-3.3662,-3.4101,-3.4331,-3.4904,-3.5209,-3.5209,-3.5209,-3.5209,-3.5209,-3.5458,-3.5572,-3.563,-3.6719,-3.7557,-3.8242,-3.9696,-4.0308,-4.0308,-4.0363,-4.0363,-4.0381,-4.0452,-4.0466,-4.06,0.0,0.0,0.0,-0.5088,-0.5098,-0.5166,-0.5351,-0.5224,-0.5176,0.0,0.0,0.0,-0.5381,-0.5957,-0.6205,-0.5832,-0.5803,-0.568,-0.5389,-0.5708,-0.5973,-0.6112,-0.6418,-0.6689,-0.6908,-0.7026,-0.7203,-0.7392,-0.753,-0.7605,-0.7605,-0.7996,-0.799,-0.7675,-0.8806,-0.886,-0.8187,-0.8588,-0.9796,0.0,-1.3037,0.0,0.0,-1.6735,-1.7737,0.0,0.0,0.0,-1.7954,-1.7708,-1.6343,0.0,0.0,0.0,-1.1547,-1.0749,-1.151,-1.2531,-1.2282,-1.3057,0.0,0.0,0.0,0.0,-1.7913,-1.8351,-1.907,0.0,-2.254,-2.3271,-2.5321,-2.5697,-2.5968,-2.6783,-2.7308,-2.7809,-2.8496,-2.8587,-2.8587,-2.8587,-2.9211,-2.9682,-2.9824,-3.0594,-3.1148,-3.1309,-3.1499,-3.1615,-3.1656,-3.1656,-3.1809,-3.2138,-3.2649,-3.3089,-3.3452,-3.4273,-3.4694,-3.4694,-3.5037,-3.5209,-3.5209,-3.5209,-3.5209,-3.5248,-3.6124,-3.6982,-3.7915,-3.927,-4.0036,-4.0362,-4.0379,-4.0398,-4.0415,-4.0485,-4.0502,-4.0559,0.0,0.0,-0.5107,-0.5175,-0.5175,-0.5331,-0.5803,-0.5518,-0.539,0.0,-0.5557,-0.5506,-0.6038,-0.6729,-0.6855,-0.6087,-0.5931,-0.5695,-0.5294,-0.5665,-0.5918,-0.5991,-0.6378,-0.6689,-0.6908,-0.7026,-0.7203,-0.7392,-0.753,-0.7605,-0.7605,-0.7605,-0.7438,-0.7139,-0.7453,-0.7636,-0.768,-0.7842,-0.9175,-1.1367,-1.3953,-1.5197,0.0,0.0,-1.8245,-1.8375,-1.8912,-1.9101,-1.9051,-1.8462,-1.7155,0.0,0.0,0.0,-1.3624,-1.2621,-1.3202,0.0,-1.4009,-1.4537,0.0,0.0,-1.6369,0.0,-1.8643,-1.8552,-1.8584,0.0,-2.1706,-2.25,-2.4274,-2.4621,-2.495,-2.5674,-2.5945,-2.6579,-2.8117,-2.8406,-2.8485,-2.8511,-2.8819,-2.9126,-2.9334,-2.9644,-2.9921,-3.0102,-3.0176,-3.0204,-3.0204,-3.0204,-3.0529,-3.1236,-3.1369,-3.179,-3.2558,-3.3528,-3.3987,-3.4006,-3.4808,-3.5209,-3.5209,-3.5209,-3.5207,-3.5245,-3.6039,-3.6878,-3.774,-3.8665,-3.9586,-4.0415,-4.0396,-4.0396,-4.0432,-4.0482,-4.0499,-4.0499,0.0,-0.501,-0.5164,-0.5584,-0.5654,-0.5791,-0.6221,-0.6211,-0.6191,-0.6279,-0.6533,-0.7012,-0.7822,-0.7715,-0.7501,-0.7335,-0.6699,-0.6104,-0.5705,-0.5817,-0.59,-0.5918,-0.636,-0.6689,-0.6908,-0.7026,-0.7203,-0.7392,-0.753,-0.7605,-0.7605,-0.7605,-0.7499,-0.7345,-0.7514,-0.7555,-0.7562,-0.9236,-1.0496,-1.1508,-1.2545,-1.4529,-1.6938,-1.7853,-1.8506,-1.8941,-1.9058,-1.925,-1.9353,-1.8981,-1.8601,-1.8104,0.0,-1.6556,-1.6283,-1.5801,-1.6266,-1.6838,-1.6442,-1.6954,-1.7428,-1.6749,-1.6828,0.0,-1.6309,-1.6903,-1.7855,0.0,-1.9421,-2.0306,-2.1685,-2.2446,-2.2912,-2.3181,-2.4298,-2.5515,-2.6524,-2.7236,-2.7683,-2.7848,-2.8673,-2.9336,-2.9589,-2.9891,-3.0083,-3.0157,-3.0185,-3.0204,-3.0204,-3.0204,-3.0261,-3.0433,-3.1102,-3.156,-3.1732,-3.3242,-3.3987,-3.4006,-3.4859,-3.5277,-3.5277,-3.527,-3.5285,-3.5285,-3.5473,-3.6063,-3.6976,-3.7813,-3.908,-4.0466,-4.0476,-4.0492,-4.0492,-4.0492,-4.0508,-4.0508,-0.4892,-0.4951,-0.5143,-0.5617,-0.5759,-0.6019,-0.665,-0.6553,-0.6562,-0.6985,-0.7637,-0.8057,-0.8057,-0.8242,-0.8105,-0.7442,-0.6874,-0.6385,-0.5975,-0.5987,-0.602,-0.6057,-0.6366,-0.6621,-0.674,-0.6977,-0.7155,-0.7251,-0.7484,-0.7605,-0.7605,-0.7605,-0.7954,-0.8572,-0.7896,-0.8159,-0.9113,-0.9424,-1.0479,-1.2076,-1.3673,0.0,-1.7316,-1.8288,-1.8914,-1.931,-1.9406,-1.9624,-1.9768,-1.9137,-1.8958,0.0,-1.7946,-1.7884,-1.813,-1.7726,-1.8153,-1.8665,-1.8292,-1.8506,-1.8716,-1.812,-1.7739,0.0,0.0,-1.7054,-1.7535,-1.892,-1.936,-1.9942,-2.1334,-2.1975,-2.2329,-2.2473,-2.352,-2.4356,-2.4444,-2.5823,-2.6848,-2.7004,-2.7684,-2.8222,-2.835,-2.9049,-2.9704,-3.0166,-3.0204,-3.0204,-3.0204,-3.0204,-3.0204,-3.0204,-3.0624,-3.0854,-3.0854,-3.2076,-3.2932,-3.3421,-3.4259,-3.4887,-3.5304,-3.53,-3.5315,-3.5315,-3.535,-3.5844,-3.6738,-3.7137,-3.8324,-3.9938,-4.0335,-4.0489,-4.0489,-4.0489,-4.0489,-4.0489,-0.4823,-0.4911,-0.5123,-0.5552,-0.5783,-0.6162,-0.6943,-0.6836,-0.6992,-0.79,-0.8668,-0.8898,-0.8365,-0.8925,-0.897,-0.8046,-0.7431,-0.7007,-0.6804,-0.6455,-0.6327,-0.6495,-0.651,-0.6589,-0.6749,-0.6977,-0.7107,-0.7107,-0.7438,-0.7605,-0.7605,-0.7605,-0.8295,-0.9531,-0.8489,-0.9051,0.0,0.0,0.0,-1.3227,0.0,-1.6597,-1.7156,-1.8506,-1.9156,-1.9409,-1.9849,-2.0139,-2.0234,-1.9577,-1.9341,-1.9249,-1.8825,-1.9106,-1.9496,-1.9276,-1.965,-2.0106,-1.9894,-1.986,-1.9838,-1.964,-1.8849,-1.8128,0.0,0.0,0.0,-1.9365,-1.9668,0.0,0.0,0.0,0.0,-2.2001,0.0,0.0,0.0,-2.4139,0.0,-2.5863,-2.654,-2.7006,-2.704,-2.7869,-2.879,-2.965,-2.9726,-2.9784,-2.9937,-3.0109,-3.0204,-3.0204,-3.0204,-3.0204,-3.0204,-3.1006,-3.18,-3.257,-3.3547,-3.44,-3.5066,-3.5254,-3.533,-3.533,-3.5398,-3.5816,-3.6483,-3.6647,-3.7623,-3.9123,-3.995,-4.0354,-4.0489,-4.0489,-4.0489,-4.0489,-0.4873,-0.4941,-0.5143,-0.5614,-0.6048,-0.6465,-0.6872,-0.7285,-0.7939,-0.9072,-0.9389,-0.9791,-1.0458,0.0,0.0,0.0,-0.953,-0.8739,-0.9173,-0.7702,-0.7047,-0.76,-0.6901,-0.6746,-0.7294,-0.7174,-0.7107,-0.7107,-0.7438,-0.7605,-0.7605,-0.7605,-0.7997,-0.8762,-0.9359,0.0,0.0,0.0,-1.3491,0.0,-1.6278,-1.6524,0.0,-1.8062,-1.8758,-1.9057,-2.0329,-2.078,-2.0845,0.0,-2.075,-2.0505,-2.1036,-2.0863,-2.0588,-2.125,-2.1437,-2.1425,-2.1507,-2.152,-2.1205,-1.9915,-1.9975,-1.9704,-1.72,0.0,-1.8252,-1.8023,0.0,0.0,0.0,0.0,0.0,0.0,0.0,0.0,-2.0734,-2.2039,-2.3404,-2.4258,-2.5931,-2.706,-2.7161,-2.6887,-2.7052,-2.7931,-2.7988,-2.8313,-2.9006,-2.9784,-3.0204,-3.0204,-3.0204,-3.0204,-3.0204,-3.1068,-3.1541,-3.1675,-3.3316,-3.4131,-3.426,-3.5095,-3.5493,-3.5493,-3.5493,-3.5532,-3.5685,-3.6411,-3.7276,-3.8238,-3.9104,-3.9873,-4.0489,-4.0489,-4.0489,-4.0489,-0.4843,-0.4902,-0.5093,-0.5558,-0.5902,-0.6266,-0.6771,-0.7326,-0.787,-0.8337,-0.9338,-1.0317,0.0,0.0,0.0,0.0,0.0,-0.9818,0.0,-0.8587,-0.7996,-0.8088,-0.7625,-0.7422,-0.7509,-0.7538,-0.7404,-0.7107,-0.7438,-0.7605,-0.7605,-0.7605,-0.8474,-1.0052,-0.9944,0.0,-1.3258,0.0,-1.371,0.0,0.0,-1.6055,0.0,-1.8616,-1.9762,-2.0223,-2.0879,-2.1214,-2.1244,-2.0839,-2.0845,-2.1007,-2.09,-2.1016,-2.1246,-2.1587,-2.1694,-2.1738,-2.1781,-2.2215,-2.227,-2.0633,-2.0594,-2.0358,-1.8136,-1.7773,-1.7987,-1.8279,0.0,0.0,0.0,0.0,0.0,0.0,-2.122,0.0,0.0,0.0,-2.1624,-2.2482,0.0,0.0,-2.5729,-2.5696,-2.6168,-2.7593,-2.7172,-2.7445,-2.8834,-2.9235,-2.9688,-3.0185,-3.0199,-3.0199,-3.0204,-3.0603,-3.1052,-3.1583,-3.2812,-3.3678,-3.4186,-3.5089,-3.5493,-3.5493,-3.5493,-3.5493,-3.5545,-3.5872,-3.6488,-3.7334,-3.82,-3.9354,-4.0489,-4.0489,-4.0489,-4.0489,-0.4793,0.0,-0.5015,-0.5355,-0.5694,-0.6165,-0.693,-0.7423,-0.8036,-0.898,-0.96,0.0,-1.1073,-1.2201,0.0,0.0,-1.2177,-1.1534,0.0,-0.9987,-0.9375,-0.9428,-0.8894,-0.8502,-0.8311,-0.8299,-0.7973,-0.7347,-0.7507,-0.7691,-0.7866,-0.7677,-0.8802,-1.092,-1.0561,-1.2188,-1.5103,0.0,-1.463,-1.6076,-1.6364,-1.6771,-1.7469,-1.9369,-2.059,-2.126,-2.1386,-2.1542,-2.1552,-2.0937,-2.0933,-2.1164,-2.0815,-2.1101,-2.1587,-2.1708,-2.199,-2.2237,-2.1949,-2.258,-2.2836,-2.0888,-2.0555,-2.0277,-1.8601,-1.8186,-1.8351,-1.8992,-1.9682,0.0,0.0,0.0,-2.1267,-2.1123,0.0,-2.0766,0.0,-1.9594,0.0,0.0,0.0,0.0,0.0,-2.4011,-2.4664,-2.6435,-2.5952,-2.6346,-2.8128,-2.8643,-2.9178,-2.9822,-3.0079,-3.0207,-3.0199,-3.0266,-3.0612,-3.1258,-3.2148,-3.3019,-3.3872,-3.4757,-3.5276,-3.5493,-3.5493,-3.5493,-3.5493,-3.5493,-3.5968,-3.6796,-3.7661,-3.8892,-4.02,-4.0412,-4.0489,-4.0489,-0.4793,-0.4863,0.0,-0.4931,-0.5464,-0.63,-0.7501,-0.7686,-0.8926,-1.2275,-1.0576,0.0,0.0,0.0,0.0,0.0,0.0,-1.4514,-1.418,-1.2169,-1.1399,-1.2221,-1.089,-1.0146,-1.0134,-0.954,-0.8827,-0.7977,-0.7717,-0.7924,-0.8551,-0.7895,-0.8648,-1.0538,-1.1355,-1.2867,-1.4881,-1.5662,-1.7268,-1.92,-1.864,-1.9513,-2.1036,0.0,-2.0616,-2.1603,-2.1738,-2.1797,-2.1781,-2.1764,-2.146,-2.1165,-2.1628,-2.1642,-2.1565,-2.1965,-2.279,-2.334,-2.2338,-2.268,-2.2719,-2.0246,-1.9634,-1.928,-1.7863,-1.8767,-1.9926,-1.9951,-2.1473,-2.2764,-2.273,-2.2352,-2.1848,-2.1206,-2.1207,0.0,0.0,0.0,0.0,0.0,0.0,0.0,0.0,-2.1607,-2.1921,-2.3613,-2.3888,-2.4721,-2.6383,-2.8013,-2.8911,-2.893,-2.9754,-3.0207,-3.0207,-3.0267,-3.0304,-3.0343,-3.1302,-3.216,-3.2968,-3.3833,-3.4699,-3.5493,-3.5493,-3.5493,-3.5493,-3.5493,-3.5968,-3.6796,-3.7661,-3.8546,-3.9431,-4.02,-4.0489,-4.0489,0.0,0.0,0.0,0.0,0.0,-0.5753,-0.7434,-0.8691,-0.9844,0.0,-1.1346,0.0,0.0,-1.361,-1.4987,0.0,0.0,-1.5556,-1.5761,-1.4051,-1.3132,-1.3467,-1.2993,-1.2412,-1.1791,-1.1269,-1.0529,-0.9513,-0.9122,-0.9046,-0.9249,-0.9031,-0.9492,-1.0567,-1.1874,-1.3645,0.0,0.0,0.0,0.0,0.0,-1.9775,-2.1448,0.0,-2.1142,-2.1738,-2.1781,-2.1797,-2.1797,-2.1797,-2.2005,-2.2338,-2.2692,-2.307,-2.3486,-2.3803,-2.4137,-2.432,-2.396,-2.4572,-2.4682,-2.215,-2.1642,-2.1208,-1.9049,-1.9396,-2.0113,-1.9808,-2.1457,-2.286,-2.2535,-2.2416,-2.2296,-2.2067,-2.1252,-2.0083,0.0,0.0,0.0,0.0,0.0,0.0,0.0,0.0,-2.1507,-2.2778,-2.2878,-2.3926,-2.6269,-2.6937,-2.7772,-2.8931,-2.9238,-2.9685,-3.0247,-3.0343,-3.0348,-3.0304,-3.1244,-3.2122,-3.2929,-3.3795,-3.468,-3.5493,-3.5493,-3.5493,-3.5493,-3.5493,-3.5661,-3.6065,-3.745,-3.818,-3.8604,-3.9988,-4.0489,-4.0489,-0.5159,-0.5452,0.0,0.0,0.0,-0.7177,-0.8435,-0.957,-1.0283,0.0,-1.2776,0.0,-1.3869,0.0,-1.5792,0.0,-1.5792,-1.5925,-1.6219,-1.5558,-1.4992,-1.4716,-1.4676,-1.4291,-1.3459,-1.2928,-1.204,-1.0809,-1.0212,-0.9913,-0.9913,-0.97,-1.0064,0.0,0.0,-1.395,-1.6166,-1.7013,-1.813,0.0,0.0,-2.0376,0.0,-2.1401,-2.1554,-2.1797,-2.1797,-2.2023,-2.2328,-2.2328,-2.2872,-2.3614,-2.3765,-2.4224,-2.4688,-2.4854,-2.516,-2.5345,-2.5011,-2.5599,-2.5761,-2.3491,-2.3064,-2.2609,-2.0481,-2.0866,-2.1524,-2.1018,-2.2335,-2.3572,-2.3565,-2.3217,-2.2833,-2.2542,-2.1509,-1.9974,0.0,-1.657,0.0,0.0,0.0,0.0,0.0,-1.9764,-2.0659,-2.2348,-2.2194,-2.3183,0.0,-2.623,-2.7058,-2.8479,-2.8842,-2.9423,-3.0286,-3.0374,-3.0379,-3.0336,-3.0956,-3.1814,-3.291,-3.3468,-3.4372,-3.5493,-3.5493,-3.5493,-3.5493,-3.5493,-3.5493,-3.568,-3.7353,-3.8007,-3.82,-3.9873,-4.0489,-4.0504,-0.568,-0.5847,-0.5835,-0.5101,-0.7858,0.0,0.0,0.0,-1.0664,0.0,-1.4891,-1.7365,-1.5969,-1.5792,-1.5836,-1.5881,-1.5925,-1.5925,-1.5925,-1.6693,0.0,-1.6107,-1.6017,-1.5739,-1.5138,-1.4446,-1.3375,-1.188,-1.1025,0.0,0.0,0.0,0.0,0.0,-1.2178,0.0,-1.6197,-1.7547,-1.9168,-2.086,-2.1183,-2.134,-2.1371,-2.1678,-2.1844,-2.186,-2.1827,-2.2441,-2.33,-2.33,-2.3973,-2.4863,-2.4863,-2.5011,-2.5218,-2.5218,-2.5928,-2.6433,-2.5495,-2.5802,-2.5952,-2.4287,-2.3835,-2.346,-2.2079,-2.3065,-2.4093,-2.349,-2.4088,-2.4944,-2.5707,-2.471,-2.3502,-2.2707,-2.196,-2.0409,-1.7255,-1.6784,-1.6766,0.0,0.0,0.0,0.0,-1.8697,-1.9463,-2.2079,-2.1774,0.0,0.0,-2.5867,-2.6732,-2.7668,-2.8516,-2.9378,-3.0304,-3.0367,-3.0398,-3.0398,-3.0398,-3.1275,-3.2891,-3.2891,-3.3853,-3.5507,-3.5507,-3.5507,-3.5507,-3.5507,-3.5507,-3.568,-3.7353,-3.8046,-3.8315,-3.9912,-4.0504,-4.0504,-0.5966,-0.6447,-0.7045,0.0,-0.7832,-0.8902,0.0,0.0,0.0,0.0,-1.7103,-1.7365,-1.5969,-1.5792,-1.6219,-1.7282,-1.7365,0.0,0.0,0.0,0.0,-1.737,-1.7528,-1.7453,-1.7098,-1.5976,-1.5143,-1.4586,-1.2787,0.0,-1.1893,0.0,0.0,0.0,0.0,-1.4348,-1.6421,-1.7698,-1.9468,-2.1419,-2.1631,-2.1794,-2.1911,-2.1811,-2.2232,-2.2752,-2.2039,-2.2441,-2.33,-2.33,-2.433,-2.5651,-2.5833,-2.6333,-2.6844,-2.6988,-2.7233,-2.7368,-2.7099,-2.7175,-2.7134,-2.6209,-2.5569,-2.4954,-2.4098,-2.4704,-2.5276,-2.4615,-2.559,-2.6278,-2.5384,-2.4906,-2.4404,-2.359,-2.2363,-2.0789,-1.8761,-1.798,0.0,-1.8415,0.0,0.0,-1.755,-1.862,-1.97,-2.0554,-2.1651,-2.3146,-2.5096,-2.4778,-2.5528,-2.7711,-2.7992,-2.884,-3.0359,-3.0379,-3.0398,-3.0398,-3.0398,-3.1275,-3.2891,-3.2891,-3.3853,-3.5507,-3.5495,-3.5495,-3.5507,-3.5495,-3.5495,-3.568,-3.7353,-3.8757,-3.9912,-4.0335,-4.0539,-4.0573,-0.6611,-0.747,-0.8627,-0.9691,0.0,0.0,-1.1085,-1.318,0.0,-1.5067,-1.6718,0.0,-1.682,-1.6175,-1.6392,-1.7801,-1.7882,0.0,-1.7882,0.0,0.0,-1.7584,-1.8055,-1.8243,-1.8106,-1.7368,-1.6605,-1.5859,-1.4187,0.0,-1.2386,0.0,0.0,0.0,0.0,-1.4471,-1.6425,-1.868,-2.0365,-2.1526,-2.1882,-2.2068,0.0,-2.2466,-2.2912,-2.3354,-2.3152,-2.3667,-2.4431,-2.4569,-2.5519,-2.6714,-2.6864,-2.7208,-2.7569,-2.7672,-2.7701,-2.773,-2.7806,-2.7836,-2.7759,-2.7485,-2.7086,-2.6623,-2.5947,-2.6133,-2.6379,-2.6074,-2.6399,-2.6748,-2.6695,-2.5782,-2.4628,-2.3506,-2.2002,-2.0536,-1.9268,-1.8707,0.0,0.0,-1.8608,0.0,-1.7586,-1.8547,-1.9311,-1.9506,-2.111,-2.2668,-2.3987,-2.4312,-2.5493,-2.7723,-2.7792,-2.8633,-3.0379,-3.0398,-3.0398,-3.0398,-3.0398,-3.1275,-3.2891,-3.2891,-3.3853,-3.5507,-3.5509,-3.5489,-3.5495,-3.5534,-3.5534,-3.5701,-3.739,-3.9066,-4.0549,-4.0549,-4.0569,-4.0588,-0.7278,-0.872,0.0,0.0,0.0,0.0,0.0,-1.1,0.0,-1.1623,0.0,-1.7882,-1.7882,-1.682,-1.6565,-1.7788,-1.7882,-1.7882,-1.7882,-1.7882,-1.772,-1.7323,-1.8068,-1.8553,-1.8616,-1.8484,-1.7728,-1.6339,-1.5183,0.0,0.0,0.0,0.0,0.0,0.0,0.0,0.0,-2.0038,-2.1509,-2.1601,-2.2096,-2.2343,-2.2524,-2.3328,-2.3762,-2.4036,-2.4739,-2.5407,-2.5973,-2.6234,-2.6911,-2.7701,-2.7701,-2.7701,-2.7701,-2.7701,-2.7701,-2.773,-2.794,-2.8014,-2.8042,-2.8191,-2.8246,-2.8094,-2.75,-2.7363,-2.7414,-2.7562,-2.7024,-2.7004,-2.8503,-2.6753,-2.4605,-2.3129,-2.1752,-2.0552,-1.9751,-1.9641,0.0,0.0,0.0,0.0,-1.8549,-1.8744,-1.8932,-1.8896,-2.0346,-2.1636,-2.2543,-2.3932,-2.5611,-2.757,-2.7739,-2.8579,-3.0217,-3.034,-3.0398,-3.0398,-3.0398,-3.1275,-3.2891,-3.291,-3.3853,-3.5488,-3.5502,-3.5515,-3.5515,-3.5572,-3.5739,-3.6074,-3.752,-3.9122,-4.0588,-4.0621,-4.0612,-4.0617,-0.7296,0.0,0.0,0.0,0.0,-1.26,-1.5913,-1.652,-1.5608,-1.2854,-1.5646,-1.7882,-1.7882,-1.7666,-1.7625,-1.7882,-1.7882,0.0,0.0,0.0,0.0,-1.7788,-1.8358,-1.8884,-1.9332,-1.8699,-1.793,-1.694,-1.5538,-1.416,-1.2801,0.0,0.0,0.0,0.0,0.0,-1.8804,-2.0904,0.0,-2.2332,-2.2588,-2.3066,-2.3619,-2.3767,-2.4631,-2.5772,-2.5974,-2.6113,-2.6234,-2.6294,-2.6911,-2.7701,-2.7701,-2.7701,-2.7701,-2.7701,-2.7701,-2.773,-2.794,-2.8014,-2.8071,-2.83,-2.8353,-2.837,-2.8373,-2.8345,-2.8395,-2.8591,-2.8529,-2.8379,-2.819,-2.6705,-2.5134,-2.4099,-2.3787,-2.341,-2.2672,-2.2513,0.0,0.0,0.0,-2.0382,0.0,0.0,0.0,-1.8907,-1.9764,-2.0996,-2.2524,-2.2249,-2.3504,-2.6642,-2.7432,-2.8291,-2.9313,-3.0044,-3.0398,-3.0398,-3.0398,-3.1275,-3.2891,-3.2954,-3.3903,-3.5502,-3.5565,-3.5577,-3.5572,-3.5608,-3.6407,-3.7694,-3.7983,-3.9122,-4.0621,-4.0654,-4.0687,-4.0687,-0.8381,0.0,0.0,0.0,0.0,0.0,0.0,-1.7747,-1.7303,-1.562,-1.6876,-1.7196,-1.5388,-1.681,-1.7882,-1.7882,-1.7882,-1.7882,-1.7882,-1.7882,-1.7882,-1.7882,-1.8669,-1.9236,-1.9479,-1.9431,-1.8803,-1.7624,-1.6194,-1.4829,-1.3455,-1.2462,0.0,-1.262,0.0,-1.7433,0.0,0.0,-2.253,-2.3089,-2.3441,-2.4025,-2.4723,-2.5143,-2.576,-2.6475,-2.6889,-2.7028,-2.7028,-2.7028,-2.7315,-2.7701,-2.7701,-2.7701,-2.7701,-2.7701,-2.776,-2.7893,-2.8053,-2.8164,-2.8246,-2.8458,-2.851,-2.8536,-2.8712,-2.8761,-2.8791,-2.8984,-2.8989,-2.8817,-2.8172,-2.712,-2.6042,-2.517,-2.4687,-2.4143,-2.34,-2.3273,-2.2809,0.0,0.0,0.0,0.0,0.0,0.0,0.0,0.0,-2.0203,-2.1885,-2.2039,-2.3448,-2.6472,-2.7396,-2.8245,-2.9083,-2.9967,-3.0398,-3.0398,-3.0402,-3.1299,-3.2954,-3.2991,-3.3928,-3.556,-3.5589,-3.5601,-3.5608,-3.5631,-3.6636,-3.815,-3.815,-3.9194,-4.0713,-4.0746,-4.0746,-4.0746,-1.0299,-1.1438,0.0,0.0,-1.4664,-1.5478,-1.6976,-1.7584,-1.7882,-1.7882,-1.7882,-1.6837,-1.4111,-1.627,-1.7882,-1.7882,-1.7882,-1.7882,-1.7882,-1.8214,-1.8675,-1.9248,-1.9777,-2.0049,-1.9944,-2.0309,-1.9798,-1.8269,-1.7036,-1.5756,-1.4433,-1.3159,-1.3021,0.0,0.0,-1.9241,-2.0948,-2.2163,-2.3179,-2.4012,-2.4383,-2.498,-2.5717,-2.6367,-2.67,-2.6911,-2.749,-2.7701,-2.7701,-2.7771,-2.7742,-2.7701,-2.7701,-2.773,-2.776,-2.776,-2.7893,-2.8081,-2.8255,-2.8362,-2.851,-2.8669,-2.8718,-2.8743,-2.891,-2.8957,-2.8984,-2.9126,-2.9191,-2.9013,-2.8275,-2.7568,-2.6836,-2.5991,-2.5115,-2.4348,-2.3779,-2.3704,-2.3145,0.0,0.0,0.0,-2.0243,-2.0194,0.0,0.0,-1.8467,-1.9571,-2.1062,-2.1972,-2.364,-2.6233,-2.7341,-2.8198,-2.8832,-2.989,-3.0398,-3.0398,-3.0394,-3.1303,-3.2998,-3.3006,-3.3963,-3.5604,-3.562,-3.5612,-3.5631,-3.5673,-3.669,-3.8199,-3.8199,-3.9262,-4.079,-4.079,-4.079,-4.079,0.0,0.0,0.0,0.0,0.0,-1.6976,-1.7157,-1.7584,-1.7882,-1.7882,-1.7882,-1.7801,-1.745,-1.7706,-1.7882,-1.7882,-1.7882,-1.7882,-1.7882,-1.9258,-2.1164,-2.3605,-2.2631,-2.1826,-2.1412,-2.1342,-2.0483,-1.8837,-1.7922,-1.6929,-1.5875,-1.4858,-1.5193,-1.6808,-1.8689,-2.0605,-2.2449,-2.3175,-2.4154,-2.5242,-2.5269,-2.5788,-2.6507,-2.6578,-2.7016,-2.7613,-2.7683,-2.7701,-2.776,-2.7964,-2.7897,-2.7701,-2.7701,-2.7836,-2.7968,-2.7968,-2.8081,-2.8255,-2.8569,-2.8669,-2.8725,-2.8993,-2.906,-2.906,-2.9082,-2.9082,-2.9126,-2.9332,-2.9531,-2.9364,-2.8446,-2.7778,-2.7078,-2.6212,-2.5489,-2.5019,-2.503,-2.4981,-2.4594,-2.3721,0.0,0.0,-2.117,-1.8507,-1.7309,-1.8584,-1.8809,-1.9311,-2.0249,-2.1146,-2.2785,-2.5349,-2.7033,-2.7928,-2.8005,-2.9602,-3.0398,-3.0398,-3.0394,-3.1303,-3.2998,-3.3068,-3.4017,-3.5601,-3.5654,-3.5684,-3.5684,-3.5704,-3.669,-3.8199,-3.8199,-3.9262,-4.079,-4.079,-4.079,-4.079,0.0,0.0,0.0,0.0,0.0,0.0,0.0,-1.8552,-2.012,-2.1559,-2.0724,-1.9456,-1.8031,-1.9157,-2.0462,-2.1642,-2.1739,-2.1739,-2.1739,-2.2358,-2.3179,-2.4256,-2.4265,-2.3808,-2.2949,-2.234,-2.1569,-2.0508,-1.9142,-1.8189,-1.7566,-1.6572,-1.7117,-1.9034,-2.0565,-2.2058,-2.349,-2.4233,-2.523,-2.6304,-2.6331,-2.6925,-2.7736,-2.7736,-2.7915,-2.8166,-2.8166,-2.8166,-2.8192,-2.835,-2.8237,-2.8037,-2.8183,-2.8316,-2.8438,-2.8438,-2.8515,-2.8664,-2.8785,-2.8879,-2.8966,-2.9064,-2.9086,-2.9126,-2.9251,-2.9272,-2.9332,-2.955,-2.9683,-2.951,-2.8695,-2.791,-2.7148,-2.6401,-2.5615,-2.5126,-2.518,-2.5187,-2.4851,-2.4003,-2.2827,-2.1903,-2.1464,-1.9257,-1.8351,-1.9541,-1.7753,-1.7665,-2.0065,-2.0532,-2.1902,-2.4495,-2.6736,-2.789,-2.789,-2.9555,-3.0394,-3.0414,-3.097,-3.1879,-3.3076,-3.3622,-3.4533,-3.5654,-3.5684,-3.5704,-3.5704,-3.5704,-3.669,-3.8199,-3.8199,-3.9262,-4.079,-4.079,-4.079,-4.079,-1.5209,0.0,-1.7352,0.0,-1.8089,-1.8218,-1.8218,-1.9651,-2.1575,-2.3979,-2.3084,-2.1617,-1.9946,-2.1279,-2.2815,-2.4177,-2.4302,-2.4302,-2.4302,-2.4302,-2.4426,-2.4639,-2.5198,-2.5024,-2.404,-2.3466,-2.2899,-2.2349,-2.0947,-2.019,-2.0025,-1.9308,-1.9807,-2.1327,-2.264,-2.3856,-2.4963,-2.5543,-2.6419,-2.7388,-2.7422,-2.7882,-2.8504,-2.8504,-2.8504,-2.8504,-2.8504,-2.8511,-2.8554,-2.8694,-2.8791,-2.8837,-2.8676,-2.8676,-2.8772,-2.8772,-2.8842,-2.8975,-2.902,-2.9126,-2.9191,-2.9272,-2.9272,-2.9314,-2.9453,-2.9491,-2.9531,-2.9701,-2.9774,-2.9578,-2.8862,-2.8021,-2.7205,-2.6529,-2.5715,-2.518,-2.5258,-2.5269,-2.4933,-2.4039,-2.2948,-2.2068,-2.1556,-1.9937,-1.93,-2.0203,-1.8003,-1.7884,-2.0792,-2.0713,-2.1891,-2.4745,-2.6832,-2.8016,-2.8285,-2.9693,-3.0398,-3.0428,-3.135,-3.2269,-3.3139,-3.4262,-3.5123,-3.5704,-3.5704,-3.5704,-3.5704,-3.5704,-3.669,-3.8199,-3.8199,-3.9262,-4.079,-4.079,-4.079,-4.079,-1.7157,-1.7199,-1.7707,-1.9369,-2.0224,-2.066,-2.066,-2.0686,-2.1575,-2.3979,-2.4261,-2.4245,-2.423,-2.4245,-2.4261,-2.4302,-2.4302,-2.4302,-2.4302,-2.4302,-2.4639,-2.5465,-2.5503,-2.5163,-2.4486,-2.4699,-2.4562,-2.4158,-2.3343,-2.3113,-2.3442,-2.3442,-2.3579,-2.3892,-2.4909,-2.6012,-2.7072,-2.713,-2.7691,-2.8474,-2.8478,-2.8485,-2.8504,-2.8504,-2.8504,-2.8504,-2.8504,-2.8554,-2.8646,-2.8906,-2.9621,-3.0183,-2.9057,-2.8795,-2.8888,-2.8888,-2.8997,-2.9148,-2.9332,-2.9392,-2.9433,-2.9645,-2.9683,-2.9683,-2.9701,-2.9701,-2.9719,-2.979,-2.9808,-2.9595,-2.892,-2.8094,-2.7273,-2.6611,-2.5819,-2.5322,-2.5397,-2.5406,-2.5051,-2.412,-2.2536,-2.1515,-2.1501,-1.9978,-1.9393,-2.0332,-2.0294,-2.095,-2.2575,-2.1921,-2.3043,-2.6467,-2.7428,-2.8305,-2.9184,-2.9993,-3.0428,-3.0499,-3.1379,-3.2269,-3.3158,-3.4881,-3.5684,-3.5704,-3.5704,-3.5704,-3.5704,-3.5704,-3.669,-3.8199,-3.8199,-3.9262,-4.079,-4.079,-4.079,-4.079,-1.8679,-1.9259,-1.974,-2.0316,-2.0574,-2.1166,-2.2452,-2.268,-2.3084,-2.4177,-2.4302,-2.4302,-2.4302,-2.4302,-2.4302,0.0,-2.4302,-2.4302,-2.4302,-2.4302,-2.4902,-2.6245,-2.6315,-2.6094,-2.5615,-2.5547,-2.5507,-2.5365,-2.4637,-2.4477,-2.4784,-2.5024,-2.5181,-2.5319,-2.6126,-2.6728,-2.7125,-2.7723,-2.8254,-2.8822,-2.943,-2.9769,-3.0005,-3.054,-3.0761,-3.0761,-3.0761,-3.0785,-3.0853,-3.1002,-3.1257,-3.1507,-3.1129,-3.1054,-3.1075,-3.1075,-3.1117,-3.1026,-3.0542,-3.0431,-3.032,-2.9814,-2.9701,-2.9701,-2.9701,-2.9738,-2.9773,-2.979,-2.991,-2.957,-2.817,-2.7803,-2.7259,-2.5896,-2.5505,-2.5379,-2.5406,-2.5406,-2.529,-2.4994,-2.3953,-2.3292,-2.3346,-2.1778,-2.1158,-2.2105,-2.1008,-2.0779,-2.1883,-2.2233,-2.3409,-2.563,-2.7181,-2.8367,-2.9201,-3.0134,-3.0617,-3.0644,-3.2126,-3.3567,-3.4958,-3.5472,-3.5704,-3.5704,-3.5704,-3.5704,-3.5742,-3.6331,-3.722,-3.8257,-3.8856,-3.9823,-4.0848,-4.081,-4.0829,-4.0868,-1.9697,-2.0985,-2.1813,-2.1813,-2.1813,-2.2175,-2.3406,-2.3595,-2.3782,-2.4219,-2.4302,-2.4302,-2.4302,-2.4302,0.0,-2.4302,-2.4302,-2.4574,-2.516,-2.5198,-2.5652,-2.6657,-2.6691,-2.6624,-2.6385,-2.643,-2.6478,-2.6557,-2.6237,-2.6212,-2.6419,-2.6631,-2.6777,-2.6939,-2.7399,-2.7853,-2.8304,-2.8833,-2.9399,-2.9976,-3.0549,-3.0909,-3.1117,-3.1597,-3.1782,-3.1782,-3.1782,-3.1868,-3.1933,-3.1974,-3.2262,-3.2589,-3.2572,-3.2799,-3.2912,-3.2274,-3.2105,-3.1992,-3.1504,-3.1147,-3.079,-3.0283,-2.9927,-2.972,-2.9738,-2.9789,-2.9855,-2.9937,-3.0075,-2.9754,-2.8402,-2.7969,-2.74,-2.6073,-2.5608,-2.5456,-2.548,-2.548,-2.5337,-2.4993,-2.4463,-2.4036,-2.3764,-2.306,-2.2867,-2.3486,-2.3062,-2.2871,-2.3093,-2.3245,-2.4268,-2.629,-2.7771,-2.8924,-2.9757,-3.0385,-3.0863,-3.1219,-3.2947,-3.4495,-3.5811,-3.5757,-3.5747,-3.5742,-3.5742,-3.5737,-3.5814,-3.6684,-3.7522,-3.8353,-3.9236,-4.0126,-4.088,-4.0856,-4.0873,-4.0951,-2.0461,-2.236,-2.3595,-2.3595,-2.3595,-2.3595,-2.3595,-2.3595,-2.3782,-2.4219,-2.4302,-2.4302,-2.4302,-2.4302,-2.4343,-2.4451,-2.4451,-2.5082,-2.6624,-2.6691,-2.6691,-2.6691,-2.6758,-2.6825,-2.694,-2.7289,-2.7517,-2.7654,-2.7964,-2.8156,-2.8156,-2.8156,-2.837,-2.8717,-2.8717,-2.9296,-3.0283,-3.0425,-3.0914,-3.1616,-3.1811,-3.1875,-3.1875,-3.1949,-3.1968,-3.1968,-3.1972,-3.2057,-3.2182,-3.2163,-3.2772,-3.3494,-3.3494,-3.4001,-3.4282,-3.2724,-3.2274,-3.2255,-3.2217,-3.1635,-3.1073,-3.0941,-3.0302,-2.9738,-2.979,-2.9853,-2.9958,-3.0169,-3.0266,-3.0078,-2.9331,-2.8502,-2.7652,-2.6928,-2.6064,-2.5524,-2.5595,-2.5601,-2.5278,-2.4406,-2.4303,-2.4005,-2.3266,-2.3913,-2.4425,-2.4493,-2.5993,-2.6556,-2.5741,-2.4987,-2.5654,-2.8023,-2.8946,-2.9823,-3.0696,-3.0717,-3.1178,-3.2127,-3.3793,-3.5035,-3.5814,-3.5801,-3.5806,-3.5814,-3.5822,-3.5803,-3.5864,-3.6811,-3.7684,-3.8496,-3.9417,-4.025,-4.0901,-4.0914,-4.0952,-4.1001,0.0,0.0,-2.3595,-2.3595,-2.3595,-2.3595,-2.3595,-2.3595,-2.3782,-2.4219,-2.4302,-2.4302,-2.4302,-2.4302,-2.4784,-2.6016,-2.6123,-2.628,-2.6691,-2.6691,-2.6691,-2.6691,-2.7195,-2.7444,-2.7365,-2.7636,-2.7982,-2.8352,-2.843,-2.8601,-2.8791,-2.8791,-2.9168,-2.9801,-2.9801,-3.0308,-3.1134,-3.1273,-3.1431,-3.1671,-3.2405,-3.2711,-3.2767,-3.3398,-3.3621,-3.3621,-3.3692,-3.3757,-3.3825,-3.387,-3.4086,-3.432,-3.432,-3.4451,-3.4508,-3.4113,-3.4001,-3.3869,-3.3269,-3.3033,-3.2655,-3.137,-3.0463,-2.9857,-2.9874,-2.9969,-3.0104,-3.0254,-3.0325,-3.0141,-2.9341,-2.8531,-2.7724,-2.6935,-2.61,-2.5589,-2.5601,-2.5604,-2.5517,-2.5298,-2.5274,-2.5219,-2.507,-2.5249,-2.5375,-2.5393,-2.6328,-2.6825,-2.6671,-2.7662,-2.8201,-2.81,-2.8994,-2.9881,-3.07,-3.0806,-3.1599,-3.3082,-3.4117,-3.507,-3.5957,-3.5856,-3.5821,-3.5874,-3.5888,-3.5842,-3.5914,-3.7507,-3.8268,-3.8551,-4.0033,-4.0749,-4.0989,-4.0972,-4.1013,-4.1087,-2.3406,-2.3595,-2.3595,-2.3595,-2.3595,-2.3879,-2.4664,-2.4131,-2.4032,-2.5237,-2.5389,-2.5389,-2.5389,-2.5389,-2.5762,-2.6607,-2.6691,-2.6691,-2.6691,-2.6691,-2.6691,-2.6691,-2.7607,-2.8083,-2.801,-2.8546,-2.9152,-2.9867,-2.9867,-2.996,-3.0099,-3.0099,-3.0338,-3.0742,-3.0742,-3.1201,-3.1953,-3.2103,-3.2354,-3.2742,-3.3314,-3.3547,-3.3603,-3.403,-3.4221,-3.4269,-3.439,-3.4502,-3.4588,-3.4694,-3.4755,-3.4832,-3.4832,-3.4832,-3.4832,-3.4832,-3.4792,-3.4636,-3.4202,-3.3922,-3.3418,-3.2143,-3.1207,-3.0594,-3.0657,-3.045,-3.0278,-3.0419,-3.0501,-3.0393,-2.9976,-2.8888,-2.7896,-2.7477,-2.6379,-2.5601,-2.5601,-2.5609,-2.5746,-2.6155,-2.6193,-2.6373,-2.6802,-2.6841,-2.6866,-2.6898,-2.7666,-2.7978,-2.76,-2.921,-2.9728,-2.8817,-2.9667,-3.035,-3.0785,-3.1624,-3.2692,-3.4004,-3.4844,-3.5508,-3.5996,-3.5925,-3.5908,-3.5957,-3.5942,-3.5929,-3.6033,-3.7812,-3.8513,-3.8652,-4.0332,-4.1015,-4.1054,-4.1054,-4.1073,-4.1101,-2.4006,-2.4006,-2.4006,-2.4006,-2.4006,-2.4486,-2.597,-2.4942,-2.4632,-2.6401,-2.6657,-2.6691,-2.6691,-2.6873,-2.7004,-2.7004,-2.7004,-2.7004,-2.7004,-2.7004,-2.7004,-2.7004,-2.801,-2.8587,-2.8587,-2.9683,-3.0676,-3.1513,-3.1421,-3.1384,-3.1384,-3.1384,-3.1458,-3.1568,-3.1568,-3.2052,-3.2856,-3.2964,-3.3451,-3.413,-3.4269,-3.4316,-3.4316,-3.4316,-3.4344,-3.4413,-3.4612,-3.4734,-3.4851,-3.4977,-3.5062,-3.5114,-3.5114,-3.5114,-3.5114,-3.5114,-3.5032,-3.4982,-3.4945,-3.4475,-3.3776,-3.3101,-3.2272,-3.1642,-3.1616,-3.1094,-3.0598,-3.0615,-3.0653,-3.069,-3.069,-2.9272,-2.81,-2.81,-2.6689,-2.5601,-2.5607,-2.5712,-2.6062,-2.6826,-2.7024,-2.7394,-2.8132,-2.821,-2.8293,-2.8479,-2.9181,-2.9338,-2.8713,-3.0108,-3.0562,-2.9822,-3.0518,-3.0962,-3.1099,-3.2753,-3.3965,-3.4707,-3.5586,-3.5996,-3.5996,-3.5996,-3.5996,-3.5996,-3.5996,-3.6074,-3.6328,-3.794,-3.8671,-3.8961,-4.0503,-4.1108,-4.1108,-4.1108,-4.1108,-4.1108,-2.5807,-2.5807,-2.5807,-2.5807,-2.5807,-2.5881,-2.6168,-2.597,-2.5917,-2.6239,-2.6504,-2.6691,-2.6691,-2.7648,-2.8317,-2.8317,-2.8317,-2.8317,-2.8317,-2.8317,-2.8317,-2.8317,-2.8492,-2.8587,-2.8587,-3.0724,-3.192,-3.2063,-3.1604,-3.1384,-3.1384,-3.1384,-3.1751,-3.2412,-3.2412,-3.2988,-3.3961,-3.4032,-3.4308,-3.4693,-3.4772,-3.4792,-3.4792,-3.4792,-3.4812,-3.4813,-3.4907,-3.4961,-3.4994,-3.5062,-3.5078,-3.5114,-3.5114,-3.5114,-3.5114,-3.5114,-3.5212,-3.5307,-3.5165,-3.4654,-3.4128,-3.4005,-3.335,-3.2571,-3.1849,-3.1581,-3.1342,-3.0793,-3.0695,-3.069,-3.069,-2.9272,-2.81,-2.81,-2.6689,-2.5593,-2.56,-2.6227,-2.6778,-2.6965,-2.7627,-2.8142,-2.8262,-2.8281,-2.8594,-2.9338,-2.9513,-2.9865,-3.047,-3.0745,-3.0831,-3.0703,-3.0839,-3.1249,-3.1992,-3.3652,-3.457,-3.4707,-3.5586,-3.5996,-3.5996,-3.5996,-3.5996,-3.5996,-3.5996,-3.6426,-3.7187,-3.8183,-3.9037,-3.98,-4.0737,-4.1108,-4.1108,-4.1108,-4.1108,-4.1108,-2.622,-2.622,-2.622,-2.622,-2.622,-2.622,-2.622,-2.622,-2.622,-2.622,-2.6486,-2.6971,-2.7648,-2.8264,-2.8587,-2.8587,-3.0188,-3.1202,-3.1202,-2.9572,-2.8587,-2.8587,-3.0278,-3.1266,-3.1407,-3.2507,-3.3054,-3.3054,-3.2797,-3.2764,-3.2915,-3.2915,-3.3178,-3.3673,-3.3673,-3.3975,-3.4467,-3.4551,-3.4653,-3.4812,-3.487,-3.4908,-3.4908,-3.4908,-3.4908,-3.498,-3.5119,-3.5181,-3.5239,-3.5378,-3.5424,-3.5424,-3.5424,-3.5424,-3.5424,-3.5424,-3.5418,-3.5412,-3.5457,-3.5241,-3.5018,-3.4999,-3.44,-3.3694,-3.3306,-3.2502,-3.1773,-3.1464,-3.1033,-3.069,-3.069,-2.9661,-2.8806,-2.8806,-2.7388,-2.6442,-2.6882,-2.6924,-2.7266,-2.8228,-2.872,-2.9162,-2.9591,-2.965,-2.9826,-3.0274,-3.0294,-3.0489,-3.088,-3.0899,-3.0909,-3.0898,-3.1367,-3.2226,-3.3535,-3.4316,-3.4941,-3.541,-3.5801,-3.5995,-3.6009,-3.6009,-3.5992,-3.5995,-3.5995,-3.6483,-3.7361,-3.8236,-3.9108,-3.9976,-4.0795,-4.1108,-4.1108,-4.1108,-4.1108,-4.1108,-2.622,-2.622,-2.622,-2.622,-2.622,-2.622,-2.622,-2.6399,-2.6555,-2.6555,-2.6906,-2.75,-2.8492,-2.9282,-2.9735,-2.9735,-3.1981,-3.3393,-3.3393,-3.1093,-2.9735,-2.9735,-3.2089,-3.3643,-3.4093,-3.4012,-3.3979,-3.403,-3.3979,-3.408,-3.4274,-3.4274,-3.4394,-3.4593,-3.4593,-3.4674,-3.4812,-3.4851,-3.4908,-3.4963,-3.5037,-3.5037,-3.5037,-3.5037,-3.507,-3.5152,-3.5296,-3.5397,-3.5477,-3.5631,-3.5704,-3.5704,-3.5704,-3.5704,-3.5704,-3.5704,-3.5581,-3.55,-3.5667,-3.5708,-3.5718,-3.5718,-3.5251,-3.4745,-3.4551,-3.3499,-3.2536,-3.2341,-3.1603,-3.1001,-3.1001,-3.0127,-2.9408,-2.9415,-2.8178,-2.7426,-2.804,-2.777,-2.8014,-2.9359,-2.9737,-3.0118,-3.0743,-3.0801,-3.0841,-3.0899,-3.0901,-3.0901,-3.0899,-3.1099,-3.1381,-3.1777,-3.2246,-3.3184,-3.4687,-3.4902,-3.5332,-3.5996,-3.5996,-3.5993,-3.5991,-3.5991,-3.5999,-3.6007,-3.6007,-3.6612,-3.7645,-3.8319,-3.9214,-4.0249,-4.0854,-4.1108,-4.1108,-4.1108,-4.1108,-4.1108,-2.622,-2.622,-2.622,-2.622,-2.622,-2.622,-2.622,-2.6989,-2.7595,-2.7595,-2.8101,-2.851,-2.8587,-3.1274,-3.3049,-3.3049,-3.3266,-3.3393,-3.3393,-3.3176,-3.3049,-3.3049,-3.3266,-3.3917,-3.507,-3.4675,-3.4548,-3.4732,-3.4548,-3.4464,-3.4486,-3.4486,-3.4529,-3.4593,-3.4593,-3.4774,-3.507,-3.5088,-3.5223,-3.5446,-3.5446,-3.5465,-3.5465,-3.5465,-3.5455,-3.547,-3.5547,-3.5584,-3.5601,-3.5673,-3.5704,-3.5704,-3.5704,-3.5704,-3.5704,-3.5704,-3.5676,-3.5678,-3.5707,-3.5747,-3.5794,-3.5794,-3.5754,-3.548,-3.4672,-3.44,-3.4089,-3.3351,-3.2516,-3.1895,-3.1895,-3.0535,-2.9415,-2.9485,-2.8718,-2.8116,-2.8177,-2.8847,-2.938,-2.9569,-3.0255,-3.0723,-3.0782,-3.0801,-3.0841,-3.0899,-3.0909,-3.0891,-3.0899,-3.1676,-3.2812,-3.4375,-3.3691,-3.3769,-3.4687,-3.5508,-3.5937,-3.5996,-3.5996,-3.5993,-3.5991,-3.5991,-3.5994,-3.5994,-3.5994,-3.695,-3.8514,-3.857,-3.9546,-4.101,-4.1088,-4.1108,-4.1108,-4.1108,-4.1108,-4.1108,-2.7132,-2.7132,-2.7132,-2.7132,-2.7132,-2.7132,-2.7132,-2.7444,-2.7701,-2.7701,-2.8489,-2.9156,-2.9267,-3.1751,-3.3393,-3.3393,-3.3393,-3.3393,-3.3393,-3.3868,-3.3921,-3.3422,-3.3393,-3.3707,-3.433,-3.4715,-3.4963,-3.5054,-3.4675,-3.4591,-3.4753,-3.4753,-3.4851,-3.5032,-3.5032,-3.5155,-3.5354,-3.5354,-3.5417,-3.5493,-3.5493,-3.5493,-3.5493,-3.5493,-3.5515,-3.5515,-3.5591,-3.5596,-3.5612,-3.5673,-3.5704,-3.5704,-3.5704,-3.5704,-3.5715,-3.5706,-3.5697,-3.5688,-3.5708,-3.5728,-3.5747,-3.5794,-3.5803,-3.5704,-3.5383,-3.4886,-3.44,-3.4109,-3.3371,-3.2807,-3.2807,-3.1817,-3.1008,-3.1047,-2.9905,-2.9182,-2.9741,-2.962,-2.9709,-3.0281,-3.0601,-3.0801,-3.0801,-3.0801,-3.0841,-3.0899,-3.0909,-3.1149,-3.1677,-3.25,-3.3476,-3.4668,-3.4375,-3.4629,-3.5508,-3.582,-3.5996,-3.5996,-3.5996,-3.5996,-3.5992,-3.6001,-3.5991,-3.5991,-3.5991,-3.6989,-3.8593,-3.859,-3.9585,-4.1108,-4.1108,-4.1108,-4.1108,-4.1108,-4.1108,-4.1108,-2.7701,-2.7701,-2.7701,-2.7701,-2.7982,-2.821,-2.821,-2.821,-2.821,-2.821,-2.8897,-2.9307,-2.9104,-3.1893,-3.378,-3.378,-3.378,-3.378,-3.378,-3.4293,-3.434,-3.3807,-3.378,-3.3928,-3.4237,-3.487,-3.5209,-3.5209,-3.487,-3.4813,-3.4982,-3.4982,-3.5088,-3.5285,-3.53,-3.5364,-3.5479,-3.5493,-3.5493,-3.5532,-3.5878,-3.6031,-3.6065,-3.6219,-3.629,-3.6279,-3.635,-3.6388,-3.6412,-3.6466,-3.6497,-3.6439,-3.6168,-3.5897,-3.5695,-3.5697,-3.5707,-3.5698,-3.5699,-3.5708,-3.5708,-3.5775,-3.5803,-3.5793,-3.5791,-3.5333,-3.4905,-3.4905,-3.4245,-3.3682,-3.3682,-3.2982,-3.2336,-3.2071,-3.1065,-3.0438,-3.0739,-3.029,-3.0125,-3.0729,-3.0796,-3.0801,-3.0801,-3.0801,-3.0977,-3.1407,-3.1434,-3.1891,-3.293,-3.3516,-3.4219,-3.5078,-3.5117,-3.539,-3.5994,-3.5994,-3.5995,-3.5996,-3.5996,-3.5995,-3.5994,-3.6001,-3.5991,-3.601,-3.6286,-3.7243,-3.8612,-3.8863,-3.9819,-4.1108,-4.1108,-4.1108,-4.1108,-4.1108,-4.1108,-4.1108,-2.7713,-2.7713,-2.7713,-2.7713,-2.8639,-2.9407,-2.9407,-2.9407,-2.9407,-2.9407,-2.9407,-2.8984,-2.7876,-3.1845,-3.4602,-3.4602,-3.4602,-3.4583,-3.4623,-3.4623,-3.4623,-3.4583,-3.4602,-3.4791,-3.5193,-3.5209,-3.5209,-3.5209,-3.5209,-3.5209,-3.5209,-3.5209,-3.5245,-3.5293,-3.5285,-3.535,-3.5383,-3.5479,-3.5526,-3.5608,-3.6757,-3.7219,-3.7276,-3.7815,-3.7988,-3.8003,-3.8086,-3.8099,-3.8112,-3.8175,-3.8199,-3.8063,-3.7174,-3.6361,-3.5715,-3.5716,-3.5707,-3.5718,-3.5699,-3.5708,-3.5708,-3.5775,-3.5801,-3.5799,-3.5799,-3.5799,-3.5799,-3.5799,-3.5119,-3.4497,-3.4497,-3.3856,-3.3043,-3.2255,-3.2104,-3.1811,-3.0933,-3.0801,-3.0801,-3.0801,-3.0801,-3.0801,-3.0801,-3.0801,-3.1309,-3.2522,-3.2619,-3.3213,-3.4629,-3.4707,-3.5117,-3.5976,-3.5996,-3.5994,-3.5994,-3.5991,-3.5999,-3.5991,-3.5991,-3.6005,-3.5991,-3.5991,-3.5991,-3.6049,-3.6911,-3.7789,-3.8671,-3.9468,-4.0307,-4.1108,-4.1108,-4.1108,-4.1108,-4.1108,-4.1108,-4.1108,-2.8897,-2.8897,-2.8897,-2.8897,-2.916,-2.9407,-2.9407,-2.9407,-2.9407,-2.9407,-2.9407,-3.02,-3.2297,-3.3608,-3.4404,-3.4583,-3.4602,-3.4812,-3.534,-3.5369,-3.5247,-3.4961,-3.4732,-3.4647,-3.4791,-3.5054,-3.5209,-3.5209,-3.5209,-3.5209,-3.5209,-3.5209,-3.5245,-3.5312,-3.5289,-3.5339,-3.5383,-3.5479,-3.618,-3.7276,-3.7623,-3.8034,-3.8489,-3.8644,-3.8446,-3.8092,-3.8202,-3.8187,-3.8112,-3.8175,-3.8199,-3.816,-3.7889,-3.7669,-3.7411,-3.6793,-3.6658,-3.6542,-3.5948,-3.5773,-3.5773,-3.5803,-3.5803,-3.5793,-3.5791,-3.5799,-3.5799,-3.5799,-3.5628,-3.5475,-3.5475,-3.4795,-3.4144,-3.3964,-3.3403,-3.2709,-3.1833,-3.1719,-3.1485,-3.088,-3.0841,-3.1172,-3.1992,-3.1337,-3.1513,-3.3049,-3.3549,-3.4062,-3.4668,-3.5273,-3.5723,-3.5996,-3.5996,-3.5994,-3.5994,-3.5991,-3.5994,-3.5999,-3.5999,-3.5996,-3.5991,-3.5991,-3.5991,-3.6049,-3.6911,-3.7789,-3.8671,-3.9468,-4.0307,-4.1108,-4.1108,-4.1108,-4.1108,-4.1108,-4.1108,-4.1108,-2.9407,-2.9407,-2.9407,-2.9407,-2.9407,-2.9407,-2.9407,-2.9407,-2.9407,-2.9407,-3.081,-3.2487,-3.4248,-3.4386,-3.4409,-3.4602,-3.4602,-3.4792,-3.5232,-3.554,-3.5509,-3.5114,-3.4962,-3.4793,-3.4583,-3.485,-3.5037,-3.5209,-3.5209,-3.5209,-3.5209,-3.5254,-3.5461,-3.5777,-3.5897,-3.6262,-3.6796,-3.6858,-3.7706,-3.9003,-3.909,-3.9344,-3.9713,-3.9743,-3.9509,-3.9182,-3.9295,-3.9259,-3.9187,-3.925,-3.9011,-3.8702,-3.8713,-3.8523,-3.8197,-3.7676,-3.7327,-3.6996,-3.6451,-3.6071,-3.5791,-3.5801,-3.5793,-3.5801,-3.5791,-3.5799,-3.5799,-3.5799,-3.5834,-3.5864,-3.5898,-3.547,-3.5032,-3.4753,-3.425,-3.3614,-3.2731,-3.2617,-3.2422,-3.1895,-3.1856,-3.207,-3.2561,-3.2174,-3.259,-3.429,-3.4765,-3.5039,-3.5215,-3.5703,-3.5996,-3.5996,-3.5996,-3.5995,-3.6007,-3.5999,-3.5991,-3.5991,-3.5991,-3.5991,-3.5991,-3.5991,-3.6189,-3.656,-3.7438,-3.8297,-3.9136,-3.9976,-4.062,-4.1108,-4.1108,-4.1108,-4.1108,-4.1108,-4.1108,-4.1108,-2.9365,-2.9409,-2.945,-2.9386,-2.9409,-2.947,-2.949,-2.949,-2.949,-2.949,-3.2994,-3.5207,-3.4394,-3.4454,-3.4604,-3.4691,-3.471,-3.471,-3.471,-3.534,-3.554,-3.5162,-3.5273,-3.5133,-3.4711,-3.4626,-3.4811,-3.5209,-3.5209,-3.5209,-3.5209,-3.5326,-3.5806,-3.6578,-3.687,-3.7732,-3.8923,-3.9096,-3.9712,-4.0568,-4.0742,-4.0837,-4.0827,-4.0894,-4.0885,-4.0837,-4.0877,-4.087,-4.081,-4.0887,-4.0339,-3.9623,-3.9627,-3.9127,-3.8539,-3.8452,-3.7868,-3.7217,-3.7136,-3.6464,-3.5815,-3.5815,-3.5815,-3.5807,-3.5799,-3.5799,-3.5799,-3.5799,-3.5799,-3.5823,-3.5898,-3.5892,-3.5663,-3.4948,-3.4819,-3.4511,-3.3649,-3.3515,-3.3515,-3.3478,-3.342,-3.3266,-3.2934,-3.3344,-3.4289,-3.5879,-3.5996,-3.5996,-3.5996,-3.5996,-3.5996,-3.5996,-3.5996,-3.5996,-3.5996,-3.6005,-3.5994,-3.5991,-3.5991,-3.5991,-3.5991,-3.5991,-3.6482,-3.734,-3.8219,-3.9058,-3.9878,-4.0737,-4.1108,-4.1108,-4.1108,-4.1108,-4.1108,-4.1108,-4.1108,-4.1108,-2.9085,-2.9589,-2.9822,-2.92,-2.9608,-3.0064,-3.018,-3.0174,-3.0174,-3.0174,-3.3292,-3.5432,-3.5239,-3.4653,-3.4614,-3.5397,-3.5457,-3.5457,-3.5457,-3.5608,-3.5662,-3.5565,-3.5608,-3.5584,-3.547,-3.4889,-3.4811,-3.5209,-3.5209,-3.5209,-3.5209,-3.5223,-3.5916,-3.7147,-3.7623,-3.8284,-3.9131,-4.0135,-4.0727,-4.0972,-4.1018,-4.1022,-4.1046,-4.1051,-4.1017,-4.0953,-4.0902,-4.0849,-4.0812,-4.0892,-4.0803,-4.0667,-4.0667,-4.0568,-4.0271,-3.9597,-3.8837,-3.8057,-3.7359,-3.6536,-3.5869,-3.5869,-3.588,-3.5853,-3.5815,-3.5799,-3.5799,-3.5799,-3.5845,-3.5872,-3.5897,-3.5934,-3.5919,-3.5754,-3.5715,-3.5402,-3.4549,-3.4413,-3.4334,-3.4139,-3.368,-3.3883,-3.5136,-3.537,-3.5586,-3.5976,-3.5996,-3.5996,-3.5996,-3.5996,-3.5996,-3.5996,-3.5996,-3.5995,-3.6001,-3.6005,-3.6003,-3.5991,-3.5991,-3.5991,-3.5991,-3.5991,-3.6482,-3.734,-3.8219,-3.9058,-3.9878,-4.0737,-4.1108,-4.1108,-4.1108,-4.1108,-4.1108,-4.1108,-4.1108,-4.1108,-2.957,-2.9921,-3.0064,-2.9644,-2.9921,-3.0259,-3.0386,-3.0398,-3.0994,-3.2609,-3.4378,-3.5493,-3.5493,-3.5086,-3.5066,-3.5651,-3.5704,-3.5704,-3.5704,-3.5704,-3.5704,-3.5704,-3.5704,-3.5704,-3.5704,-3.5307,-3.5235,-3.5435,-3.5464,-3.5405,-3.5296,-3.5438,-3.6279,-3.7699,-3.8338,-3.9088,-3.9915,-4.0692,-4.1037,-4.109,-4.1104,-4.1108,-4.1108,-4.1108,-4.1078,-4.1033,-4.1003,-4.096,-4.0907,-4.0937,-4.0976,-4.0995,-4.0995,-4.1007,-4.0902,-4.0461,-3.9741,-3.8934,-3.8068,-3.7187,-3.6423,-3.5994,-3.59,-3.5899,-3.585,-3.5846,-3.5845,-3.5844,-3.589,-3.5899,-3.5892,-3.5929,-3.5962,-3.5986,-3.5999,-3.584,-3.5384,-3.5318,-3.5271,-3.5135,-3.4827,-3.4993,-3.5918,-3.5996,-3.5996,-3.5996,-3.5996,-3.5996,-3.5996,-3.5996,-3.5996,-3.5991,-3.5991,-3.6009,-3.6003,-3.6003,-3.6001,-3.5991,-3.5991,-3.5991,-3.5991,-3.5991,-3.6696,-3.7946,-3.8394,-3.9292,-4.0464,-4.0912,-4.1108,-4.1108,-4.1108,-4.1108,-4.1108,-4.1108,-4.1108,-4.1108,-3.0204,-3.0204,-3.0204,-3.0204,-3.0204,-3.0245,-3.0362,-3.0867,-3.2282,-3.5128,-3.5493,-3.5493,-3.5493,-3.5493,-3.5528,-3.567,-3.5693,-3.5704,-3.5704,-3.5704,-3.5704,-3.5704,-3.5704,-3.5762,-3.5897,-3.5916,-3.5974,-3.6129,-3.5912,-3.5969,-3.635,-3.6581,-3.7347,-3.86,-3.9228,-3.9946,-4.0742,-4.0921,-4.1039,-4.1096,-4.1097,-4.1104,-4.1108,-4.1108,-4.1108,-4.1108,-4.1085,-4.1042,-4.1003,-4.1011,-4.1026,-4.1022,-4.1022,-4.1022,-4.1018,-4.1027,-4.0448,-3.9628,-3.8744,-3.7882,-3.7003,-3.6122,-3.5906,-3.5903,-3.5908,-3.5912,-3.5899,-3.5899,-3.5901,-3.5899,-3.5909,-3.5911,-3.5933,-3.5995,-3.5991,-3.6009,-3.5976,-3.5992,-3.6001,-3.5984,-3.5996,-3.6003,-3.5996,-3.5996,-3.5996,-3.5996,-3.5996,-3.5996,-3.5996,-3.5996,-3.5995,-3.6001,-3.5994,-3.5999,-3.6009,-3.5999,-3.5991,-3.5991,-3.5991,-3.5991,-3.601,-3.615,-3.7087,-3.8612,-3.8746,-3.9683,-4.1108,-4.1108,-4.1108,-4.1108,-4.1108,-4.1108,-4.1108,-4.1108,-4.1108,-4.1108,-3.0204,-3.0204,-3.0204,-3.0204,-3.0204,-3.0218,-3.0213,-3.2831,-3.4974,-3.5435,-3.5493,-3.5493,-3.5493,-3.5493,-3.5507,-3.5534,-3.5628,-3.5704,-3.5704,-3.5704,-3.5704,-3.5704,-3.5704,-3.6033,-3.6729,-3.6748,-3.7116,-3.787,-3.6411,-3.7239,-4.015,-4.0199,-4.0315,-4.0529,-4.0626,-4.0743,-4.0869,-4.0897,-4.0993,-4.1104,-4.1105,-4.1094,-4.1108,-4.1108,-4.1108,-4.1085,-4.1037,-4.1011,-4.1006,-4.1071,-4.113,-4.117,-4.117,-4.1131,-4.1092,-4.1094,-4.0524,-3.9691,-3.8815,-3.7956,-3.7077,-3.6198,-3.5935,-3.5918,-3.5962,-3.5937,-3.5899,-3.5906,-3.5894,-3.5898,-3.5898,-3.5957,-3.5994,-3.5993,-3.5994,-3.5972,-3.5923,-3.5955,-3.5976,-3.5915,-3.5953,-3.6003,-3.5996,-3.5996,-3.5996,-3.5996,-3.5996,-3.5996,-3.5996,-3.5996,-3.5996,-3.5996,-3.6003,-3.5994,-3.5996,-3.5994,-3.5991,-3.5991,-3.5991,-3.5991,-3.603,-3.6774,-3.7653,-3.8632,-3.9331,-4.019,-4.1108,-4.1108,-4.1108,-4.1108,-4.1108,-4.1108,-4.1108,-4.1108,-4.1108,-4.1108,-3.0204,-3.0204,-3.0204,-3.0204,-3.0204,-3.0835,-3.2707,-3.4316,-3.5369,-3.5493,-3.5493,-3.5493,-3.5493,-3.5493,-3.5493,-3.5493,-3.5541,-3.5635,-3.5704,-3.5654,-3.5654,-3.5704,-3.5704,-3.5858,-3.6226,-3.6721,-3.7398,-3.8315,-3.7502,-3.7873,-3.94,-4.0432,-4.0907,-4.0907,-4.0907,-4.0907,-4.0888,-4.0943,-4.0986,-4.1042,-4.1085,-4.1101,-4.1108,-4.1108,-4.1108,-4.1108,-4.1074,-4.1066,-4.1076,-4.112,-4.1186,-4.1191,-4.1191,-4.1151,-4.1107,-4.1091,-4.085,-4.0385,-3.9507,-3.8668,-3.7828,-3.6931,-3.6333,-3.5966,-3.5991,-3.5982,-3.595,-3.5909,-3.5908,-3.5908,-3.5908,-3.5923,-3.5938,-3.5938,-3.5986,-3.5984,-3.5912,-3.5931,-3.5932,-3.5895,-3.5957,-3.5994,-3.5996,-3.5996,-3.5996,-3.5996,-3.5996,-3.5996,-3.5996,-3.5996,-3.5996,-3.5996,-3.5991,-3.6001,-3.5991,-3.5991,-3.5991,-3.5991,-3.5991,-3.6267,-3.6735,-3.7126,-3.8024,-3.9292,-3.9644,-4.0288,-4.1108,-4.1108,-4.1108,-4.1108,-4.1108,-4.1108,-4.1108,-4.1108,-4.1108,-4.1108]}]]